<?xml version="1.0" encoding="UTF-8" standalone="no" ?>
<gpx xmlns="http://www.topografix.com/GPX/1/1" xmlns:xsi="http://www.w3.org/2001/XMLSchema-instance" xsi:schemaLocation="http://www.topografix.com/GPX/1/1 http://www.topografix.com/GPX/1/1/gpx.xsd" version="1.1" creator="VisuGPX - https://www.visugpx.com">
  <metadata>
    <name>St sorlin d'arves</name>
    <desc><![CDATA[Trace AlpineQuest 19/07/2020 10:07:13]]></desc>
  </metadata>
  <trk>
    <name><![CDATA[St sorlin d'arves_1]]></name>
    <trkseg>
      <trkpt lat="45.22019" lon="6.21805">
        <ele>1593.5739746094</ele>
        <time>2020-07-19T08:07:13Z</time>
      </trkpt>
      <trkpt lat="45.22024" lon="6.21798">
        <ele>1599.7740478516</ele>
        <time>2020-07-19T08:09:21Z</time>
      </trkpt>
      <trkpt lat="45.22024" lon="6.21788">
        <ele>1597.6739501953</ele>
        <time>2020-07-19T08:09:30Z</time>
      </trkpt>
      <trkpt lat="45.22023" lon="6.21777">
        <ele>1595.1739501953</ele>
        <time>2020-07-19T08:09:36Z</time>
      </trkpt>
      <trkpt lat="45.22024" lon="6.21761">
        <ele>1592.4739990234</ele>
        <time>2020-07-19T08:09:41Z</time>
      </trkpt>
      <trkpt lat="45.22023" lon="6.21745">
        <ele>1589.7740478516</ele>
        <time>2020-07-19T08:09:46Z</time>
      </trkpt>
      <trkpt lat="45.22021" lon="6.21735">
        <ele>1589.7740478516</ele>
        <time>2020-07-19T08:09:51Z</time>
      </trkpt>
      <trkpt lat="45.22016" lon="6.2173">
        <ele>1591.4739990234</ele>
        <time>2020-07-19T08:09:56Z</time>
      </trkpt>
      <trkpt lat="45.22008" lon="6.21727">
        <ele>1591.1739501953</ele>
        <time>2020-07-19T08:10:01Z</time>
      </trkpt>
      <trkpt lat="45.21996" lon="6.21728">
        <ele>1592.1739501953</ele>
        <time>2020-07-19T08:10:06Z</time>
      </trkpt>
      <trkpt lat="45.21986" lon="6.21723">
        <ele>1592.6739501953</ele>
        <time>2020-07-19T08:10:11Z</time>
      </trkpt>
      <trkpt lat="45.21983" lon="6.21712">
        <ele>1592.3740234375</ele>
        <time>2020-07-19T08:10:16Z</time>
      </trkpt>
      <trkpt lat="45.2199" lon="6.2171">
        <ele>1590.9739990234</ele>
        <time>2020-07-19T08:10:24Z</time>
      </trkpt>
      <trkpt lat="45.21997" lon="6.21711">
        <ele>1590.9739990234</ele>
        <time>2020-07-19T08:10:29Z</time>
      </trkpt>
      <trkpt lat="45.22006" lon="6.21709">
        <ele>1593.0739746094</ele>
        <time>2020-07-19T08:10:34Z</time>
      </trkpt>
      <trkpt lat="45.22016" lon="6.21707">
        <ele>1595.5739746094</ele>
        <time>2020-07-19T08:10:39Z</time>
      </trkpt>
      <trkpt lat="45.22027" lon="6.21711">
        <ele>1597.6739501953</ele>
        <time>2020-07-19T08:10:44Z</time>
      </trkpt>
      <trkpt lat="45.22035" lon="6.21715">
        <ele>1599.9739990234</ele>
        <time>2020-07-19T08:10:49Z</time>
      </trkpt>
      <trkpt lat="45.22042" lon="6.21721">
        <ele>1600.9739990234</ele>
        <time>2020-07-19T08:10:54Z</time>
      </trkpt>
      <trkpt lat="45.22049" lon="6.21729">
        <ele>1604.8740234375</ele>
        <time>2020-07-19T08:10:59Z</time>
      </trkpt>
      <trkpt lat="45.22054" lon="6.21734">
        <ele>1613.0739746094</ele>
        <time>2020-07-19T08:11:05Z</time>
      </trkpt>
      <trkpt lat="45.22062" lon="6.21737">
        <ele>1615.8740234375</ele>
        <time>2020-07-19T08:11:10Z</time>
      </trkpt>
      <trkpt lat="45.22068" lon="6.21736">
        <ele>1616.6739501953</ele>
        <time>2020-07-19T08:11:15Z</time>
      </trkpt>
      <trkpt lat="45.22076" lon="6.21734">
        <ele>1616.3740234375</ele>
        <time>2020-07-19T08:11:21Z</time>
      </trkpt>
      <trkpt lat="45.22083" lon="6.21729">
        <ele>1616.2740478516</ele>
        <time>2020-07-19T08:11:26Z</time>
      </trkpt>
      <trkpt lat="45.22089" lon="6.21727">
        <ele>1616.4739990234</ele>
        <time>2020-07-19T08:11:31Z</time>
      </trkpt>
      <trkpt lat="45.22097" lon="6.21724">
        <ele>1617.6739501953</ele>
        <time>2020-07-19T08:11:36Z</time>
      </trkpt>
      <trkpt lat="45.22106" lon="6.21714">
        <ele>1618.8740234375</ele>
        <time>2020-07-19T08:11:41Z</time>
      </trkpt>
      <trkpt lat="45.22111" lon="6.21703">
        <ele>1620.5739746094</ele>
        <time>2020-07-19T08:11:46Z</time>
      </trkpt>
      <trkpt lat="45.22116" lon="6.21695">
        <ele>1622.3740234375</ele>
        <time>2020-07-19T08:11:52Z</time>
      </trkpt>
      <trkpt lat="45.22121" lon="6.21689">
        <ele>1623.6739501953</ele>
        <time>2020-07-19T08:11:58Z</time>
      </trkpt>
      <trkpt lat="45.22127" lon="6.21683">
        <ele>1624.1739501953</ele>
        <time>2020-07-19T08:12:04Z</time>
      </trkpt>
      <trkpt lat="45.22133" lon="6.21676">
        <ele>1624.6739501953</ele>
        <time>2020-07-19T08:12:09Z</time>
      </trkpt>
      <trkpt lat="45.22139" lon="6.21671">
        <ele>1625.0739746094</ele>
        <time>2020-07-19T08:12:15Z</time>
      </trkpt>
      <trkpt lat="45.22145" lon="6.21667">
        <ele>1625.5739746094</ele>
        <time>2020-07-19T08:12:20Z</time>
      </trkpt>
      <trkpt lat="45.22153" lon="6.21663">
        <ele>1626.1739501953</ele>
        <time>2020-07-19T08:12:25Z</time>
      </trkpt>
      <trkpt lat="45.2216" lon="6.21661">
        <ele>1626.8740234375</ele>
        <time>2020-07-19T08:12:31Z</time>
      </trkpt>
      <trkpt lat="45.22166" lon="6.21654">
        <ele>1627.6739501953</ele>
        <time>2020-07-19T08:12:36Z</time>
      </trkpt>
      <trkpt lat="45.22172" lon="6.2165">
        <ele>1628.7740478516</ele>
        <time>2020-07-19T08:12:41Z</time>
      </trkpt>
      <trkpt lat="45.2218" lon="6.21649">
        <ele>1628.9739990234</ele>
        <time>2020-07-19T08:12:46Z</time>
      </trkpt>
      <trkpt lat="45.22188" lon="6.21646">
        <ele>1629.2740478516</ele>
        <time>2020-07-19T08:12:51Z</time>
      </trkpt>
      <trkpt lat="45.22195" lon="6.21641">
        <ele>1629.7740478516</ele>
        <time>2020-07-19T08:12:56Z</time>
      </trkpt>
      <trkpt lat="45.22201" lon="6.21636">
        <ele>1631.2740478516</ele>
        <time>2020-07-19T08:13:01Z</time>
      </trkpt>
      <trkpt lat="45.22208" lon="6.21634">
        <ele>1633.3740234375</ele>
        <time>2020-07-19T08:13:06Z</time>
      </trkpt>
      <trkpt lat="45.22215" lon="6.21628">
        <ele>1635.7740478516</ele>
        <time>2020-07-19T08:13:11Z</time>
      </trkpt>
      <trkpt lat="45.2222" lon="6.21621">
        <ele>1638.2740478516</ele>
        <time>2020-07-19T08:13:16Z</time>
      </trkpt>
      <trkpt lat="45.22226" lon="6.21615">
        <ele>1640.7740478516</ele>
        <time>2020-07-19T08:13:21Z</time>
      </trkpt>
      <trkpt lat="45.22232" lon="6.21611">
        <ele>1642.3740234375</ele>
        <time>2020-07-19T08:13:26Z</time>
      </trkpt>
      <trkpt lat="45.22239" lon="6.21604">
        <ele>1644.2740478516</ele>
        <time>2020-07-19T08:13:32Z</time>
      </trkpt>
      <trkpt lat="45.22246" lon="6.21599">
        <ele>1645.6739501953</ele>
        <time>2020-07-19T08:13:37Z</time>
      </trkpt>
      <trkpt lat="45.22253" lon="6.21593">
        <ele>1646.6739501953</ele>
        <time>2020-07-19T08:13:42Z</time>
      </trkpt>
      <trkpt lat="45.22259" lon="6.2159">
        <ele>1648.375</ele>
        <time>2020-07-19T08:13:47Z</time>
      </trkpt>
      <trkpt lat="45.22267" lon="6.21587">
        <ele>1650.2750244141</ele>
        <time>2020-07-19T08:13:52Z</time>
      </trkpt>
      <trkpt lat="45.22275" lon="6.21586">
        <ele>1651.9749755859</ele>
        <time>2020-07-19T08:13:57Z</time>
      </trkpt>
      <trkpt lat="45.22282" lon="6.21587">
        <ele>1651.9749755859</ele>
        <time>2020-07-19T08:14:02Z</time>
      </trkpt>
      <trkpt lat="45.22291" lon="6.21589">
        <ele>1651.7750244141</ele>
        <time>2020-07-19T08:14:07Z</time>
      </trkpt>
      <trkpt lat="45.223" lon="6.21591">
        <ele>1651.4749755859</ele>
        <time>2020-07-19T08:14:12Z</time>
      </trkpt>
      <trkpt lat="45.22306" lon="6.21598">
        <ele>1651.6750488281</ele>
        <time>2020-07-19T08:14:17Z</time>
      </trkpt>
      <trkpt lat="45.22313" lon="6.21606">
        <ele>1652.2750244141</ele>
        <time>2020-07-19T08:14:22Z</time>
      </trkpt>
      <trkpt lat="45.22318" lon="6.21612">
        <ele>1653.0749511719</ele>
        <time>2020-07-19T08:14:27Z</time>
      </trkpt>
      <trkpt lat="45.22325" lon="6.21615">
        <ele>1652.4749755859</ele>
        <time>2020-07-19T08:14:32Z</time>
      </trkpt>
      <trkpt lat="45.22333" lon="6.21613">
        <ele>1650.5749511719</ele>
        <time>2020-07-19T08:14:38Z</time>
      </trkpt>
      <trkpt lat="45.22344" lon="6.21612">
        <ele>1644.9749755859</ele>
        <time>2020-07-19T08:14:43Z</time>
      </trkpt>
      <trkpt lat="45.22354" lon="6.21612">
        <ele>1639.1750488281</ele>
        <time>2020-07-19T08:14:48Z</time>
      </trkpt>
      <trkpt lat="45.22366" lon="6.21614">
        <ele>1634.375</ele>
        <time>2020-07-19T08:14:53Z</time>
      </trkpt>
      <trkpt lat="45.22375" lon="6.21614">
        <ele>1630.5749511719</ele>
        <time>2020-07-19T08:14:58Z</time>
      </trkpt>
      <trkpt lat="45.22382" lon="6.21616">
        <ele>1627.4749755859</ele>
        <time>2020-07-19T08:15:04Z</time>
      </trkpt>
      <trkpt lat="45.22391" lon="6.21619">
        <ele>1626.7750244141</ele>
        <time>2020-07-19T08:15:09Z</time>
      </trkpt>
      <trkpt lat="45.224" lon="6.21623">
        <ele>1627.1750488281</ele>
        <time>2020-07-19T08:15:14Z</time>
      </trkpt>
      <trkpt lat="45.22409" lon="6.21627">
        <ele>1627.6750488281</ele>
        <time>2020-07-19T08:15:19Z</time>
      </trkpt>
      <trkpt lat="45.22417" lon="6.21633">
        <ele>1628.4749755859</ele>
        <time>2020-07-19T08:15:24Z</time>
      </trkpt>
      <trkpt lat="45.22424" lon="6.21637">
        <ele>1629.5749511719</ele>
        <time>2020-07-19T08:15:29Z</time>
      </trkpt>
      <trkpt lat="45.2243" lon="6.21643">
        <ele>1631.4749755859</ele>
        <time>2020-07-19T08:15:34Z</time>
      </trkpt>
      <trkpt lat="45.22435" lon="6.21651">
        <ele>1635.2750244141</ele>
        <time>2020-07-19T08:15:39Z</time>
      </trkpt>
      <trkpt lat="45.22442" lon="6.21655">
        <ele>1637.875</ele>
        <time>2020-07-19T08:15:44Z</time>
      </trkpt>
      <trkpt lat="45.2245" lon="6.21658">
        <ele>1640.7750244141</ele>
        <time>2020-07-19T08:15:49Z</time>
      </trkpt>
      <trkpt lat="45.22456" lon="6.21665">
        <ele>1642.9749755859</ele>
        <time>2020-07-19T08:15:54Z</time>
      </trkpt>
      <trkpt lat="45.22462" lon="6.21672">
        <ele>1644.9749755859</ele>
        <time>2020-07-19T08:15:59Z</time>
      </trkpt>
      <trkpt lat="45.22469" lon="6.21677">
        <ele>1646.2750244141</ele>
        <time>2020-07-19T08:16:04Z</time>
      </trkpt>
      <trkpt lat="45.22475" lon="6.21681">
        <ele>1647.375</ele>
        <time>2020-07-19T08:16:09Z</time>
      </trkpt>
      <trkpt lat="45.2248" lon="6.21687">
        <ele>1649.1750488281</ele>
        <time>2020-07-19T08:16:14Z</time>
      </trkpt>
      <trkpt lat="45.22487" lon="6.21697">
        <ele>1651.5749511719</ele>
        <time>2020-07-19T08:16:19Z</time>
      </trkpt>
      <trkpt lat="45.22494" lon="6.21706">
        <ele>1653.375</ele>
        <time>2020-07-19T08:16:24Z</time>
      </trkpt>
      <trkpt lat="45.225" lon="6.21715">
        <ele>1654.7750244141</ele>
        <time>2020-07-19T08:16:29Z</time>
      </trkpt>
      <trkpt lat="45.22505" lon="6.21724">
        <ele>1656.6750488281</ele>
        <time>2020-07-19T08:16:34Z</time>
      </trkpt>
      <trkpt lat="45.2251" lon="6.21732">
        <ele>1658.375</ele>
        <time>2020-07-19T08:16:39Z</time>
      </trkpt>
      <trkpt lat="45.22518" lon="6.21733">
        <ele>1660.4749755859</ele>
        <time>2020-07-19T08:16:44Z</time>
      </trkpt>
      <trkpt lat="45.22523" lon="6.21719">
        <ele>1664.875</ele>
        <time>2020-07-19T08:16:49Z</time>
      </trkpt>
      <trkpt lat="45.22523" lon="6.21706">
        <ele>1667.875</ele>
        <time>2020-07-19T08:16:54Z</time>
      </trkpt>
      <trkpt lat="45.22519" lon="6.21695">
        <ele>1670.0749511719</ele>
        <time>2020-07-19T08:16:59Z</time>
      </trkpt>
      <trkpt lat="45.22512" lon="6.21685">
        <ele>1672.375</ele>
        <time>2020-07-19T08:17:04Z</time>
      </trkpt>
      <trkpt lat="45.22505" lon="6.21673">
        <ele>1670.7750244141</ele>
        <time>2020-07-19T08:17:09Z</time>
      </trkpt>
      <trkpt lat="45.22499" lon="6.21663">
        <ele>1670.375</ele>
        <time>2020-07-19T08:17:14Z</time>
      </trkpt>
      <trkpt lat="45.22495" lon="6.21653">
        <ele>1670.2750244141</ele>
        <time>2020-07-19T08:17:19Z</time>
      </trkpt>
      <trkpt lat="45.22489" lon="6.21645">
        <ele>1669.9749755859</ele>
        <time>2020-07-19T08:17:24Z</time>
      </trkpt>
      <trkpt lat="45.22483" lon="6.21636">
        <ele>1669.4749755859</ele>
        <time>2020-07-19T08:17:29Z</time>
      </trkpt>
      <trkpt lat="45.22476" lon="6.21626">
        <ele>1669.2750244141</ele>
        <time>2020-07-19T08:17:34Z</time>
      </trkpt>
      <trkpt lat="45.22472" lon="6.21613">
        <ele>1669.375</ele>
        <time>2020-07-19T08:17:39Z</time>
      </trkpt>
      <trkpt lat="45.22465" lon="6.21604">
        <ele>1670.7750244141</ele>
        <time>2020-07-19T08:17:44Z</time>
      </trkpt>
      <trkpt lat="45.22458" lon="6.21595">
        <ele>1671.2750244141</ele>
        <time>2020-07-19T08:17:49Z</time>
      </trkpt>
      <trkpt lat="45.22451" lon="6.21585">
        <ele>1673.875</ele>
        <time>2020-07-19T08:17:54Z</time>
      </trkpt>
      <trkpt lat="45.22444" lon="6.21577">
        <ele>1675.7750244141</ele>
        <time>2020-07-19T08:17:59Z</time>
      </trkpt>
      <trkpt lat="45.22437" lon="6.21568">
        <ele>1677.375</ele>
        <time>2020-07-19T08:18:04Z</time>
      </trkpt>
      <trkpt lat="45.2243" lon="6.2156">
        <ele>1677.4749755859</ele>
        <time>2020-07-19T08:18:09Z</time>
      </trkpt>
      <trkpt lat="45.22424" lon="6.2155">
        <ele>1679.0749511719</ele>
        <time>2020-07-19T08:18:14Z</time>
      </trkpt>
      <trkpt lat="45.22417" lon="6.21541">
        <ele>1680.7750244141</ele>
        <time>2020-07-19T08:18:19Z</time>
      </trkpt>
      <trkpt lat="45.22412" lon="6.21531">
        <ele>1681.1750488281</ele>
        <time>2020-07-19T08:18:24Z</time>
      </trkpt>
      <trkpt lat="45.22409" lon="6.21519">
        <ele>1681.9749755859</ele>
        <time>2020-07-19T08:18:29Z</time>
      </trkpt>
      <trkpt lat="45.22407" lon="6.21505">
        <ele>1685.2750244141</ele>
        <time>2020-07-19T08:18:34Z</time>
      </trkpt>
      <trkpt lat="45.22408" lon="6.21492">
        <ele>1686.9749755859</ele>
        <time>2020-07-19T08:18:39Z</time>
      </trkpt>
      <trkpt lat="45.22407" lon="6.21479">
        <ele>1689.1750488281</ele>
        <time>2020-07-19T08:18:44Z</time>
      </trkpt>
      <trkpt lat="45.22404" lon="6.21466">
        <ele>1691.9749755859</ele>
        <time>2020-07-19T08:18:49Z</time>
      </trkpt>
      <trkpt lat="45.22401" lon="6.21454">
        <ele>1693.5749511719</ele>
        <time>2020-07-19T08:18:54Z</time>
      </trkpt>
      <trkpt lat="45.22398" lon="6.21442">
        <ele>1692.5749511719</ele>
        <time>2020-07-19T08:18:59Z</time>
      </trkpt>
      <trkpt lat="45.22394" lon="6.2143">
        <ele>1691.7750244141</ele>
        <time>2020-07-19T08:19:04Z</time>
      </trkpt>
      <trkpt lat="45.22388" lon="6.21421">
        <ele>1692.0749511719</ele>
        <time>2020-07-19T08:19:09Z</time>
      </trkpt>
      <trkpt lat="45.22382" lon="6.21411">
        <ele>1690.4739990234</ele>
        <time>2020-07-19T08:19:14Z</time>
      </trkpt>
      <trkpt lat="45.22376" lon="6.21404">
        <ele>1689.5739746094</ele>
        <time>2020-07-19T08:19:19Z</time>
      </trkpt>
      <trkpt lat="45.22371" lon="6.21395">
        <ele>1689.0739746094</ele>
        <time>2020-07-19T08:19:24Z</time>
      </trkpt>
      <trkpt lat="45.22364" lon="6.21386">
        <ele>1690.5739746094</ele>
        <time>2020-07-19T08:19:29Z</time>
      </trkpt>
      <trkpt lat="45.22358" lon="6.21376">
        <ele>1691.1739501953</ele>
        <time>2020-07-19T08:19:34Z</time>
      </trkpt>
      <trkpt lat="45.22351" lon="6.21368">
        <ele>1692.1739501953</ele>
        <time>2020-07-19T08:19:39Z</time>
      </trkpt>
      <trkpt lat="45.22345" lon="6.21361">
        <ele>1693.5739746094</ele>
        <time>2020-07-19T08:19:44Z</time>
      </trkpt>
      <trkpt lat="45.22337" lon="6.21352">
        <ele>1695.7740478516</ele>
        <time>2020-07-19T08:19:49Z</time>
      </trkpt>
      <trkpt lat="45.22331" lon="6.21345">
        <ele>1696.1739501953</ele>
        <time>2020-07-19T08:19:54Z</time>
      </trkpt>
      <trkpt lat="45.22324" lon="6.21337">
        <ele>1696.4739990234</ele>
        <time>2020-07-19T08:19:59Z</time>
      </trkpt>
      <trkpt lat="45.22318" lon="6.21328">
        <ele>1696.2740478516</ele>
        <time>2020-07-19T08:20:04Z</time>
      </trkpt>
      <trkpt lat="45.2231" lon="6.2132">
        <ele>1697.6739501953</ele>
        <time>2020-07-19T08:20:09Z</time>
      </trkpt>
      <trkpt lat="45.22304" lon="6.21313">
        <ele>1698.6739501953</ele>
        <time>2020-07-19T08:20:14Z</time>
      </trkpt>
      <trkpt lat="45.22298" lon="6.21305">
        <ele>1699.9739990234</ele>
        <time>2020-07-19T08:20:19Z</time>
      </trkpt>
      <trkpt lat="45.22292" lon="6.21299">
        <ele>1700.6739501953</ele>
        <time>2020-07-19T08:20:24Z</time>
      </trkpt>
      <trkpt lat="45.22284" lon="6.21292">
        <ele>1700.8740234375</ele>
        <time>2020-07-19T08:20:29Z</time>
      </trkpt>
      <trkpt lat="45.22275" lon="6.21281">
        <ele>1701.5739746094</ele>
        <time>2020-07-19T08:20:34Z</time>
      </trkpt>
      <trkpt lat="45.22267" lon="6.21275">
        <ele>1701.9739990234</ele>
        <time>2020-07-19T08:20:39Z</time>
      </trkpt>
      <trkpt lat="45.22259" lon="6.21272">
        <ele>1701.6739501953</ele>
        <time>2020-07-19T08:20:44Z</time>
      </trkpt>
      <trkpt lat="45.22251" lon="6.21265">
        <ele>1701.3740234375</ele>
        <time>2020-07-19T08:20:49Z</time>
      </trkpt>
      <trkpt lat="45.22244" lon="6.21259">
        <ele>1702.4739990234</ele>
        <time>2020-07-19T08:20:54Z</time>
      </trkpt>
      <trkpt lat="45.22237" lon="6.21254">
        <ele>1703.7740478516</ele>
        <time>2020-07-19T08:20:59Z</time>
      </trkpt>
      <trkpt lat="45.2223" lon="6.21249">
        <ele>1704.5739746094</ele>
        <time>2020-07-19T08:21:04Z</time>
      </trkpt>
      <trkpt lat="45.22222" lon="6.21244">
        <ele>1705.5739746094</ele>
        <time>2020-07-19T08:21:09Z</time>
      </trkpt>
      <trkpt lat="45.22213" lon="6.21242">
        <ele>1706.9739990234</ele>
        <time>2020-07-19T08:21:14Z</time>
      </trkpt>
      <trkpt lat="45.22205" lon="6.21243">
        <ele>1708.1739501953</ele>
        <time>2020-07-19T08:21:19Z</time>
      </trkpt>
      <trkpt lat="45.22198" lon="6.21246">
        <ele>1710.0739746094</ele>
        <time>2020-07-19T08:21:24Z</time>
      </trkpt>
      <trkpt lat="45.22189" lon="6.21248">
        <ele>1711.3740234375</ele>
        <time>2020-07-19T08:21:29Z</time>
      </trkpt>
      <trkpt lat="45.2218" lon="6.21248">
        <ele>1712.9739990234</ele>
        <time>2020-07-19T08:21:34Z</time>
      </trkpt>
      <trkpt lat="45.22171" lon="6.21245">
        <ele>1713.1739501953</ele>
        <time>2020-07-19T08:21:39Z</time>
      </trkpt>
      <trkpt lat="45.22162" lon="6.21242">
        <ele>1712.7740478516</ele>
        <time>2020-07-19T08:21:44Z</time>
      </trkpt>
      <trkpt lat="45.22154" lon="6.21243">
        <ele>1713.1739501953</ele>
        <time>2020-07-19T08:21:49Z</time>
      </trkpt>
      <trkpt lat="45.22145" lon="6.21251">
        <ele>1713.8740234375</ele>
        <time>2020-07-19T08:21:54Z</time>
      </trkpt>
      <trkpt lat="45.22137" lon="6.21252">
        <ele>1714.2740478516</ele>
        <time>2020-07-19T08:21:59Z</time>
      </trkpt>
      <trkpt lat="45.22129" lon="6.2124">
        <ele>1714.8740234375</ele>
        <time>2020-07-19T08:22:04Z</time>
      </trkpt>
      <trkpt lat="45.22131" lon="6.21229">
        <ele>1715.4739990234</ele>
        <time>2020-07-19T08:22:09Z</time>
      </trkpt>
      <trkpt lat="45.22137" lon="6.21222">
        <ele>1716.3740234375</ele>
        <time>2020-07-19T08:22:14Z</time>
      </trkpt>
      <trkpt lat="45.22144" lon="6.21215">
        <ele>1717.6739501953</ele>
        <time>2020-07-19T08:22:19Z</time>
      </trkpt>
      <trkpt lat="45.22149" lon="6.21208">
        <ele>1719.7740478516</ele>
        <time>2020-07-19T08:22:24Z</time>
      </trkpt>
      <trkpt lat="45.22157" lon="6.21202">
        <ele>1721.1739501953</ele>
        <time>2020-07-19T08:22:29Z</time>
      </trkpt>
      <trkpt lat="45.22165" lon="6.21195">
        <ele>1722.5739746094</ele>
        <time>2020-07-19T08:22:34Z</time>
      </trkpt>
      <trkpt lat="45.22172" lon="6.21191">
        <ele>1723.5739746094</ele>
        <time>2020-07-19T08:22:39Z</time>
      </trkpt>
      <trkpt lat="45.2218" lon="6.21187">
        <ele>1724.5739746094</ele>
        <time>2020-07-19T08:22:44Z</time>
      </trkpt>
      <trkpt lat="45.22191" lon="6.21182">
        <ele>1724.6739501953</ele>
        <time>2020-07-19T08:22:49Z</time>
      </trkpt>
      <trkpt lat="45.22201" lon="6.21179">
        <ele>1723.8740234375</ele>
        <time>2020-07-19T08:22:54Z</time>
      </trkpt>
      <trkpt lat="45.22209" lon="6.21176">
        <ele>1723.2740478516</ele>
        <time>2020-07-19T08:22:59Z</time>
      </trkpt>
      <trkpt lat="45.2222" lon="6.21173">
        <ele>1723.1739501953</ele>
        <time>2020-07-19T08:23:04Z</time>
      </trkpt>
      <trkpt lat="45.2223" lon="6.21173">
        <ele>1723.1739501953</ele>
        <time>2020-07-19T08:23:09Z</time>
      </trkpt>
      <trkpt lat="45.2224" lon="6.21172">
        <ele>1723.6739501953</ele>
        <time>2020-07-19T08:23:14Z</time>
      </trkpt>
      <trkpt lat="45.2225" lon="6.21171">
        <ele>1723.7740478516</ele>
        <time>2020-07-19T08:23:19Z</time>
      </trkpt>
      <trkpt lat="45.2226" lon="6.21166">
        <ele>1724.8740234375</ele>
        <time>2020-07-19T08:23:24Z</time>
      </trkpt>
      <trkpt lat="45.2227" lon="6.21165">
        <ele>1725.4739990234</ele>
        <time>2020-07-19T08:23:29Z</time>
      </trkpt>
      <trkpt lat="45.22281" lon="6.21165">
        <ele>1725.5739746094</ele>
        <time>2020-07-19T08:23:34Z</time>
      </trkpt>
      <trkpt lat="45.22291" lon="6.21164">
        <ele>1725.1739501953</ele>
        <time>2020-07-19T08:23:39Z</time>
      </trkpt>
      <trkpt lat="45.22301" lon="6.21169">
        <ele>1725.4739990234</ele>
        <time>2020-07-19T08:23:44Z</time>
      </trkpt>
      <trkpt lat="45.22311" lon="6.21172">
        <ele>1726.5739746094</ele>
        <time>2020-07-19T08:23:49Z</time>
      </trkpt>
      <trkpt lat="45.2232" lon="6.21175">
        <ele>1727.9739990234</ele>
        <time>2020-07-19T08:23:54Z</time>
      </trkpt>
      <trkpt lat="45.22328" lon="6.2118">
        <ele>1728.5739746094</ele>
        <time>2020-07-19T08:23:59Z</time>
      </trkpt>
      <trkpt lat="45.22337" lon="6.21183">
        <ele>1729.2740478516</ele>
        <time>2020-07-19T08:24:04Z</time>
      </trkpt>
      <trkpt lat="45.22347" lon="6.21184">
        <ele>1729.6739501953</ele>
        <time>2020-07-19T08:24:09Z</time>
      </trkpt>
      <trkpt lat="45.22353" lon="6.2119">
        <ele>1731.3740234375</ele>
        <time>2020-07-19T08:24:14Z</time>
      </trkpt>
      <trkpt lat="45.22361" lon="6.21195">
        <ele>1732.1739501953</ele>
        <time>2020-07-19T08:24:19Z</time>
      </trkpt>
      <trkpt lat="45.2237" lon="6.21202">
        <ele>1733.4739990234</ele>
        <time>2020-07-19T08:24:24Z</time>
      </trkpt>
      <trkpt lat="45.22375" lon="6.2121">
        <ele>1734.2740478516</ele>
        <time>2020-07-19T08:24:29Z</time>
      </trkpt>
      <trkpt lat="45.22382" lon="6.21218">
        <ele>1735.2740478516</ele>
        <time>2020-07-19T08:24:34Z</time>
      </trkpt>
      <trkpt lat="45.22389" lon="6.21225">
        <ele>1736.1739501953</ele>
        <time>2020-07-19T08:24:39Z</time>
      </trkpt>
      <trkpt lat="45.22396" lon="6.2123">
        <ele>1736.8740234375</ele>
        <time>2020-07-19T08:24:44Z</time>
      </trkpt>
      <trkpt lat="45.22403" lon="6.2124">
        <ele>1737.1739501953</ele>
        <time>2020-07-19T08:24:49Z</time>
      </trkpt>
      <trkpt lat="45.22409" lon="6.21251">
        <ele>1737.2740478516</ele>
        <time>2020-07-19T08:24:54Z</time>
      </trkpt>
      <trkpt lat="45.22415" lon="6.21259">
        <ele>1737.2740478516</ele>
        <time>2020-07-19T08:24:59Z</time>
      </trkpt>
      <trkpt lat="45.2242" lon="6.21269">
        <ele>1737.3740234375</ele>
        <time>2020-07-19T08:25:04Z</time>
      </trkpt>
      <trkpt lat="45.22427" lon="6.21277">
        <ele>1737.9739990234</ele>
        <time>2020-07-19T08:25:09Z</time>
      </trkpt>
      <trkpt lat="45.22435" lon="6.21287">
        <ele>1739.0739746094</ele>
        <time>2020-07-19T08:25:14Z</time>
      </trkpt>
      <trkpt lat="45.22439" lon="6.21296">
        <ele>1739.6739501953</ele>
        <time>2020-07-19T08:25:19Z</time>
      </trkpt>
      <trkpt lat="45.22447" lon="6.21303">
        <ele>1740.8740234375</ele>
        <time>2020-07-19T08:25:24Z</time>
      </trkpt>
      <trkpt lat="45.22453" lon="6.2131">
        <ele>1740.9739990234</ele>
        <time>2020-07-19T08:25:29Z</time>
      </trkpt>
      <trkpt lat="45.2246" lon="6.21316">
        <ele>1742.1750488281</ele>
        <time>2020-07-19T08:25:34Z</time>
      </trkpt>
      <trkpt lat="45.22464" lon="6.21326">
        <ele>1742.9749755859</ele>
        <time>2020-07-19T08:25:39Z</time>
      </trkpt>
      <trkpt lat="45.22472" lon="6.21332">
        <ele>1744.0749511719</ele>
        <time>2020-07-19T08:25:44Z</time>
      </trkpt>
      <trkpt lat="45.22479" lon="6.21337">
        <ele>1744.9749755859</ele>
        <time>2020-07-19T08:25:49Z</time>
      </trkpt>
      <trkpt lat="45.22486" lon="6.21343">
        <ele>1745.7750244141</ele>
        <time>2020-07-19T08:25:54Z</time>
      </trkpt>
      <trkpt lat="45.22493" lon="6.2135">
        <ele>1746.5749511719</ele>
        <time>2020-07-19T08:25:59Z</time>
      </trkpt>
      <trkpt lat="45.22501" lon="6.21357">
        <ele>1746.5749511719</ele>
        <time>2020-07-19T08:26:04Z</time>
      </trkpt>
      <trkpt lat="45.22506" lon="6.21364">
        <ele>1746.4749755859</ele>
        <time>2020-07-19T08:26:09Z</time>
      </trkpt>
      <trkpt lat="45.22514" lon="6.21371">
        <ele>1746.875</ele>
        <time>2020-07-19T08:26:14Z</time>
      </trkpt>
      <trkpt lat="45.22523" lon="6.21375">
        <ele>1747.5749511719</ele>
        <time>2020-07-19T08:26:19Z</time>
      </trkpt>
      <trkpt lat="45.22529" lon="6.2138">
        <ele>1748.2750244141</ele>
        <time>2020-07-19T08:26:24Z</time>
      </trkpt>
      <trkpt lat="45.22538" lon="6.21385">
        <ele>1748.2750244141</ele>
        <time>2020-07-19T08:26:29Z</time>
      </trkpt>
      <trkpt lat="45.22548" lon="6.21389">
        <ele>1748.1750488281</ele>
        <time>2020-07-19T08:26:34Z</time>
      </trkpt>
      <trkpt lat="45.22557" lon="6.21392">
        <ele>1748.1750488281</ele>
        <time>2020-07-19T08:26:39Z</time>
      </trkpt>
      <trkpt lat="45.22566" lon="6.21395">
        <ele>1748.6750488281</ele>
        <time>2020-07-19T08:26:44Z</time>
      </trkpt>
      <trkpt lat="45.22574" lon="6.21402">
        <ele>1748.875</ele>
        <time>2020-07-19T08:26:49Z</time>
      </trkpt>
      <trkpt lat="45.22584" lon="6.21407">
        <ele>1749.6750488281</ele>
        <time>2020-07-19T08:26:54Z</time>
      </trkpt>
      <trkpt lat="45.22592" lon="6.21412">
        <ele>1750.875</ele>
        <time>2020-07-19T08:26:59Z</time>
      </trkpt>
      <trkpt lat="45.226" lon="6.21419">
        <ele>1751.9749755859</ele>
        <time>2020-07-19T08:27:04Z</time>
      </trkpt>
      <trkpt lat="45.22608" lon="6.21426">
        <ele>1753.4749755859</ele>
        <time>2020-07-19T08:27:09Z</time>
      </trkpt>
      <trkpt lat="45.22617" lon="6.21432">
        <ele>1754.0749511719</ele>
        <time>2020-07-19T08:27:14Z</time>
      </trkpt>
      <trkpt lat="45.22625" lon="6.21431">
        <ele>1754.9749755859</ele>
        <time>2020-07-19T08:27:19Z</time>
      </trkpt>
      <trkpt lat="45.22633" lon="6.21437">
        <ele>1755.5749511719</ele>
        <time>2020-07-19T08:27:24Z</time>
      </trkpt>
      <trkpt lat="45.22642" lon="6.21444">
        <ele>1755.4749755859</ele>
        <time>2020-07-19T08:27:29Z</time>
      </trkpt>
      <trkpt lat="45.2265" lon="6.21453">
        <ele>1755.6750488281</ele>
        <time>2020-07-19T08:27:34Z</time>
      </trkpt>
      <trkpt lat="45.22657" lon="6.21462">
        <ele>1755.7750244141</ele>
        <time>2020-07-19T08:27:39Z</time>
      </trkpt>
      <trkpt lat="45.22665" lon="6.2147">
        <ele>1756.375</ele>
        <time>2020-07-19T08:27:44Z</time>
      </trkpt>
      <trkpt lat="45.22673" lon="6.21478">
        <ele>1757.2750244141</ele>
        <time>2020-07-19T08:27:49Z</time>
      </trkpt>
      <trkpt lat="45.2268" lon="6.21485">
        <ele>1758.4749755859</ele>
        <time>2020-07-19T08:27:54Z</time>
      </trkpt>
      <trkpt lat="45.22688" lon="6.21494">
        <ele>1759.2750244141</ele>
        <time>2020-07-19T08:27:59Z</time>
      </trkpt>
      <trkpt lat="45.22697" lon="6.21501">
        <ele>1759.6750488281</ele>
        <time>2020-07-19T08:28:04Z</time>
      </trkpt>
      <trkpt lat="45.22703" lon="6.21512">
        <ele>1760.2750244141</ele>
        <time>2020-07-19T08:28:09Z</time>
      </trkpt>
      <trkpt lat="45.2271" lon="6.2152">
        <ele>1761.1750488281</ele>
        <time>2020-07-19T08:28:14Z</time>
      </trkpt>
      <trkpt lat="45.22717" lon="6.21528">
        <ele>1762.5749511719</ele>
        <time>2020-07-19T08:28:19Z</time>
      </trkpt>
      <trkpt lat="45.22725" lon="6.21537">
        <ele>1763.375</ele>
        <time>2020-07-19T08:28:24Z</time>
      </trkpt>
      <trkpt lat="45.2273" lon="6.21549">
        <ele>1764.0749511719</ele>
        <time>2020-07-19T08:28:29Z</time>
      </trkpt>
      <trkpt lat="45.22736" lon="6.2156">
        <ele>1764.7750244141</ele>
        <time>2020-07-19T08:28:34Z</time>
      </trkpt>
      <trkpt lat="45.22742" lon="6.21571">
        <ele>1764.9749755859</ele>
        <time>2020-07-19T08:28:39Z</time>
      </trkpt>
      <trkpt lat="45.22748" lon="6.21582">
        <ele>1764.875</ele>
        <time>2020-07-19T08:28:44Z</time>
      </trkpt>
      <trkpt lat="45.22755" lon="6.21592">
        <ele>1764.875</ele>
        <time>2020-07-19T08:28:49Z</time>
      </trkpt>
      <trkpt lat="45.22761" lon="6.21601">
        <ele>1765.6750488281</ele>
        <time>2020-07-19T08:28:54Z</time>
      </trkpt>
      <trkpt lat="45.22766" lon="6.21615">
        <ele>1766.375</ele>
        <time>2020-07-19T08:28:59Z</time>
      </trkpt>
      <trkpt lat="45.22771" lon="6.21627">
        <ele>1767.4759521484</ele>
        <time>2020-07-19T08:29:04Z</time>
      </trkpt>
      <trkpt lat="45.22777" lon="6.21639">
        <ele>1767.8759765625</ele>
        <time>2020-07-19T08:29:09Z</time>
      </trkpt>
      <trkpt lat="45.22782" lon="6.21651">
        <ele>1768.6760253906</ele>
        <time>2020-07-19T08:29:14Z</time>
      </trkpt>
      <trkpt lat="45.22785" lon="6.21663">
        <ele>1769.3759765625</ele>
        <time>2020-07-19T08:29:19Z</time>
      </trkpt>
      <trkpt lat="45.22789" lon="6.21678">
        <ele>1770.6760253906</ele>
        <time>2020-07-19T08:29:24Z</time>
      </trkpt>
      <trkpt lat="45.22794" lon="6.21686">
        <ele>1771.3759765625</ele>
        <time>2020-07-19T08:29:29Z</time>
      </trkpt>
      <trkpt lat="45.22802" lon="6.21675">
        <ele>1772.1760253906</ele>
        <time>2020-07-19T08:29:34Z</time>
      </trkpt>
      <trkpt lat="45.22801" lon="6.21653">
        <ele>1773.6760253906</ele>
        <time>2020-07-19T08:29:39Z</time>
      </trkpt>
      <trkpt lat="45.22795" lon="6.21631">
        <ele>1776.0760498047</ele>
        <time>2020-07-19T08:29:44Z</time>
      </trkpt>
      <trkpt lat="45.22789" lon="6.21613">
        <ele>1776.7760009766</ele>
        <time>2020-07-19T08:29:49Z</time>
      </trkpt>
      <trkpt lat="45.22785" lon="6.216">
        <ele>1778.5760498047</ele>
        <time>2020-07-19T08:29:54Z</time>
      </trkpt>
      <trkpt lat="45.22781" lon="6.21585">
        <ele>1779.375</ele>
        <time>2020-07-19T08:29:59Z</time>
      </trkpt>
      <trkpt lat="45.22778" lon="6.21573">
        <ele>1781.0749511719</ele>
        <time>2020-07-19T08:30:04Z</time>
      </trkpt>
      <trkpt lat="45.22773" lon="6.21561">
        <ele>1782.0749511719</ele>
        <time>2020-07-19T08:30:09Z</time>
      </trkpt>
      <trkpt lat="45.22768" lon="6.21549">
        <ele>1784.2750244141</ele>
        <time>2020-07-19T08:30:14Z</time>
      </trkpt>
      <trkpt lat="45.22763" lon="6.21538">
        <ele>1783.375</ele>
        <time>2020-07-19T08:30:19Z</time>
      </trkpt>
      <trkpt lat="45.22759" lon="6.21527">
        <ele>1784.0749511719</ele>
        <time>2020-07-19T08:30:24Z</time>
      </trkpt>
      <trkpt lat="45.22755" lon="6.21513">
        <ele>1784.1750488281</ele>
        <time>2020-07-19T08:30:29Z</time>
      </trkpt>
      <trkpt lat="45.2275" lon="6.21501">
        <ele>1785.1750488281</ele>
        <time>2020-07-19T08:30:34Z</time>
      </trkpt>
      <trkpt lat="45.22744" lon="6.21491">
        <ele>1785.6750488281</ele>
        <time>2020-07-19T08:30:39Z</time>
      </trkpt>
      <trkpt lat="45.22741" lon="6.2148">
        <ele>1785.5749511719</ele>
        <time>2020-07-19T08:30:44Z</time>
      </trkpt>
      <trkpt lat="45.22736" lon="6.21469">
        <ele>1786.4749755859</ele>
        <time>2020-07-19T08:30:49Z</time>
      </trkpt>
      <trkpt lat="45.22732" lon="6.21458">
        <ele>1787.2750244141</ele>
        <time>2020-07-19T08:30:54Z</time>
      </trkpt>
      <trkpt lat="45.22727" lon="6.21447">
        <ele>1788.5749511719</ele>
        <time>2020-07-19T08:30:59Z</time>
      </trkpt>
      <trkpt lat="45.22722" lon="6.21436">
        <ele>1789.2750244141</ele>
        <time>2020-07-19T08:31:04Z</time>
      </trkpt>
      <trkpt lat="45.22716" lon="6.21425">
        <ele>1790.6750488281</ele>
        <time>2020-07-19T08:31:09Z</time>
      </trkpt>
      <trkpt lat="45.2271" lon="6.21415">
        <ele>1791.375</ele>
        <time>2020-07-19T08:31:14Z</time>
      </trkpt>
      <trkpt lat="45.22703" lon="6.21404">
        <ele>1791.4749755859</ele>
        <time>2020-07-19T08:31:19Z</time>
      </trkpt>
      <trkpt lat="45.22698" lon="6.21394">
        <ele>1791.5749511719</ele>
        <time>2020-07-19T08:31:24Z</time>
      </trkpt>
      <trkpt lat="45.22692" lon="6.21381">
        <ele>1792.6750488281</ele>
        <time>2020-07-19T08:31:29Z</time>
      </trkpt>
      <trkpt lat="45.22686" lon="6.21369">
        <ele>1793.6750488281</ele>
        <time>2020-07-19T08:31:34Z</time>
      </trkpt>
      <trkpt lat="45.22679" lon="6.21357">
        <ele>1793.875</ele>
        <time>2020-07-19T08:31:39Z</time>
      </trkpt>
      <trkpt lat="45.22671" lon="6.21348">
        <ele>1794.5749511719</ele>
        <time>2020-07-19T08:31:44Z</time>
      </trkpt>
      <trkpt lat="45.22663" lon="6.2134">
        <ele>1795.375</ele>
        <time>2020-07-19T08:31:49Z</time>
      </trkpt>
      <trkpt lat="45.22655" lon="6.2133">
        <ele>1796.875</ele>
        <time>2020-07-19T08:31:54Z</time>
      </trkpt>
      <trkpt lat="45.22648" lon="6.21321">
        <ele>1798.1750488281</ele>
        <time>2020-07-19T08:31:59Z</time>
      </trkpt>
      <trkpt lat="45.22642" lon="6.21311">
        <ele>1798.5749511719</ele>
        <time>2020-07-19T08:32:04Z</time>
      </trkpt>
      <trkpt lat="45.22635" lon="6.21304">
        <ele>1799.6750488281</ele>
        <time>2020-07-19T08:32:09Z</time>
      </trkpt>
      <trkpt lat="45.22628" lon="6.21297">
        <ele>1800.375</ele>
        <time>2020-07-19T08:32:14Z</time>
      </trkpt>
      <trkpt lat="45.22621" lon="6.21287">
        <ele>1799.9749755859</ele>
        <time>2020-07-19T08:32:19Z</time>
      </trkpt>
      <trkpt lat="45.22614" lon="6.21278">
        <ele>1800.7750244141</ele>
        <time>2020-07-19T08:32:24Z</time>
      </trkpt>
      <trkpt lat="45.22605" lon="6.21269">
        <ele>1800.9749755859</ele>
        <time>2020-07-19T08:32:29Z</time>
      </trkpt>
      <trkpt lat="45.22596" lon="6.21263">
        <ele>1801.4749755859</ele>
        <time>2020-07-19T08:32:34Z</time>
      </trkpt>
      <trkpt lat="45.22589" lon="6.21251">
        <ele>1802.875</ele>
        <time>2020-07-19T08:32:39Z</time>
      </trkpt>
      <trkpt lat="45.22595" lon="6.21244">
        <ele>1802.1750488281</ele>
        <time>2020-07-19T08:32:45Z</time>
      </trkpt>
      <trkpt lat="45.22603" lon="6.21248">
        <ele>1800.875</ele>
        <time>2020-07-19T08:32:50Z</time>
      </trkpt>
      <trkpt lat="45.22612" lon="6.21256">
        <ele>1800.7750244141</ele>
        <time>2020-07-19T08:32:55Z</time>
      </trkpt>
      <trkpt lat="45.22619" lon="6.21264">
        <ele>1801.0749511719</ele>
        <time>2020-07-19T08:33:00Z</time>
      </trkpt>
      <trkpt lat="45.22623" lon="6.21273">
        <ele>1801.5749511719</ele>
        <time>2020-07-19T08:33:05Z</time>
      </trkpt>
      <trkpt lat="45.2263" lon="6.21281">
        <ele>1802.0749511719</ele>
        <time>2020-07-19T08:33:10Z</time>
      </trkpt>
      <trkpt lat="45.22638" lon="6.21286">
        <ele>1803.2750244141</ele>
        <time>2020-07-19T08:33:15Z</time>
      </trkpt>
      <trkpt lat="45.22645" lon="6.21291">
        <ele>1804.7750244141</ele>
        <time>2020-07-19T08:33:20Z</time>
      </trkpt>
      <trkpt lat="45.22651" lon="6.21296">
        <ele>1805.1750488281</ele>
        <time>2020-07-19T08:33:25Z</time>
      </trkpt>
      <trkpt lat="45.22659" lon="6.213">
        <ele>1805.5749511719</ele>
        <time>2020-07-19T08:33:30Z</time>
      </trkpt>
      <trkpt lat="45.22667" lon="6.21303">
        <ele>1805.875</ele>
        <time>2020-07-19T08:33:35Z</time>
      </trkpt>
      <trkpt lat="45.22677" lon="6.21305">
        <ele>1806.2750244141</ele>
        <time>2020-07-19T08:33:40Z</time>
      </trkpt>
      <trkpt lat="45.22683" lon="6.21313">
        <ele>1807.5749511719</ele>
        <time>2020-07-19T08:33:45Z</time>
      </trkpt>
      <trkpt lat="45.22689" lon="6.21321">
        <ele>1809.4749755859</ele>
        <time>2020-07-19T08:33:50Z</time>
      </trkpt>
      <trkpt lat="45.22699" lon="6.21325">
        <ele>1809.9749755859</ele>
        <time>2020-07-19T08:33:55Z</time>
      </trkpt>
      <trkpt lat="45.22707" lon="6.2133">
        <ele>1810.2750244141</ele>
        <time>2020-07-19T08:34:00Z</time>
      </trkpt>
      <trkpt lat="45.22716" lon="6.21336">
        <ele>1810.375</ele>
        <time>2020-07-19T08:34:05Z</time>
      </trkpt>
      <trkpt lat="45.22724" lon="6.21343">
        <ele>1810.0749511719</ele>
        <time>2020-07-19T08:34:10Z</time>
      </trkpt>
      <trkpt lat="45.2273" lon="6.21353">
        <ele>1811.375</ele>
        <time>2020-07-19T08:34:15Z</time>
      </trkpt>
      <trkpt lat="45.22735" lon="6.21363">
        <ele>1812.5749511719</ele>
        <time>2020-07-19T08:34:20Z</time>
      </trkpt>
      <trkpt lat="45.22742" lon="6.21372">
        <ele>1813.375</ele>
        <time>2020-07-19T08:34:25Z</time>
      </trkpt>
      <trkpt lat="45.22746" lon="6.21381">
        <ele>1814.5749511719</ele>
        <time>2020-07-19T08:34:30Z</time>
      </trkpt>
      <trkpt lat="45.22751" lon="6.21393">
        <ele>1816.875</ele>
        <time>2020-07-19T08:34:35Z</time>
      </trkpt>
      <trkpt lat="45.22757" lon="6.21402">
        <ele>1817.2750244141</ele>
        <time>2020-07-19T08:34:40Z</time>
      </trkpt>
      <trkpt lat="45.2276" lon="6.21412">
        <ele>1818.4749755859</ele>
        <time>2020-07-19T08:34:45Z</time>
      </trkpt>
      <trkpt lat="45.22762" lon="6.21426">
        <ele>1821.6750488281</ele>
        <time>2020-07-19T08:34:50Z</time>
      </trkpt>
      <trkpt lat="45.22765" lon="6.2144">
        <ele>1824.375</ele>
        <time>2020-07-19T08:34:55Z</time>
      </trkpt>
      <trkpt lat="45.22769" lon="6.21452">
        <ele>1826.9749755859</ele>
        <time>2020-07-19T08:35:00Z</time>
      </trkpt>
      <trkpt lat="45.22772" lon="6.21465">
        <ele>1828.9749755859</ele>
        <time>2020-07-19T08:35:05Z</time>
      </trkpt>
      <trkpt lat="45.22777" lon="6.21474">
        <ele>1831.375</ele>
        <time>2020-07-19T08:35:10Z</time>
      </trkpt>
      <trkpt lat="45.22784" lon="6.2148">
        <ele>1831.375</ele>
        <time>2020-07-19T08:35:15Z</time>
      </trkpt>
      <trkpt lat="45.22791" lon="6.21484">
        <ele>1829.375</ele>
        <time>2020-07-19T08:35:20Z</time>
      </trkpt>
      <trkpt lat="45.22798" lon="6.21487">
        <ele>1826.5749511719</ele>
        <time>2020-07-19T08:35:25Z</time>
      </trkpt>
      <trkpt lat="45.22805" lon="6.21491">
        <ele>1824.6750488281</ele>
        <time>2020-07-19T08:35:31Z</time>
      </trkpt>
      <trkpt lat="45.22812" lon="6.21491">
        <ele>1825.4749755859</ele>
        <time>2020-07-19T08:35:47Z</time>
      </trkpt>
      <trkpt lat="45.22821" lon="6.21499">
        <ele>1826.6750488281</ele>
        <time>2020-07-19T08:35:52Z</time>
      </trkpt>
      <trkpt lat="45.2283" lon="6.21504">
        <ele>1826.5749511719</ele>
        <time>2020-07-19T08:35:57Z</time>
      </trkpt>
      <trkpt lat="45.22835" lon="6.21514">
        <ele>1829.0749511719</ele>
        <time>2020-07-19T08:36:02Z</time>
      </trkpt>
      <trkpt lat="45.22843" lon="6.2152">
        <ele>1830.4759521484</ele>
        <time>2020-07-19T08:36:07Z</time>
      </trkpt>
      <trkpt lat="45.2285" lon="6.21526">
        <ele>1831.0760498047</ele>
        <time>2020-07-19T08:36:12Z</time>
      </trkpt>
      <trkpt lat="45.22858" lon="6.21531">
        <ele>1831.4759521484</ele>
        <time>2020-07-19T08:36:17Z</time>
      </trkpt>
      <trkpt lat="45.22867" lon="6.21534">
        <ele>1831.5760498047</ele>
        <time>2020-07-19T08:36:22Z</time>
      </trkpt>
      <trkpt lat="45.22878" lon="6.21537">
        <ele>1831.7760009766</ele>
        <time>2020-07-19T08:36:27Z</time>
      </trkpt>
      <trkpt lat="45.22888" lon="6.21543">
        <ele>1830.6760253906</ele>
        <time>2020-07-19T08:36:32Z</time>
      </trkpt>
      <trkpt lat="45.22897" lon="6.2155">
        <ele>1829.8759765625</ele>
        <time>2020-07-19T08:36:37Z</time>
      </trkpt>
      <trkpt lat="45.22905" lon="6.21559">
        <ele>1829.7760009766</ele>
        <time>2020-07-19T08:36:42Z</time>
      </trkpt>
      <trkpt lat="45.22911" lon="6.21572">
        <ele>1831.4759521484</ele>
        <time>2020-07-19T08:36:47Z</time>
      </trkpt>
      <trkpt lat="45.22915" lon="6.21584">
        <ele>1833.4759521484</ele>
        <time>2020-07-19T08:36:52Z</time>
      </trkpt>
      <trkpt lat="45.22922" lon="6.21592">
        <ele>1835.7760009766</ele>
        <time>2020-07-19T08:36:57Z</time>
      </trkpt>
      <trkpt lat="45.22931" lon="6.21596">
        <ele>1836.3759765625</ele>
        <time>2020-07-19T08:37:02Z</time>
      </trkpt>
      <trkpt lat="45.2294" lon="6.216">
        <ele>1836.2760009766</ele>
        <time>2020-07-19T08:37:07Z</time>
      </trkpt>
      <trkpt lat="45.2295" lon="6.21603">
        <ele>1836.2760009766</ele>
        <time>2020-07-19T08:37:12Z</time>
      </trkpt>
      <trkpt lat="45.22959" lon="6.21606">
        <ele>1839.1760253906</ele>
        <time>2020-07-19T08:37:17Z</time>
      </trkpt>
      <trkpt lat="45.2297" lon="6.21607">
        <ele>1840.5760498047</ele>
        <time>2020-07-19T08:37:22Z</time>
      </trkpt>
      <trkpt lat="45.2298" lon="6.21608">
        <ele>1842.0760498047</ele>
        <time>2020-07-19T08:37:27Z</time>
      </trkpt>
      <trkpt lat="45.22991" lon="6.21609">
        <ele>1842.7760009766</ele>
        <time>2020-07-19T08:37:32Z</time>
      </trkpt>
      <trkpt lat="45.23" lon="6.21611">
        <ele>1843.2760009766</ele>
        <time>2020-07-19T08:37:37Z</time>
      </trkpt>
      <trkpt lat="45.2301" lon="6.21614">
        <ele>1843.4759521484</ele>
        <time>2020-07-19T08:37:42Z</time>
      </trkpt>
      <trkpt lat="45.23018" lon="6.21616">
        <ele>1843.6760253906</ele>
        <time>2020-07-19T08:37:47Z</time>
      </trkpt>
      <trkpt lat="45.23028" lon="6.21618">
        <ele>1843.8759765625</ele>
        <time>2020-07-19T08:37:52Z</time>
      </trkpt>
      <trkpt lat="45.23037" lon="6.21617">
        <ele>1844.1760253906</ele>
        <time>2020-07-19T08:37:57Z</time>
      </trkpt>
      <trkpt lat="45.23048" lon="6.21618">
        <ele>1845.0760498047</ele>
        <time>2020-07-19T08:38:02Z</time>
      </trkpt>
      <trkpt lat="45.23057" lon="6.2162">
        <ele>1846.4759521484</ele>
        <time>2020-07-19T08:38:07Z</time>
      </trkpt>
      <trkpt lat="45.23065" lon="6.21623">
        <ele>1847.1760253906</ele>
        <time>2020-07-19T08:38:12Z</time>
      </trkpt>
      <trkpt lat="45.23072" lon="6.21632">
        <ele>1849.1760253906</ele>
        <time>2020-07-19T08:38:17Z</time>
      </trkpt>
      <trkpt lat="45.23079" lon="6.21643">
        <ele>1849.6760253906</ele>
        <time>2020-07-19T08:38:22Z</time>
      </trkpt>
      <trkpt lat="45.23086" lon="6.21654">
        <ele>1849.6760253906</ele>
        <time>2020-07-19T08:38:27Z</time>
      </trkpt>
      <trkpt lat="45.23093" lon="6.21665">
        <ele>1852.1760253906</ele>
        <time>2020-07-19T08:38:32Z</time>
      </trkpt>
      <trkpt lat="45.231" lon="6.21676">
        <ele>1854.3759765625</ele>
        <time>2020-07-19T08:38:37Z</time>
      </trkpt>
      <trkpt lat="45.2311" lon="6.21676">
        <ele>1854.9759521484</ele>
        <time>2020-07-19T08:38:42Z</time>
      </trkpt>
      <trkpt lat="45.23115" lon="6.21659">
        <ele>1858.2760009766</ele>
        <time>2020-07-19T08:38:47Z</time>
      </trkpt>
      <trkpt lat="45.2311" lon="6.21642">
        <ele>1857.2760009766</ele>
        <time>2020-07-19T08:38:52Z</time>
      </trkpt>
      <trkpt lat="45.23103" lon="6.21625">
        <ele>1856.0760498047</ele>
        <time>2020-07-19T08:38:57Z</time>
      </trkpt>
      <trkpt lat="45.23096" lon="6.2161">
        <ele>1856.2760009766</ele>
        <time>2020-07-19T08:39:02Z</time>
      </trkpt>
      <trkpt lat="45.23089" lon="6.21593">
        <ele>1857.1760253906</ele>
        <time>2020-07-19T08:39:07Z</time>
      </trkpt>
      <trkpt lat="45.23083" lon="6.21578">
        <ele>1857.0760498047</ele>
        <time>2020-07-19T08:39:12Z</time>
      </trkpt>
      <trkpt lat="45.23078" lon="6.21564">
        <ele>1855.1760253906</ele>
        <time>2020-07-19T08:39:17Z</time>
      </trkpt>
      <trkpt lat="45.23072" lon="6.21553">
        <ele>1855.5760498047</ele>
        <time>2020-07-19T08:39:22Z</time>
      </trkpt>
      <trkpt lat="45.23066" lon="6.21542">
        <ele>1855.6760253906</ele>
        <time>2020-07-19T08:39:27Z</time>
      </trkpt>
      <trkpt lat="45.23058" lon="6.21535">
        <ele>1860.0760498047</ele>
        <time>2020-07-19T08:39:32Z</time>
      </trkpt>
      <trkpt lat="45.2305" lon="6.21527">
        <ele>1859.2760009766</ele>
        <time>2020-07-19T08:39:37Z</time>
      </trkpt>
      <trkpt lat="45.23042" lon="6.21521">
        <ele>1862.2760009766</ele>
        <time>2020-07-19T08:39:42Z</time>
      </trkpt>
      <trkpt lat="45.23033" lon="6.21514">
        <ele>1861.8759765625</ele>
        <time>2020-07-19T08:39:47Z</time>
      </trkpt>
      <trkpt lat="45.23023" lon="6.21508">
        <ele>1865.3759765625</ele>
        <time>2020-07-19T08:39:52Z</time>
      </trkpt>
      <trkpt lat="45.23014" lon="6.21502">
        <ele>1865.2760009766</ele>
        <time>2020-07-19T08:39:57Z</time>
      </trkpt>
      <trkpt lat="45.23005" lon="6.215">
        <ele>1865.5760498047</ele>
        <time>2020-07-19T08:40:02Z</time>
      </trkpt>
      <trkpt lat="45.22996" lon="6.21498">
        <ele>1865.6760253906</ele>
        <time>2020-07-19T08:40:07Z</time>
      </trkpt>
      <trkpt lat="45.22986" lon="6.21497">
        <ele>1866.1760253906</ele>
        <time>2020-07-19T08:40:12Z</time>
      </trkpt>
      <trkpt lat="45.22975" lon="6.21494">
        <ele>1865.8759765625</ele>
        <time>2020-07-19T08:40:17Z</time>
      </trkpt>
      <trkpt lat="45.22964" lon="6.21491">
        <ele>1865.6760253906</ele>
        <time>2020-07-19T08:40:22Z</time>
      </trkpt>
      <trkpt lat="45.22955" lon="6.21488">
        <ele>1868.7760009766</ele>
        <time>2020-07-19T08:40:27Z</time>
      </trkpt>
      <trkpt lat="45.22946" lon="6.21483">
        <ele>1871.0760498047</ele>
        <time>2020-07-19T08:40:32Z</time>
      </trkpt>
      <trkpt lat="45.22938" lon="6.21476">
        <ele>1872.4759521484</ele>
        <time>2020-07-19T08:40:37Z</time>
      </trkpt>
      <trkpt lat="45.22931" lon="6.21468">
        <ele>1872.7760009766</ele>
        <time>2020-07-19T08:40:42Z</time>
      </trkpt>
      <trkpt lat="45.22928" lon="6.21456">
        <ele>1873.7760009766</ele>
        <time>2020-07-19T08:40:47Z</time>
      </trkpt>
      <trkpt lat="45.22927" lon="6.21444">
        <ele>1876.2760009766</ele>
        <time>2020-07-19T08:40:52Z</time>
      </trkpt>
      <trkpt lat="45.22925" lon="6.21433">
        <ele>1879.6760253906</ele>
        <time>2020-07-19T08:40:57Z</time>
      </trkpt>
      <trkpt lat="45.22922" lon="6.21422">
        <ele>1884.0760498047</ele>
        <time>2020-07-19T08:41:02Z</time>
      </trkpt>
      <trkpt lat="45.22921" lon="6.21407">
        <ele>1884.2760009766</ele>
        <time>2020-07-19T08:41:07Z</time>
      </trkpt>
      <trkpt lat="45.22919" lon="6.21393">
        <ele>1880.875</ele>
        <time>2020-07-19T08:41:12Z</time>
      </trkpt>
      <trkpt lat="45.22914" lon="6.2138">
        <ele>1879.2750244141</ele>
        <time>2020-07-19T08:41:17Z</time>
      </trkpt>
      <trkpt lat="45.22907" lon="6.21369">
        <ele>1878.0749511719</ele>
        <time>2020-07-19T08:41:22Z</time>
      </trkpt>
      <trkpt lat="45.22896" lon="6.21362">
        <ele>1876.375</ele>
        <time>2020-07-19T08:41:27Z</time>
      </trkpt>
      <trkpt lat="45.22889" lon="6.21356">
        <ele>1877.4749755859</ele>
        <time>2020-07-19T08:41:32Z</time>
      </trkpt>
      <trkpt lat="45.22882" lon="6.2135">
        <ele>1878.0749511719</ele>
        <time>2020-07-19T08:41:37Z</time>
      </trkpt>
      <trkpt lat="45.22874" lon="6.21344">
        <ele>1879.2750244141</ele>
        <time>2020-07-19T08:41:42Z</time>
      </trkpt>
      <trkpt lat="45.22868" lon="6.21336">
        <ele>1881.7750244141</ele>
        <time>2020-07-19T08:41:47Z</time>
      </trkpt>
      <trkpt lat="45.22861" lon="6.21333">
        <ele>1888.375</ele>
        <time>2020-07-19T08:41:52Z</time>
      </trkpt>
      <trkpt lat="45.22863" lon="6.21323">
        <ele>1890.5749511719</ele>
        <time>2020-07-19T08:41:57Z</time>
      </trkpt>
      <trkpt lat="45.22867" lon="6.21315">
        <ele>1892.2750244141</ele>
        <time>2020-07-19T08:42:02Z</time>
      </trkpt>
      <trkpt lat="45.2287" lon="6.21302">
        <ele>1893.375</ele>
        <time>2020-07-19T08:42:07Z</time>
      </trkpt>
      <trkpt lat="45.22876" lon="6.21292">
        <ele>1892.9749755859</ele>
        <time>2020-07-19T08:42:12Z</time>
      </trkpt>
      <trkpt lat="45.22879" lon="6.21279">
        <ele>1893.7750244141</ele>
        <time>2020-07-19T08:42:17Z</time>
      </trkpt>
      <trkpt lat="45.2288" lon="6.21266">
        <ele>1891.4749755859</ele>
        <time>2020-07-19T08:42:22Z</time>
      </trkpt>
      <trkpt lat="45.22885" lon="6.21256">
        <ele>1893.375</ele>
        <time>2020-07-19T08:42:27Z</time>
      </trkpt>
      <trkpt lat="45.2289" lon="6.21247">
        <ele>1893.6750488281</ele>
        <time>2020-07-19T08:42:32Z</time>
      </trkpt>
      <trkpt lat="45.22893" lon="6.21233">
        <ele>1888.4749755859</ele>
        <time>2020-07-19T08:42:37Z</time>
      </trkpt>
      <trkpt lat="45.22896" lon="6.21221">
        <ele>1887.0749511719</ele>
        <time>2020-07-19T08:42:42Z</time>
      </trkpt>
      <trkpt lat="45.22896" lon="6.2121">
        <ele>1890.1750488281</ele>
        <time>2020-07-19T08:42:48Z</time>
      </trkpt>
      <trkpt lat="45.22898" lon="6.21197">
        <ele>1889.4749755859</ele>
        <time>2020-07-19T08:42:53Z</time>
      </trkpt>
      <trkpt lat="45.22901" lon="6.21183">
        <ele>1891.2750244141</ele>
        <time>2020-07-19T08:42:58Z</time>
      </trkpt>
      <trkpt lat="45.22905" lon="6.21168">
        <ele>1892.6750488281</ele>
        <time>2020-07-19T08:43:03Z</time>
      </trkpt>
      <trkpt lat="45.22905" lon="6.21155">
        <ele>1892.2750244141</ele>
        <time>2020-07-19T08:43:08Z</time>
      </trkpt>
      <trkpt lat="45.22907" lon="6.21139">
        <ele>1891.1750488281</ele>
        <time>2020-07-19T08:43:13Z</time>
      </trkpt>
      <trkpt lat="45.22905" lon="6.21126">
        <ele>1891.875</ele>
        <time>2020-07-19T08:43:18Z</time>
      </trkpt>
      <trkpt lat="45.22903" lon="6.21113">
        <ele>1892.0749511719</ele>
        <time>2020-07-19T08:43:23Z</time>
      </trkpt>
      <trkpt lat="45.22902" lon="6.21102">
        <ele>1893.6750488281</ele>
        <time>2020-07-19T08:43:28Z</time>
      </trkpt>
      <trkpt lat="45.22903" lon="6.2109">
        <ele>1894.2750244141</ele>
        <time>2020-07-19T08:43:33Z</time>
      </trkpt>
      <trkpt lat="45.22898" lon="6.21084">
        <ele>1899.2750244141</ele>
        <time>2020-07-19T08:43:38Z</time>
      </trkpt>
      <trkpt lat="45.22896" lon="6.21075">
        <ele>1902.6750488281</ele>
        <time>2020-07-19T08:43:43Z</time>
      </trkpt>
      <trkpt lat="45.22896" lon="6.21062">
        <ele>1903.6750488281</ele>
        <time>2020-07-19T08:43:48Z</time>
      </trkpt>
      <trkpt lat="45.22898" lon="6.21053">
        <ele>1904.5749511719</ele>
        <time>2020-07-19T08:43:53Z</time>
      </trkpt>
      <trkpt lat="45.22899" lon="6.21039">
        <ele>1906.6750488281</ele>
        <time>2020-07-19T08:43:58Z</time>
      </trkpt>
      <trkpt lat="45.229" lon="6.21029">
        <ele>1908.5749511719</ele>
        <time>2020-07-19T08:44:03Z</time>
      </trkpt>
      <trkpt lat="45.22901" lon="6.21015">
        <ele>1907.9749755859</ele>
        <time>2020-07-19T08:44:08Z</time>
      </trkpt>
      <trkpt lat="45.22902" lon="6.21002">
        <ele>1908.6750488281</ele>
        <time>2020-07-19T08:44:13Z</time>
      </trkpt>
      <trkpt lat="45.22902" lon="6.20989">
        <ele>1908.9749755859</ele>
        <time>2020-07-19T08:44:18Z</time>
      </trkpt>
      <trkpt lat="45.22903" lon="6.20976">
        <ele>1909.875</ele>
        <time>2020-07-19T08:44:23Z</time>
      </trkpt>
      <trkpt lat="45.22904" lon="6.20961">
        <ele>1910.5749511719</ele>
        <time>2020-07-19T08:44:28Z</time>
      </trkpt>
      <trkpt lat="45.22905" lon="6.20947">
        <ele>1909.4749755859</ele>
        <time>2020-07-19T08:44:33Z</time>
      </trkpt>
      <trkpt lat="45.22903" lon="6.20934">
        <ele>1911.0749511719</ele>
        <time>2020-07-19T08:44:38Z</time>
      </trkpt>
      <trkpt lat="45.22902" lon="6.20922">
        <ele>1913.0749511719</ele>
        <time>2020-07-19T08:44:43Z</time>
      </trkpt>
      <trkpt lat="45.22902" lon="6.20909">
        <ele>1914.1750488281</ele>
        <time>2020-07-19T08:44:48Z</time>
      </trkpt>
      <trkpt lat="45.22901" lon="6.20898">
        <ele>1914.1750488281</ele>
        <time>2020-07-19T08:44:53Z</time>
      </trkpt>
      <trkpt lat="45.229" lon="6.20885">
        <ele>1915.5749511719</ele>
        <time>2020-07-19T08:44:58Z</time>
      </trkpt>
      <trkpt lat="45.229" lon="6.20875">
        <ele>1914.7750244141</ele>
        <time>2020-07-19T08:45:03Z</time>
      </trkpt>
      <trkpt lat="45.22909" lon="6.2087">
        <ele>1914.7750244141</ele>
        <time>2020-07-19T08:45:08Z</time>
      </trkpt>
      <trkpt lat="45.22917" lon="6.20883">
        <ele>1917.4749755859</ele>
        <time>2020-07-19T08:45:13Z</time>
      </trkpt>
      <trkpt lat="45.22925" lon="6.20893">
        <ele>1915.875</ele>
        <time>2020-07-19T08:45:18Z</time>
      </trkpt>
      <trkpt lat="45.22933" lon="6.209">
        <ele>1915.4749755859</ele>
        <time>2020-07-19T08:45:23Z</time>
      </trkpt>
      <trkpt lat="45.22941" lon="6.20904">
        <ele>1913.5749511719</ele>
        <time>2020-07-19T08:45:28Z</time>
      </trkpt>
      <trkpt lat="45.22949" lon="6.20908">
        <ele>1911.7750244141</ele>
        <time>2020-07-19T08:45:33Z</time>
      </trkpt>
      <trkpt lat="45.22957" lon="6.20911">
        <ele>1910.7750244141</ele>
        <time>2020-07-19T08:45:38Z</time>
      </trkpt>
      <trkpt lat="45.22967" lon="6.20915">
        <ele>1908.6750488281</ele>
        <time>2020-07-19T08:45:43Z</time>
      </trkpt>
      <trkpt lat="45.22975" lon="6.2092">
        <ele>1907.875</ele>
        <time>2020-07-19T08:45:48Z</time>
      </trkpt>
      <trkpt lat="45.22983" lon="6.20925">
        <ele>1910.375</ele>
        <time>2020-07-19T08:45:53Z</time>
      </trkpt>
      <trkpt lat="45.22991" lon="6.20929">
        <ele>1910.875</ele>
        <time>2020-07-19T08:45:58Z</time>
      </trkpt>
      <trkpt lat="45.23" lon="6.20933">
        <ele>1911.875</ele>
        <time>2020-07-19T08:46:03Z</time>
      </trkpt>
      <trkpt lat="45.23009" lon="6.20938">
        <ele>1912.0749511719</ele>
        <time>2020-07-19T08:46:08Z</time>
      </trkpt>
      <trkpt lat="45.23019" lon="6.20939">
        <ele>1913.375</ele>
        <time>2020-07-19T08:46:13Z</time>
      </trkpt>
      <trkpt lat="45.23028" lon="6.20944">
        <ele>1915.1750488281</ele>
        <time>2020-07-19T08:46:18Z</time>
      </trkpt>
      <trkpt lat="45.23036" lon="6.2095">
        <ele>1916.4749755859</ele>
        <time>2020-07-19T08:46:23Z</time>
      </trkpt>
      <trkpt lat="45.23044" lon="6.20959">
        <ele>1917.5749511719</ele>
        <time>2020-07-19T08:46:28Z</time>
      </trkpt>
      <trkpt lat="45.2305" lon="6.20966">
        <ele>1917.875</ele>
        <time>2020-07-19T08:46:33Z</time>
      </trkpt>
      <trkpt lat="45.23053" lon="6.20979">
        <ele>1919.1750488281</ele>
        <time>2020-07-19T08:46:38Z</time>
      </trkpt>
      <trkpt lat="45.23057" lon="6.2099">
        <ele>1921.2750244141</ele>
        <time>2020-07-19T08:46:43Z</time>
      </trkpt>
      <trkpt lat="45.2306" lon="6.21004">
        <ele>1923.375</ele>
        <time>2020-07-19T08:46:48Z</time>
      </trkpt>
      <trkpt lat="45.23062" lon="6.2102">
        <ele>1924.9749755859</ele>
        <time>2020-07-19T08:46:53Z</time>
      </trkpt>
      <trkpt lat="45.23061" lon="6.21038">
        <ele>1928.375</ele>
        <time>2020-07-19T08:46:58Z</time>
      </trkpt>
      <trkpt lat="45.23059" lon="6.21052">
        <ele>1931.1750488281</ele>
        <time>2020-07-19T08:47:03Z</time>
      </trkpt>
      <trkpt lat="45.23062" lon="6.21068">
        <ele>1934.875</ele>
        <time>2020-07-19T08:47:08Z</time>
      </trkpt>
      <trkpt lat="45.2307" lon="6.21076">
        <ele>1934.1750488281</ele>
        <time>2020-07-19T08:47:13Z</time>
      </trkpt>
      <trkpt lat="45.2308" lon="6.21062">
        <ele>1935.1750488281</ele>
        <time>2020-07-19T08:47:18Z</time>
      </trkpt>
      <trkpt lat="45.23079" lon="6.21042">
        <ele>1941.2750244141</ele>
        <time>2020-07-19T08:47:23Z</time>
      </trkpt>
      <trkpt lat="45.23079" lon="6.21026">
        <ele>1942.0749511719</ele>
        <time>2020-07-19T08:47:28Z</time>
      </trkpt>
      <trkpt lat="45.23079" lon="6.21009">
        <ele>1940.875</ele>
        <time>2020-07-19T08:47:33Z</time>
      </trkpt>
      <trkpt lat="45.23079" lon="6.20993">
        <ele>1941.7750244141</ele>
        <time>2020-07-19T08:47:38Z</time>
      </trkpt>
      <trkpt lat="45.23079" lon="6.20978">
        <ele>1939.2750244141</ele>
        <time>2020-07-19T08:47:43Z</time>
      </trkpt>
      <trkpt lat="45.23079" lon="6.20963">
        <ele>1940.5749511719</ele>
        <time>2020-07-19T08:47:48Z</time>
      </trkpt>
      <trkpt lat="45.23079" lon="6.20947">
        <ele>1939.375</ele>
        <time>2020-07-19T08:47:53Z</time>
      </trkpt>
      <trkpt lat="45.23083" lon="6.20931">
        <ele>1936.7750244141</ele>
        <time>2020-07-19T08:47:58Z</time>
      </trkpt>
      <trkpt lat="45.23083" lon="6.20915">
        <ele>1935.6750488281</ele>
        <time>2020-07-19T08:48:03Z</time>
      </trkpt>
      <trkpt lat="45.23082" lon="6.20899">
        <ele>1936.875</ele>
        <time>2020-07-19T08:48:08Z</time>
      </trkpt>
      <trkpt lat="45.23078" lon="6.20885">
        <ele>1935.375</ele>
        <time>2020-07-19T08:48:13Z</time>
      </trkpt>
      <trkpt lat="45.23069" lon="6.20875">
        <ele>1937.2750244141</ele>
        <time>2020-07-19T08:48:18Z</time>
      </trkpt>
      <trkpt lat="45.23057" lon="6.20863">
        <ele>1933.875</ele>
        <time>2020-07-19T08:48:23Z</time>
      </trkpt>
      <trkpt lat="45.23049" lon="6.20843">
        <ele>1936.375</ele>
        <time>2020-07-19T08:48:28Z</time>
      </trkpt>
      <trkpt lat="45.23038" lon="6.20825">
        <ele>1935.875</ele>
        <time>2020-07-19T08:48:33Z</time>
      </trkpt>
      <trkpt lat="45.23029" lon="6.20806">
        <ele>1933.9749755859</ele>
        <time>2020-07-19T08:48:38Z</time>
      </trkpt>
      <trkpt lat="45.23022" lon="6.2079">
        <ele>1934.6750488281</ele>
        <time>2020-07-19T08:48:43Z</time>
      </trkpt>
      <trkpt lat="45.23015" lon="6.20778">
        <ele>1941.5749511719</ele>
        <time>2020-07-19T08:48:48Z</time>
      </trkpt>
      <trkpt lat="45.23008" lon="6.20767">
        <ele>1943.4749755859</ele>
        <time>2020-07-19T08:48:53Z</time>
      </trkpt>
      <trkpt lat="45.23001" lon="6.20755">
        <ele>1946.875</ele>
        <time>2020-07-19T08:48:58Z</time>
      </trkpt>
      <trkpt lat="45.22996" lon="6.2074">
        <ele>1947.5749511719</ele>
        <time>2020-07-19T08:49:03Z</time>
      </trkpt>
      <trkpt lat="45.2299" lon="6.20726">
        <ele>1945.875</ele>
        <time>2020-07-19T08:49:08Z</time>
      </trkpt>
      <trkpt lat="45.22985" lon="6.20711">
        <ele>1946.5749511719</ele>
        <time>2020-07-19T08:49:13Z</time>
      </trkpt>
      <trkpt lat="45.22977" lon="6.20701">
        <ele>1948.5749511719</ele>
        <time>2020-07-19T08:49:18Z</time>
      </trkpt>
      <trkpt lat="45.22976" lon="6.20688">
        <ele>1946.875</ele>
        <time>2020-07-19T08:49:23Z</time>
      </trkpt>
      <trkpt lat="45.2297" lon="6.20675">
        <ele>1949.5749511719</ele>
        <time>2020-07-19T08:49:28Z</time>
      </trkpt>
      <trkpt lat="45.22962" lon="6.20663">
        <ele>1954.1750488281</ele>
        <time>2020-07-19T08:49:33Z</time>
      </trkpt>
      <trkpt lat="45.22952" lon="6.2065">
        <ele>1954.375</ele>
        <time>2020-07-19T08:49:38Z</time>
      </trkpt>
      <trkpt lat="45.22946" lon="6.20631">
        <ele>1951.4739990234</ele>
        <time>2020-07-19T08:49:43Z</time>
      </trkpt>
      <trkpt lat="45.22943" lon="6.20615">
        <ele>1955.2740478516</ele>
        <time>2020-07-19T08:49:48Z</time>
      </trkpt>
      <trkpt lat="45.2294" lon="6.20598">
        <ele>1953.9739990234</ele>
        <time>2020-07-19T08:49:53Z</time>
      </trkpt>
      <trkpt lat="45.22938" lon="6.20579">
        <ele>1953.5739746094</ele>
        <time>2020-07-19T08:49:58Z</time>
      </trkpt>
      <trkpt lat="45.2293" lon="6.20565">
        <ele>1953.8740234375</ele>
        <time>2020-07-19T08:50:03Z</time>
      </trkpt>
      <trkpt lat="45.22924" lon="6.20551">
        <ele>1955.6739501953</ele>
        <time>2020-07-19T08:50:08Z</time>
      </trkpt>
      <trkpt lat="45.22915" lon="6.2054">
        <ele>1958.5739746094</ele>
        <time>2020-07-19T08:50:13Z</time>
      </trkpt>
      <trkpt lat="45.22908" lon="6.20526">
        <ele>1959.5739746094</ele>
        <time>2020-07-19T08:50:18Z</time>
      </trkpt>
      <trkpt lat="45.22898" lon="6.20514">
        <ele>1960.6739501953</ele>
        <time>2020-07-19T08:50:23Z</time>
      </trkpt>
      <trkpt lat="45.22888" lon="6.20499">
        <ele>1957.2740478516</ele>
        <time>2020-07-19T08:50:28Z</time>
      </trkpt>
      <trkpt lat="45.22877" lon="6.20485">
        <ele>1957.6739501953</ele>
        <time>2020-07-19T08:50:33Z</time>
      </trkpt>
      <trkpt lat="45.22867" lon="6.20471">
        <ele>1955.6739501953</ele>
        <time>2020-07-19T08:50:38Z</time>
      </trkpt>
      <trkpt lat="45.22859" lon="6.20454">
        <ele>1953.4739990234</ele>
        <time>2020-07-19T08:50:43Z</time>
      </trkpt>
      <trkpt lat="45.22848" lon="6.20442">
        <ele>1953.7740478516</ele>
        <time>2020-07-19T08:50:48Z</time>
      </trkpt>
      <trkpt lat="45.22834" lon="6.20434">
        <ele>1954.7740478516</ele>
        <time>2020-07-19T08:50:53Z</time>
      </trkpt>
      <trkpt lat="45.22819" lon="6.20433">
        <ele>1958.3740234375</ele>
        <time>2020-07-19T08:50:58Z</time>
      </trkpt>
      <trkpt lat="45.22808" lon="6.2043">
        <ele>1963.8740234375</ele>
        <time>2020-07-19T08:51:03Z</time>
      </trkpt>
      <trkpt lat="45.22798" lon="6.20432">
        <ele>1970.6739501953</ele>
        <time>2020-07-19T08:51:08Z</time>
      </trkpt>
      <trkpt lat="45.22789" lon="6.20427">
        <ele>1970.5739746094</ele>
        <time>2020-07-19T08:51:13Z</time>
      </trkpt>
      <trkpt lat="45.2278" lon="6.2042">
        <ele>1972.7740478516</ele>
        <time>2020-07-19T08:51:18Z</time>
      </trkpt>
      <trkpt lat="45.22773" lon="6.2041">
        <ele>1975.2740478516</ele>
        <time>2020-07-19T08:51:23Z</time>
      </trkpt>
      <trkpt lat="45.22769" lon="6.20397">
        <ele>1978.6739501953</ele>
        <time>2020-07-19T08:51:28Z</time>
      </trkpt>
      <trkpt lat="45.22763" lon="6.20389">
        <ele>1977.5739746094</ele>
        <time>2020-07-19T08:51:33Z</time>
      </trkpt>
      <trkpt lat="45.22755" lon="6.20382">
        <ele>1983.1739501953</ele>
        <time>2020-07-19T08:51:38Z</time>
      </trkpt>
      <trkpt lat="45.22755" lon="6.20366">
        <ele>1981.9739990234</ele>
        <time>2020-07-19T08:51:43Z</time>
      </trkpt>
      <trkpt lat="45.22754" lon="6.20351">
        <ele>1980.4739990234</ele>
        <time>2020-07-19T08:51:48Z</time>
      </trkpt>
      <trkpt lat="45.22756" lon="6.20336">
        <ele>1982.9739990234</ele>
        <time>2020-07-19T08:51:53Z</time>
      </trkpt>
      <trkpt lat="45.22756" lon="6.20321">
        <ele>1981.4739990234</ele>
        <time>2020-07-19T08:51:58Z</time>
      </trkpt>
      <trkpt lat="45.22755" lon="6.20311">
        <ele>1981.7740478516</ele>
        <time>2020-07-19T08:52:04Z</time>
      </trkpt>
      <trkpt lat="45.22748" lon="6.20311">
        <ele>1981.8740234375</ele>
        <time>2020-07-19T08:52:09Z</time>
      </trkpt>
      <trkpt lat="45.22754" lon="6.20318">
        <ele>1984.5739746094</ele>
        <time>2020-07-19T08:52:22Z</time>
      </trkpt>
      <trkpt lat="45.22756" lon="6.20328">
        <ele>1983.8740234375</ele>
        <time>2020-07-19T08:52:28Z</time>
      </trkpt>
      <trkpt lat="45.22757" lon="6.20339">
        <ele>1982.1739501953</ele>
        <time>2020-07-19T08:52:35Z</time>
      </trkpt>
      <trkpt lat="45.22757" lon="6.2035">
        <ele>1979.2740478516</ele>
        <time>2020-07-19T08:52:40Z</time>
      </trkpt>
      <trkpt lat="45.22757" lon="6.20367">
        <ele>1981.8740234375</ele>
        <time>2020-07-19T08:52:45Z</time>
      </trkpt>
      <trkpt lat="45.22752" lon="6.20374">
        <ele>1985.4739990234</ele>
        <time>2020-07-19T08:53:02Z</time>
      </trkpt>
      <trkpt lat="45.22751" lon="6.20383">
        <ele>1986.1739501953</ele>
        <time>2020-07-19T08:53:07Z</time>
      </trkpt>
      <trkpt lat="45.22753" lon="6.20394">
        <ele>1985.4739990234</ele>
        <time>2020-07-19T08:53:12Z</time>
      </trkpt>
      <trkpt lat="45.22754" lon="6.20404">
        <ele>1984.3740234375</ele>
        <time>2020-07-19T08:53:18Z</time>
      </trkpt>
      <trkpt lat="45.22753" lon="6.20418">
        <ele>1985.3740234375</ele>
        <time>2020-07-19T08:53:23Z</time>
      </trkpt>
      <trkpt lat="45.22757" lon="6.20432">
        <ele>1982.0739746094</ele>
        <time>2020-07-19T08:53:28Z</time>
      </trkpt>
      <trkpt lat="45.2276" lon="6.20442">
        <ele>1979.0739746094</ele>
        <time>2020-07-19T08:53:33Z</time>
      </trkpt>
      <trkpt lat="45.22768" lon="6.20444">
        <ele>1977.0739746094</ele>
        <time>2020-07-19T08:53:50Z</time>
      </trkpt>
      <trkpt lat="45.22774" lon="6.20441">
        <ele>1977.6739501953</ele>
        <time>2020-07-19T08:53:57Z</time>
      </trkpt>
      <trkpt lat="45.22772" lon="6.20432">
        <ele>1973.0739746094</ele>
        <time>2020-07-19T08:55:06Z</time>
      </trkpt>
      <trkpt lat="45.2277" lon="6.20422">
        <ele>1973.1739501953</ele>
        <time>2020-07-19T08:55:11Z</time>
      </trkpt>
      <trkpt lat="45.22764" lon="6.20419">
        <ele>1974.6739501953</ele>
        <time>2020-07-19T08:55:17Z</time>
      </trkpt>
      <trkpt lat="45.22757" lon="6.20418">
        <ele>1977.8740234375</ele>
        <time>2020-07-19T08:55:24Z</time>
      </trkpt>
      <trkpt lat="45.22753" lon="6.20409">
        <ele>1977.5739746094</ele>
        <time>2020-07-19T08:55:31Z</time>
      </trkpt>
      <trkpt lat="45.22755" lon="6.20398">
        <ele>1979.4739990234</ele>
        <time>2020-07-19T08:55:37Z</time>
      </trkpt>
      <trkpt lat="45.22755" lon="6.20388">
        <ele>1982.3740234375</ele>
        <time>2020-07-19T08:55:42Z</time>
      </trkpt>
      <trkpt lat="45.22753" lon="6.20379">
        <ele>1982.0739746094</ele>
        <time>2020-07-19T08:55:47Z</time>
      </trkpt>
      <trkpt lat="45.22752" lon="6.20366">
        <ele>1980.3740234375</ele>
        <time>2020-07-19T08:55:52Z</time>
      </trkpt>
      <trkpt lat="45.22753" lon="6.20356">
        <ele>1979.3740234375</ele>
        <time>2020-07-19T08:55:57Z</time>
      </trkpt>
      <trkpt lat="45.22754" lon="6.20342">
        <ele>1978.2740478516</ele>
        <time>2020-07-19T08:56:02Z</time>
      </trkpt>
      <trkpt lat="45.22754" lon="6.20331">
        <ele>1979.9739990234</ele>
        <time>2020-07-19T08:56:07Z</time>
      </trkpt>
      <trkpt lat="45.22751" lon="6.20322">
        <ele>1990.5739746094</ele>
        <time>2020-07-19T08:58:29Z</time>
      </trkpt>
      <trkpt lat="45.22754" lon="6.20333">
        <ele>1990.3740234375</ele>
        <time>2020-07-19T08:58:47Z</time>
      </trkpt>
      <trkpt lat="45.2275" lon="6.20325">
        <ele>1991.0739746094</ele>
        <time>2020-07-19T08:59:26Z</time>
      </trkpt>
      <trkpt lat="45.22757" lon="6.20333">
        <ele>1985.6739501953</ele>
        <time>2020-07-19T09:00:26Z</time>
      </trkpt>
      <trkpt lat="45.2275" lon="6.20328">
        <ele>1986.4739990234</ele>
        <time>2020-07-19T09:00:37Z</time>
      </trkpt>
      <trkpt lat="45.22755" lon="6.2032">
        <ele>1977.9739990234</ele>
        <time>2020-07-19T09:01:00Z</time>
      </trkpt>
      <trkpt lat="45.22751" lon="6.20329">
        <ele>1979.9739990234</ele>
        <time>2020-07-19T09:01:20Z</time>
      </trkpt>
      <trkpt lat="45.22746" lon="6.20323">
        <ele>1986.8740234375</ele>
        <time>2020-07-19T09:01:32Z</time>
      </trkpt>
      <trkpt lat="45.22748" lon="6.20307">
        <ele>1984.5739746094</ele>
        <time>2020-07-19T09:02:27Z</time>
      </trkpt>
      <trkpt lat="45.22751" lon="6.20296">
        <ele>1985.5739746094</ele>
        <time>2020-07-19T09:02:42Z</time>
      </trkpt>
      <trkpt lat="45.22754" lon="6.20288">
        <ele>1983.0739746094</ele>
        <time>2020-07-19T09:02:48Z</time>
      </trkpt>
      <trkpt lat="45.22752" lon="6.20277">
        <ele>1982.4739990234</ele>
        <time>2020-07-19T09:02:53Z</time>
      </trkpt>
      <trkpt lat="45.22751" lon="6.20267">
        <ele>1978.5739746094</ele>
        <time>2020-07-19T09:02:58Z</time>
      </trkpt>
      <trkpt lat="45.22745" lon="6.2026">
        <ele>1978.1739501953</ele>
        <time>2020-07-19T09:03:03Z</time>
      </trkpt>
      <trkpt lat="45.2274" lon="6.20246">
        <ele>1978.0739746094</ele>
        <time>2020-07-19T09:03:08Z</time>
      </trkpt>
      <trkpt lat="45.22736" lon="6.20237">
        <ele>1978.6739501953</ele>
        <time>2020-07-19T09:03:13Z</time>
      </trkpt>
      <trkpt lat="45.22731" lon="6.20229">
        <ele>1977.3740234375</ele>
        <time>2020-07-19T09:03:18Z</time>
      </trkpt>
      <trkpt lat="45.22726" lon="6.20221">
        <ele>1979.373046875</ele>
        <time>2020-07-19T09:03:25Z</time>
      </trkpt>
      <trkpt lat="45.2272" lon="6.20214">
        <ele>1980.1729736328</ele>
        <time>2020-07-19T09:03:30Z</time>
      </trkpt>
      <trkpt lat="45.22715" lon="6.20206">
        <ele>1981.6729736328</ele>
        <time>2020-07-19T09:03:35Z</time>
      </trkpt>
      <trkpt lat="45.22713" lon="6.20197">
        <ele>1983.373046875</ele>
        <time>2020-07-19T09:03:40Z</time>
      </trkpt>
      <trkpt lat="45.22706" lon="6.20189">
        <ele>1984.373046875</ele>
        <time>2020-07-19T09:03:45Z</time>
      </trkpt>
      <trkpt lat="45.22701" lon="6.20181">
        <ele>1985.7729492188</ele>
        <time>2020-07-19T09:03:50Z</time>
      </trkpt>
      <trkpt lat="45.22698" lon="6.20173">
        <ele>1987.1729736328</ele>
        <time>2020-07-19T09:03:55Z</time>
      </trkpt>
      <trkpt lat="45.22695" lon="6.20165">
        <ele>1988.873046875</ele>
        <time>2020-07-19T09:04:00Z</time>
      </trkpt>
      <trkpt lat="45.22688" lon="6.20155">
        <ele>1990.2729492188</ele>
        <time>2020-07-19T09:04:05Z</time>
      </trkpt>
      <trkpt lat="45.22679" lon="6.20139">
        <ele>1989.5729980469</ele>
        <time>2020-07-19T09:04:10Z</time>
      </trkpt>
      <trkpt lat="45.22679" lon="6.20116">
        <ele>1990.1729736328</ele>
        <time>2020-07-19T09:04:15Z</time>
      </trkpt>
      <trkpt lat="45.22678" lon="6.20105">
        <ele>1985.7729492188</ele>
        <time>2020-07-19T09:05:41Z</time>
      </trkpt>
      <trkpt lat="45.22681" lon="6.20097">
        <ele>1983.9730224609</ele>
        <time>2020-07-19T09:05:47Z</time>
      </trkpt>
      <trkpt lat="45.22686" lon="6.20088">
        <ele>1983.1729736328</ele>
        <time>2020-07-19T09:05:52Z</time>
      </trkpt>
      <trkpt lat="45.22689" lon="6.20078">
        <ele>1981.1729736328</ele>
        <time>2020-07-19T09:05:58Z</time>
      </trkpt>
      <trkpt lat="45.22691" lon="6.20069">
        <ele>1978.373046875</ele>
        <time>2020-07-19T09:06:04Z</time>
      </trkpt>
      <trkpt lat="45.22693" lon="6.2006">
        <ele>1976.7729492188</ele>
        <time>2020-07-19T09:06:10Z</time>
      </trkpt>
      <trkpt lat="45.22697" lon="6.20051">
        <ele>1975.4730224609</ele>
        <time>2020-07-19T09:06:15Z</time>
      </trkpt>
      <trkpt lat="45.22697" lon="6.20039">
        <ele>1975.6729736328</ele>
        <time>2020-07-19T09:06:20Z</time>
      </trkpt>
      <trkpt lat="45.22699" lon="6.2003">
        <ele>1976.373046875</ele>
        <time>2020-07-19T09:06:25Z</time>
      </trkpt>
      <trkpt lat="45.227" lon="6.20019">
        <ele>1977.7729492188</ele>
        <time>2020-07-19T09:06:30Z</time>
      </trkpt>
      <trkpt lat="45.22701" lon="6.2001">
        <ele>1980.2729492188</ele>
        <time>2020-07-19T09:06:36Z</time>
      </trkpt>
      <trkpt lat="45.22701" lon="6.2">
        <ele>1984.5729980469</ele>
        <time>2020-07-19T09:06:41Z</time>
      </trkpt>
      <trkpt lat="45.22702" lon="6.1999">
        <ele>1987.373046875</ele>
        <time>2020-07-19T09:06:46Z</time>
      </trkpt>
      <trkpt lat="45.22704" lon="6.1998">
        <ele>1989.1729736328</ele>
        <time>2020-07-19T09:06:51Z</time>
      </trkpt>
      <trkpt lat="45.22705" lon="6.19969">
        <ele>1987.0729980469</ele>
        <time>2020-07-19T09:06:57Z</time>
      </trkpt>
      <trkpt lat="45.22703" lon="6.19958">
        <ele>1987.5729980469</ele>
        <time>2020-07-19T09:07:02Z</time>
      </trkpt>
      <trkpt lat="45.22702" lon="6.19944">
        <ele>1987.873046875</ele>
        <time>2020-07-19T09:07:07Z</time>
      </trkpt>
      <trkpt lat="45.22708" lon="6.19926">
        <ele>1987.9730224609</ele>
        <time>2020-07-19T09:07:12Z</time>
      </trkpt>
      <trkpt lat="45.22715" lon="6.19908">
        <ele>1987.2729492188</ele>
        <time>2020-07-19T09:07:17Z</time>
      </trkpt>
      <trkpt lat="45.22721" lon="6.19889">
        <ele>1983.373046875</ele>
        <time>2020-07-19T09:07:22Z</time>
      </trkpt>
      <trkpt lat="45.22731" lon="6.19872">
        <ele>1983.873046875</ele>
        <time>2020-07-19T09:07:27Z</time>
      </trkpt>
      <trkpt lat="45.22741" lon="6.19856">
        <ele>1982.0729980469</ele>
        <time>2020-07-19T09:07:32Z</time>
      </trkpt>
      <trkpt lat="45.22749" lon="6.19839">
        <ele>1982.5729980469</ele>
        <time>2020-07-19T09:07:37Z</time>
      </trkpt>
      <trkpt lat="45.22756" lon="6.19821">
        <ele>1980.873046875</ele>
        <time>2020-07-19T09:07:42Z</time>
      </trkpt>
      <trkpt lat="45.22763" lon="6.19806">
        <ele>1978.1729736328</ele>
        <time>2020-07-19T09:07:47Z</time>
      </trkpt>
      <trkpt lat="45.22772" lon="6.19787">
        <ele>1977.6729736328</ele>
        <time>2020-07-19T09:07:52Z</time>
      </trkpt>
      <trkpt lat="45.22784" lon="6.19767">
        <ele>1974.9730224609</ele>
        <time>2020-07-19T09:07:57Z</time>
      </trkpt>
      <trkpt lat="45.22792" lon="6.19746">
        <ele>1974.6729736328</ele>
        <time>2020-07-19T09:08:02Z</time>
      </trkpt>
      <trkpt lat="45.22802" lon="6.19732">
        <ele>1974.9730224609</ele>
        <time>2020-07-19T09:08:07Z</time>
      </trkpt>
      <trkpt lat="45.22802" lon="6.19711">
        <ele>1978.373046875</ele>
        <time>2020-07-19T09:08:12Z</time>
      </trkpt>
      <trkpt lat="45.22807" lon="6.19697">
        <ele>1978.9730224609</ele>
        <time>2020-07-19T09:08:17Z</time>
      </trkpt>
      <trkpt lat="45.22809" lon="6.1968">
        <ele>1981.9730224609</ele>
        <time>2020-07-19T09:08:22Z</time>
      </trkpt>
      <trkpt lat="45.22807" lon="6.19659">
        <ele>1981.5729980469</ele>
        <time>2020-07-19T09:08:27Z</time>
      </trkpt>
      <trkpt lat="45.22807" lon="6.19639">
        <ele>1982.6729736328</ele>
        <time>2020-07-19T09:08:32Z</time>
      </trkpt>
      <trkpt lat="45.2281" lon="6.19623">
        <ele>1981.7729492188</ele>
        <time>2020-07-19T09:08:37Z</time>
      </trkpt>
      <trkpt lat="45.22807" lon="6.19591">
        <ele>1983.6729736328</ele>
        <time>2020-07-19T09:08:42Z</time>
      </trkpt>
      <trkpt lat="45.22797" lon="6.19562">
        <ele>1983.7729492188</ele>
        <time>2020-07-19T09:08:47Z</time>
      </trkpt>
      <trkpt lat="45.22788" lon="6.1953">
        <ele>1981.6729736328</ele>
        <time>2020-07-19T09:08:52Z</time>
      </trkpt>
      <trkpt lat="45.22775" lon="6.19501">
        <ele>1982.1729736328</ele>
        <time>2020-07-19T09:08:57Z</time>
      </trkpt>
      <trkpt lat="45.22761" lon="6.19477">
        <ele>1987.373046875</ele>
        <time>2020-07-19T09:09:02Z</time>
      </trkpt>
      <trkpt lat="45.22745" lon="6.19453">
        <ele>1986.6719970703</ele>
        <time>2020-07-19T09:09:07Z</time>
      </trkpt>
      <trkpt lat="45.22727" lon="6.19431">
        <ele>1984.0720214844</ele>
        <time>2020-07-19T09:09:12Z</time>
      </trkpt>
      <trkpt lat="45.22708" lon="6.19406">
        <ele>1982.4720458984</ele>
        <time>2020-07-19T09:09:17Z</time>
      </trkpt>
      <trkpt lat="45.2269" lon="6.19383">
        <ele>1981.2719726562</ele>
        <time>2020-07-19T09:09:22Z</time>
      </trkpt>
      <trkpt lat="45.22681" lon="6.19362">
        <ele>1980.2719726562</ele>
        <time>2020-07-19T09:09:27Z</time>
      </trkpt>
      <trkpt lat="45.22682" lon="6.19338">
        <ele>1977.8719482422</ele>
        <time>2020-07-19T09:09:32Z</time>
      </trkpt>
      <trkpt lat="45.2269" lon="6.19319">
        <ele>1976.0720214844</ele>
        <time>2020-07-19T09:09:37Z</time>
      </trkpt>
      <trkpt lat="45.22698" lon="6.19318">
        <ele>1975.5720214844</ele>
        <time>2020-07-19T09:09:42Z</time>
      </trkpt>
      <trkpt lat="45.22711" lon="6.19315">
        <ele>1979.2719726562</ele>
        <time>2020-07-19T09:09:47Z</time>
      </trkpt>
      <trkpt lat="45.22721" lon="6.19309">
        <ele>1979.3719482422</ele>
        <time>2020-07-19T09:09:52Z</time>
      </trkpt>
      <trkpt lat="45.22727" lon="6.19302">
        <ele>1980.2719726562</ele>
        <time>2020-07-19T09:09:57Z</time>
      </trkpt>
      <trkpt lat="45.22733" lon="6.19295">
        <ele>1979.5720214844</ele>
        <time>2020-07-19T09:10:02Z</time>
      </trkpt>
      <trkpt lat="45.22738" lon="6.19288">
        <ele>1981.1719970703</ele>
        <time>2020-07-19T09:10:07Z</time>
      </trkpt>
      <trkpt lat="45.22743" lon="6.19279">
        <ele>1982.0720214844</ele>
        <time>2020-07-19T09:10:13Z</time>
      </trkpt>
      <trkpt lat="45.22748" lon="6.19272">
        <ele>1982.1719970703</ele>
        <time>2020-07-19T09:10:18Z</time>
      </trkpt>
      <trkpt lat="45.22753" lon="6.19266">
        <ele>1984.7719726562</ele>
        <time>2020-07-19T09:10:24Z</time>
      </trkpt>
      <trkpt lat="45.22757" lon="6.19258">
        <ele>1986.9720458984</ele>
        <time>2020-07-19T09:10:29Z</time>
      </trkpt>
      <trkpt lat="45.22758" lon="6.19247">
        <ele>1987.7719726562</ele>
        <time>2020-07-19T09:10:34Z</time>
      </trkpt>
      <trkpt lat="45.22755" lon="6.19236">
        <ele>1988.9720458984</ele>
        <time>2020-07-19T09:10:39Z</time>
      </trkpt>
      <trkpt lat="45.22748" lon="6.19228">
        <ele>1991.7719726562</ele>
        <time>2020-07-19T09:10:44Z</time>
      </trkpt>
      <trkpt lat="45.22742" lon="6.1922">
        <ele>1992.5720214844</ele>
        <time>2020-07-19T09:10:49Z</time>
      </trkpt>
      <trkpt lat="45.22738" lon="6.19213">
        <ele>1995.9720458984</ele>
        <time>2020-07-19T09:10:55Z</time>
      </trkpt>
      <trkpt lat="45.22734" lon="6.19204">
        <ele>2003.5720214844</ele>
        <time>2020-07-19T09:11:02Z</time>
      </trkpt>
      <trkpt lat="45.22731" lon="6.19196">
        <ele>2013.7719726562</ele>
        <time>2020-07-19T09:11:08Z</time>
      </trkpt>
      <trkpt lat="45.22725" lon="6.1919">
        <ele>2019.0720214844</ele>
        <time>2020-07-19T09:11:13Z</time>
      </trkpt>
      <trkpt lat="45.22719" lon="6.19184">
        <ele>2026.5720214844</ele>
        <time>2020-07-19T09:11:19Z</time>
      </trkpt>
      <trkpt lat="45.22714" lon="6.19177">
        <ele>2034.9720458984</ele>
        <time>2020-07-19T09:11:26Z</time>
      </trkpt>
      <trkpt lat="45.22709" lon="6.19169">
        <ele>2039.8719482422</ele>
        <time>2020-07-19T09:11:32Z</time>
      </trkpt>
      <trkpt lat="45.22704" lon="6.19161">
        <ele>2041.7719726562</ele>
        <time>2020-07-19T09:11:38Z</time>
      </trkpt>
      <trkpt lat="45.22698" lon="6.19155">
        <ele>2042.2719726562</ele>
        <time>2020-07-19T09:11:43Z</time>
      </trkpt>
      <trkpt lat="45.22694" lon="6.19146">
        <ele>2042.6719970703</ele>
        <time>2020-07-19T09:11:48Z</time>
      </trkpt>
      <trkpt lat="45.22691" lon="6.19137">
        <ele>2042.8719482422</ele>
        <time>2020-07-19T09:11:53Z</time>
      </trkpt>
      <trkpt lat="45.22688" lon="6.19127">
        <ele>2042.6719970703</ele>
        <time>2020-07-19T09:11:59Z</time>
      </trkpt>
      <trkpt lat="45.22687" lon="6.19117">
        <ele>2043.2719726562</ele>
        <time>2020-07-19T09:12:05Z</time>
      </trkpt>
      <trkpt lat="45.22686" lon="6.19108">
        <ele>2043.5720214844</ele>
        <time>2020-07-19T09:12:10Z</time>
      </trkpt>
      <trkpt lat="45.22686" lon="6.19096">
        <ele>2045.3719482422</ele>
        <time>2020-07-19T09:12:15Z</time>
      </trkpt>
      <trkpt lat="45.22683" lon="6.19087">
        <ele>2046.8719482422</ele>
        <time>2020-07-19T09:12:22Z</time>
      </trkpt>
      <trkpt lat="45.22678" lon="6.19079">
        <ele>2047.1719970703</ele>
        <time>2020-07-19T09:12:28Z</time>
      </trkpt>
      <trkpt lat="45.22673" lon="6.19072">
        <ele>2047.2719726562</ele>
        <time>2020-07-19T09:12:35Z</time>
      </trkpt>
      <trkpt lat="45.22667" lon="6.19067">
        <ele>2049.0720214844</ele>
        <time>2020-07-19T09:12:42Z</time>
      </trkpt>
      <trkpt lat="45.22662" lon="6.19061">
        <ele>2050.0720214844</ele>
        <time>2020-07-19T09:12:47Z</time>
      </trkpt>
      <trkpt lat="45.22657" lon="6.19053">
        <ele>2051.1721191406</ele>
        <time>2020-07-19T09:12:53Z</time>
      </trkpt>
      <trkpt lat="45.22656" lon="6.19043">
        <ele>2052.0720214844</ele>
        <time>2020-07-19T09:12:59Z</time>
      </trkpt>
      <trkpt lat="45.22649" lon="6.19041">
        <ele>2053.5720214844</ele>
        <time>2020-07-19T09:13:08Z</time>
      </trkpt>
      <trkpt lat="45.22647" lon="6.1905">
        <ele>2053.9719238281</ele>
        <time>2020-07-19T09:13:15Z</time>
      </trkpt>
      <trkpt lat="45.22647" lon="6.1906">
        <ele>2054.7719726562</ele>
        <time>2020-07-19T09:13:21Z</time>
      </trkpt>
      <trkpt lat="45.22649" lon="6.19069">
        <ele>2055.1721191406</ele>
        <time>2020-07-19T09:13:27Z</time>
      </trkpt>
      <trkpt lat="45.22648" lon="6.19078">
        <ele>2056.3720703125</ele>
        <time>2020-07-19T09:13:34Z</time>
      </trkpt>
      <trkpt lat="45.22647" lon="6.19087">
        <ele>2056.2719726562</ele>
        <time>2020-07-19T09:13:40Z</time>
      </trkpt>
      <trkpt lat="45.22645" lon="6.19097">
        <ele>2057.1721191406</ele>
        <time>2020-07-19T09:13:47Z</time>
      </trkpt>
      <trkpt lat="45.22642" lon="6.19106">
        <ele>2056.6721191406</ele>
        <time>2020-07-19T09:13:54Z</time>
      </trkpt>
      <trkpt lat="45.22641" lon="6.19115">
        <ele>2057.0720214844</ele>
        <time>2020-07-19T09:14:01Z</time>
      </trkpt>
      <trkpt lat="45.2264" lon="6.19125">
        <ele>2060.1721191406</ele>
        <time>2020-07-19T09:14:09Z</time>
      </trkpt>
      <trkpt lat="45.22638" lon="6.19134">
        <ele>2061.4719238281</ele>
        <time>2020-07-19T09:14:16Z</time>
      </trkpt>
      <trkpt lat="45.22637" lon="6.19144">
        <ele>2062.9719238281</ele>
        <time>2020-07-19T09:14:22Z</time>
      </trkpt>
      <trkpt lat="45.22636" lon="6.19153">
        <ele>2064.7719726562</ele>
        <time>2020-07-19T09:14:29Z</time>
      </trkpt>
      <trkpt lat="45.22631" lon="6.19161">
        <ele>2064.2719726562</ele>
        <time>2020-07-19T09:14:37Z</time>
      </trkpt>
      <trkpt lat="45.22625" lon="6.19164">
        <ele>2063.6721191406</ele>
        <time>2020-07-19T09:14:44Z</time>
      </trkpt>
      <trkpt lat="45.22617" lon="6.19163">
        <ele>2064.4719238281</ele>
        <time>2020-07-19T09:14:51Z</time>
      </trkpt>
      <trkpt lat="45.22611" lon="6.19163">
        <ele>2064.0720214844</ele>
        <time>2020-07-19T09:14:58Z</time>
      </trkpt>
      <trkpt lat="45.22603" lon="6.19164">
        <ele>2066.2719726562</ele>
        <time>2020-07-19T09:15:05Z</time>
      </trkpt>
      <trkpt lat="45.22596" lon="6.19165">
        <ele>2066.5720214844</ele>
        <time>2020-07-19T09:15:12Z</time>
      </trkpt>
      <trkpt lat="45.22589" lon="6.19166">
        <ele>2068.1721191406</ele>
        <time>2020-07-19T09:15:20Z</time>
      </trkpt>
      <trkpt lat="45.22583" lon="6.19164">
        <ele>2068.1721191406</ele>
        <time>2020-07-19T09:15:26Z</time>
      </trkpt>
      <trkpt lat="45.22576" lon="6.19163">
        <ele>2068.2719726562</ele>
        <time>2020-07-19T09:15:32Z</time>
      </trkpt>
      <trkpt lat="45.22569" lon="6.19166">
        <ele>2068.7719726562</ele>
        <time>2020-07-19T09:15:38Z</time>
      </trkpt>
      <trkpt lat="45.22562" lon="6.19171">
        <ele>2070.3720703125</ele>
        <time>2020-07-19T09:15:44Z</time>
      </trkpt>
      <trkpt lat="45.22555" lon="6.19172">
        <ele>2071.9719238281</ele>
        <time>2020-07-19T09:15:49Z</time>
      </trkpt>
      <trkpt lat="45.22556" lon="6.19163">
        <ele>2075.6721191406</ele>
        <time>2020-07-19T09:15:58Z</time>
      </trkpt>
      <trkpt lat="45.22563" lon="6.1916">
        <ele>2076.6721191406</ele>
        <time>2020-07-19T09:16:04Z</time>
      </trkpt>
      <trkpt lat="45.2257" lon="6.19156">
        <ele>2077.8720703125</ele>
        <time>2020-07-19T09:16:11Z</time>
      </trkpt>
      <trkpt lat="45.22575" lon="6.19151">
        <ele>2078.0720214844</ele>
        <time>2020-07-19T09:16:18Z</time>
      </trkpt>
      <trkpt lat="45.22581" lon="6.19145">
        <ele>2078.3720703125</ele>
        <time>2020-07-19T09:16:24Z</time>
      </trkpt>
      <trkpt lat="45.22581" lon="6.19135">
        <ele>2079.5720214844</ele>
        <time>2020-07-19T09:16:30Z</time>
      </trkpt>
      <trkpt lat="45.22578" lon="6.19125">
        <ele>2080.4719238281</ele>
        <time>2020-07-19T09:16:35Z</time>
      </trkpt>
      <trkpt lat="45.22573" lon="6.19118">
        <ele>2081.1721191406</ele>
        <time>2020-07-19T09:16:41Z</time>
      </trkpt>
      <trkpt lat="45.22569" lon="6.19111">
        <ele>2082.8720703125</ele>
        <time>2020-07-19T09:16:48Z</time>
      </trkpt>
      <trkpt lat="45.22563" lon="6.19105">
        <ele>2083.0720214844</ele>
        <time>2020-07-19T09:16:55Z</time>
      </trkpt>
      <trkpt lat="45.22556" lon="6.19104">
        <ele>2083.6721191406</ele>
        <time>2020-07-19T09:17:01Z</time>
      </trkpt>
      <trkpt lat="45.22549" lon="6.19107">
        <ele>2085.3720703125</ele>
        <time>2020-07-19T09:17:10Z</time>
      </trkpt>
      <trkpt lat="45.22543" lon="6.19114">
        <ele>2085.0720214844</ele>
        <time>2020-07-19T09:17:18Z</time>
      </trkpt>
      <trkpt lat="45.22537" lon="6.19121">
        <ele>2085.2719726562</ele>
        <time>2020-07-19T09:17:25Z</time>
      </trkpt>
      <trkpt lat="45.22531" lon="6.19123">
        <ele>2086.3720703125</ele>
        <time>2020-07-19T09:17:31Z</time>
      </trkpt>
      <trkpt lat="45.22525" lon="6.19118">
        <ele>2087.5720214844</ele>
        <time>2020-07-19T09:17:38Z</time>
      </trkpt>
      <trkpt lat="45.22521" lon="6.19109">
        <ele>2090.5720214844</ele>
        <time>2020-07-19T09:17:45Z</time>
      </trkpt>
      <trkpt lat="45.22521" lon="6.191">
        <ele>2093.4719238281</ele>
        <time>2020-07-19T09:19:55Z</time>
      </trkpt>
      <trkpt lat="45.22514" lon="6.19098">
        <ele>2094.1721191406</ele>
        <time>2020-07-19T09:20:02Z</time>
      </trkpt>
      <trkpt lat="45.22507" lon="6.19101">
        <ele>2095.1721191406</ele>
        <time>2020-07-19T09:20:10Z</time>
      </trkpt>
      <trkpt lat="45.22501" lon="6.19098">
        <ele>2096.7719726562</ele>
        <time>2020-07-19T09:20:16Z</time>
      </trkpt>
      <trkpt lat="45.22495" lon="6.19092">
        <ele>2097.37109375</ele>
        <time>2020-07-19T09:20:22Z</time>
      </trkpt>
      <trkpt lat="45.22494" lon="6.19082">
        <ele>2099.0710449219</ele>
        <time>2020-07-19T09:20:29Z</time>
      </trkpt>
      <trkpt lat="45.22489" lon="6.19075">
        <ele>2101.1708984375</ele>
        <time>2020-07-19T09:20:36Z</time>
      </trkpt>
      <trkpt lat="45.22483" lon="6.19069">
        <ele>2101.87109375</ele>
        <time>2020-07-19T09:20:42Z</time>
      </trkpt>
      <trkpt lat="45.22479" lon="6.19061">
        <ele>2100.9709472656</ele>
        <time>2020-07-19T09:20:49Z</time>
      </trkpt>
      <trkpt lat="45.22473" lon="6.19056">
        <ele>2100.6708984375</ele>
        <time>2020-07-19T09:20:56Z</time>
      </trkpt>
      <trkpt lat="45.22467" lon="6.19061">
        <ele>2101.5710449219</ele>
        <time>2020-07-19T09:21:05Z</time>
      </trkpt>
      <trkpt lat="45.22466" lon="6.19071">
        <ele>2103.6708984375</ele>
        <time>2020-07-19T09:21:13Z</time>
      </trkpt>
      <trkpt lat="45.22465" lon="6.19081">
        <ele>2105.87109375</ele>
        <time>2020-07-19T09:21:18Z</time>
      </trkpt>
      <trkpt lat="45.22461" lon="6.19089">
        <ele>2108.5710449219</ele>
        <time>2020-07-19T09:21:26Z</time>
      </trkpt>
      <trkpt lat="45.22454" lon="6.19086">
        <ele>2111.1708984375</ele>
        <time>2020-07-19T09:21:34Z</time>
      </trkpt>
      <trkpt lat="45.22448" lon="6.1908">
        <ele>2111.7709960938</ele>
        <time>2020-07-19T09:21:40Z</time>
      </trkpt>
      <trkpt lat="45.22445" lon="6.19072">
        <ele>2113.37109375</ele>
        <time>2020-07-19T09:21:48Z</time>
      </trkpt>
      <trkpt lat="45.22441" lon="6.19063">
        <ele>2114.2709960938</ele>
        <time>2020-07-19T09:21:56Z</time>
      </trkpt>
      <trkpt lat="45.22435" lon="6.19057">
        <ele>2114.9709472656</ele>
        <time>2020-07-19T09:22:05Z</time>
      </trkpt>
      <trkpt lat="45.22434" lon="6.19066">
        <ele>2115.6708984375</ele>
        <time>2020-07-19T09:22:16Z</time>
      </trkpt>
      <trkpt lat="45.22433" lon="6.19076">
        <ele>2117.37109375</ele>
        <time>2020-07-19T09:22:22Z</time>
      </trkpt>
      <trkpt lat="45.22433" lon="6.19085">
        <ele>2119.5710449219</ele>
        <time>2020-07-19T09:22:29Z</time>
      </trkpt>
      <trkpt lat="45.22425" lon="6.19085">
        <ele>2120.2709960938</ele>
        <time>2020-07-19T09:22:34Z</time>
      </trkpt>
      <trkpt lat="45.22417" lon="6.1908">
        <ele>2120.1708984375</ele>
        <time>2020-07-19T09:22:39Z</time>
      </trkpt>
      <trkpt lat="45.22412" lon="6.19074">
        <ele>2122.2709960938</ele>
        <time>2020-07-19T09:22:49Z</time>
      </trkpt>
      <trkpt lat="45.22409" lon="6.19065">
        <ele>2123.5710449219</ele>
        <time>2020-07-19T09:22:58Z</time>
      </trkpt>
      <trkpt lat="45.22408" lon="6.19055">
        <ele>2123.5710449219</ele>
        <time>2020-07-19T09:23:05Z</time>
      </trkpt>
      <trkpt lat="45.22407" lon="6.19046">
        <ele>2124.37109375</ele>
        <time>2020-07-19T09:23:14Z</time>
      </trkpt>
      <trkpt lat="45.22409" lon="6.19036">
        <ele>2124.87109375</ele>
        <time>2020-07-19T09:23:22Z</time>
      </trkpt>
      <trkpt lat="45.2241" lon="6.19026">
        <ele>2124.2709960938</ele>
        <time>2020-07-19T09:23:30Z</time>
      </trkpt>
      <trkpt lat="45.22414" lon="6.19017">
        <ele>2125.37109375</ele>
        <time>2020-07-19T09:23:38Z</time>
      </trkpt>
      <trkpt lat="45.22419" lon="6.1901">
        <ele>2126.5710449219</ele>
        <time>2020-07-19T09:23:45Z</time>
      </trkpt>
      <trkpt lat="45.22421" lon="6.19002">
        <ele>2127.7709960938</ele>
        <time>2020-07-19T09:23:51Z</time>
      </trkpt>
      <trkpt lat="45.22419" lon="6.18993">
        <ele>2129.6708984375</ele>
        <time>2020-07-19T09:23:57Z</time>
      </trkpt>
      <trkpt lat="45.22414" lon="6.18986">
        <ele>2130.6708984375</ele>
        <time>2020-07-19T09:24:03Z</time>
      </trkpt>
      <trkpt lat="45.22411" lon="6.18977">
        <ele>2133.9709472656</ele>
        <time>2020-07-19T09:24:12Z</time>
      </trkpt>
      <trkpt lat="45.22408" lon="6.18968">
        <ele>2138.37109375</ele>
        <time>2020-07-19T09:24:20Z</time>
      </trkpt>
      <trkpt lat="45.22402" lon="6.18963">
        <ele>2145.0710449219</ele>
        <time>2020-07-19T09:24:30Z</time>
      </trkpt>
      <trkpt lat="45.22396" lon="6.18956">
        <ele>2146.7709960938</ele>
        <time>2020-07-19T09:24:39Z</time>
      </trkpt>
      <trkpt lat="45.2239" lon="6.18953">
        <ele>2146.87109375</ele>
        <time>2020-07-19T09:24:46Z</time>
      </trkpt>
      <trkpt lat="45.22384" lon="6.18947">
        <ele>2144.9709472656</ele>
        <time>2020-07-19T09:24:52Z</time>
      </trkpt>
      <trkpt lat="45.22378" lon="6.18943">
        <ele>2147.5710449219</ele>
        <time>2020-07-19T09:25:01Z</time>
      </trkpt>
      <trkpt lat="45.22372" lon="6.18938">
        <ele>2147.5710449219</ele>
        <time>2020-07-19T09:25:08Z</time>
      </trkpt>
      <trkpt lat="45.22369" lon="6.18928">
        <ele>2147.4709472656</ele>
        <time>2020-07-19T09:25:13Z</time>
      </trkpt>
      <trkpt lat="45.22364" lon="6.18922">
        <ele>2147.9709472656</ele>
        <time>2020-07-19T09:25:20Z</time>
      </trkpt>
      <trkpt lat="45.22357" lon="6.18918">
        <ele>2149.7709960938</ele>
        <time>2020-07-19T09:25:28Z</time>
      </trkpt>
      <trkpt lat="45.22351" lon="6.1893">
        <ele>2149.0710449219</ele>
        <time>2020-07-19T09:25:33Z</time>
      </trkpt>
      <trkpt lat="45.22353" lon="6.1894">
        <ele>2147.7709960938</ele>
        <time>2020-07-19T09:25:39Z</time>
      </trkpt>
      <trkpt lat="45.22357" lon="6.18947">
        <ele>2146.7709960938</ele>
        <time>2020-07-19T09:25:44Z</time>
      </trkpt>
      <trkpt lat="45.22361" lon="6.18956">
        <ele>2146.9709472656</ele>
        <time>2020-07-19T09:25:52Z</time>
      </trkpt>
      <trkpt lat="45.22358" lon="6.18964">
        <ele>2147.6708984375</ele>
        <time>2020-07-19T09:26:01Z</time>
      </trkpt>
      <trkpt lat="45.22351" lon="6.18965">
        <ele>2148.1708984375</ele>
        <time>2020-07-19T09:26:06Z</time>
      </trkpt>
      <trkpt lat="45.22346" lon="6.18959">
        <ele>2152.2709960938</ele>
        <time>2020-07-19T09:26:13Z</time>
      </trkpt>
      <trkpt lat="45.22342" lon="6.18952">
        <ele>2154.1708984375</ele>
        <time>2020-07-19T09:26:20Z</time>
      </trkpt>
      <trkpt lat="45.22337" lon="6.18944">
        <ele>2157.4709472656</ele>
        <time>2020-07-19T09:26:27Z</time>
      </trkpt>
      <trkpt lat="45.22331" lon="6.18938">
        <ele>2160.1708984375</ele>
        <time>2020-07-19T09:26:34Z</time>
      </trkpt>
      <trkpt lat="45.22326" lon="6.18931">
        <ele>2160.7709960938</ele>
        <time>2020-07-19T09:26:43Z</time>
      </trkpt>
      <trkpt lat="45.22319" lon="6.18925">
        <ele>2162.37109375</ele>
        <time>2020-07-19T09:26:49Z</time>
      </trkpt>
      <trkpt lat="45.22313" lon="6.18921">
        <ele>2163.2709960938</ele>
        <time>2020-07-19T09:26:56Z</time>
      </trkpt>
      <trkpt lat="45.22308" lon="6.18914">
        <ele>2164.7709960938</ele>
        <time>2020-07-19T09:27:06Z</time>
      </trkpt>
      <trkpt lat="45.22302" lon="6.18912">
        <ele>2165.5710449219</ele>
        <time>2020-07-19T09:27:13Z</time>
      </trkpt>
      <trkpt lat="45.22295" lon="6.18908">
        <ele>2165.87109375</ele>
        <time>2020-07-19T09:27:20Z</time>
      </trkpt>
      <trkpt lat="45.22289" lon="6.18903">
        <ele>2166.6708984375</ele>
        <time>2020-07-19T09:27:26Z</time>
      </trkpt>
      <trkpt lat="45.22283" lon="6.18896">
        <ele>2167.9709472656</ele>
        <time>2020-07-19T09:27:32Z</time>
      </trkpt>
      <trkpt lat="45.22276" lon="6.18899">
        <ele>2167.9709472656</ele>
        <time>2020-07-19T09:27:39Z</time>
      </trkpt>
      <trkpt lat="45.22273" lon="6.1891">
        <ele>2167.1708984375</ele>
        <time>2020-07-19T09:27:44Z</time>
      </trkpt>
      <trkpt lat="45.22278" lon="6.18918">
        <ele>2166.4709472656</ele>
        <time>2020-07-19T09:27:50Z</time>
      </trkpt>
      <trkpt lat="45.22283" lon="6.18926">
        <ele>2165.9709472656</ele>
        <time>2020-07-19T09:27:55Z</time>
      </trkpt>
      <trkpt lat="45.22288" lon="6.18933">
        <ele>2166.9709472656</ele>
        <time>2020-07-19T09:28:00Z</time>
      </trkpt>
      <trkpt lat="45.22292" lon="6.1894">
        <ele>2164.37109375</ele>
        <time>2020-07-19T09:28:06Z</time>
      </trkpt>
      <trkpt lat="45.22295" lon="6.18949">
        <ele>2163.7709960938</ele>
        <time>2020-07-19T09:28:13Z</time>
      </trkpt>
      <trkpt lat="45.22288" lon="6.18956">
        <ele>2164.0710449219</ele>
        <time>2020-07-19T09:28:18Z</time>
      </trkpt>
      <trkpt lat="45.2228" lon="6.18958">
        <ele>2165.4709472656</ele>
        <time>2020-07-19T09:28:23Z</time>
      </trkpt>
      <trkpt lat="45.22275" lon="6.18951">
        <ele>2177.2709960938</ele>
        <time>2020-07-19T09:28:36Z</time>
      </trkpt>
      <trkpt lat="45.2227" lon="6.18942">
        <ele>2178.37109375</ele>
        <time>2020-07-19T09:28:45Z</time>
      </trkpt>
      <trkpt lat="45.22266" lon="6.18935">
        <ele>2180.0710449219</ele>
        <time>2020-07-19T09:28:51Z</time>
      </trkpt>
      <trkpt lat="45.22261" lon="6.18928">
        <ele>2181.1708984375</ele>
        <time>2020-07-19T09:28:58Z</time>
      </trkpt>
      <trkpt lat="45.22254" lon="6.18927">
        <ele>2180.6708984375</ele>
        <time>2020-07-19T09:29:04Z</time>
      </trkpt>
      <trkpt lat="45.22247" lon="6.18922">
        <ele>2182.9709472656</ele>
        <time>2020-07-19T09:29:11Z</time>
      </trkpt>
      <trkpt lat="45.22241" lon="6.1892">
        <ele>2183.87109375</ele>
        <time>2020-07-19T09:29:20Z</time>
      </trkpt>
      <trkpt lat="45.22233" lon="6.18921">
        <ele>2182.9709472656</ele>
        <time>2020-07-19T09:29:25Z</time>
      </trkpt>
      <trkpt lat="45.22225" lon="6.18924">
        <ele>2180.5710449219</ele>
        <time>2020-07-19T09:29:30Z</time>
      </trkpt>
      <trkpt lat="45.2222" lon="6.18935">
        <ele>2177.87109375</ele>
        <time>2020-07-19T09:29:35Z</time>
      </trkpt>
      <trkpt lat="45.22214" lon="6.18944">
        <ele>2176.5710449219</ele>
        <time>2020-07-19T09:29:40Z</time>
      </trkpt>
      <trkpt lat="45.22216" lon="6.18953">
        <ele>2176.9709472656</ele>
        <time>2020-07-19T09:29:46Z</time>
      </trkpt>
      <trkpt lat="45.22209" lon="6.18953">
        <ele>2173.9709472656</ele>
        <time>2020-07-19T09:30:06Z</time>
      </trkpt>
      <trkpt lat="45.22201" lon="6.18954">
        <ele>2173.87109375</ele>
        <time>2020-07-19T09:30:18Z</time>
      </trkpt>
      <trkpt lat="45.22195" lon="6.18953">
        <ele>2175.7709960938</ele>
        <time>2020-07-19T09:30:27Z</time>
      </trkpt>
      <trkpt lat="45.22189" lon="6.18947">
        <ele>2176.0710449219</ele>
        <time>2020-07-19T09:30:36Z</time>
      </trkpt>
      <trkpt lat="45.22181" lon="6.18941">
        <ele>2175.6708984375</ele>
        <time>2020-07-19T09:30:41Z</time>
      </trkpt>
      <trkpt lat="45.22169" lon="6.18934">
        <ele>2177.4709472656</ele>
        <time>2020-07-19T09:30:46Z</time>
      </trkpt>
      <trkpt lat="45.22159" lon="6.18928">
        <ele>2182.9709472656</ele>
        <time>2020-07-19T09:30:51Z</time>
      </trkpt>
      <trkpt lat="45.22149" lon="6.18921">
        <ele>2186.7709960938</ele>
        <time>2020-07-19T09:30:56Z</time>
      </trkpt>
      <trkpt lat="45.22142" lon="6.18913">
        <ele>2188.6708984375</ele>
        <time>2020-07-19T09:31:01Z</time>
      </trkpt>
      <trkpt lat="45.22135" lon="6.18911">
        <ele>2188.5710449219</ele>
        <time>2020-07-19T09:31:09Z</time>
      </trkpt>
      <trkpt lat="45.22128" lon="6.18908">
        <ele>2187.1708984375</ele>
        <time>2020-07-19T09:31:19Z</time>
      </trkpt>
      <trkpt lat="45.22124" lon="6.18916">
        <ele>2187.37109375</ele>
        <time>2020-07-19T09:31:33Z</time>
      </trkpt>
      <trkpt lat="45.22131" lon="6.18919">
        <ele>2186.0710449219</ele>
        <time>2020-07-19T09:32:09Z</time>
      </trkpt>
      <trkpt lat="45.22128" lon="6.1891">
        <ele>2188.0710449219</ele>
        <time>2020-07-19T09:32:40Z</time>
      </trkpt>
      <trkpt lat="45.22119" lon="6.18911">
        <ele>2183.4709472656</ele>
        <time>2020-07-19T09:33:27Z</time>
      </trkpt>
      <trkpt lat="45.22111" lon="6.18905">
        <ele>2182.2700195312</ele>
        <time>2020-07-19T09:33:32Z</time>
      </trkpt>
      <trkpt lat="45.22103" lon="6.18901">
        <ele>2181.9699707031</ele>
        <time>2020-07-19T09:33:37Z</time>
      </trkpt>
      <trkpt lat="45.22105" lon="6.1889">
        <ele>2179.9699707031</ele>
        <time>2020-07-19T09:33:43Z</time>
      </trkpt>
      <trkpt lat="45.22108" lon="6.18881">
        <ele>2180.2700195312</ele>
        <time>2020-07-19T09:33:48Z</time>
      </trkpt>
      <trkpt lat="45.22112" lon="6.18871">
        <ele>2181.2700195312</ele>
        <time>2020-07-19T09:33:53Z</time>
      </trkpt>
      <trkpt lat="45.22117" lon="6.18863">
        <ele>2183.8701171875</ele>
        <time>2020-07-19T09:33:59Z</time>
      </trkpt>
      <trkpt lat="45.22124" lon="6.18861">
        <ele>2186.2700195312</ele>
        <time>2020-07-19T09:34:06Z</time>
      </trkpt>
      <trkpt lat="45.22132" lon="6.18861">
        <ele>2187.7700195312</ele>
        <time>2020-07-19T09:34:12Z</time>
      </trkpt>
      <trkpt lat="45.22138" lon="6.18858">
        <ele>2188.669921875</ele>
        <time>2020-07-19T09:34:18Z</time>
      </trkpt>
      <trkpt lat="45.22139" lon="6.18847">
        <ele>2189.7700195312</ele>
        <time>2020-07-19T09:34:23Z</time>
      </trkpt>
      <trkpt lat="45.22134" lon="6.18841">
        <ele>2192.669921875</ele>
        <time>2020-07-19T09:34:28Z</time>
      </trkpt>
      <trkpt lat="45.22131" lon="6.18832">
        <ele>2195.169921875</ele>
        <time>2020-07-19T09:34:33Z</time>
      </trkpt>
      <trkpt lat="45.22127" lon="6.18824">
        <ele>2196.5700683594</ele>
        <time>2020-07-19T09:34:38Z</time>
      </trkpt>
      <trkpt lat="45.22121" lon="6.18819">
        <ele>2197.169921875</ele>
        <time>2020-07-19T09:34:45Z</time>
      </trkpt>
      <trkpt lat="45.22116" lon="6.18812">
        <ele>2197.169921875</ele>
        <time>2020-07-19T09:34:51Z</time>
      </trkpt>
      <trkpt lat="45.2211" lon="6.18805">
        <ele>2196.8701171875</ele>
        <time>2020-07-19T09:34:58Z</time>
      </trkpt>
      <trkpt lat="45.22105" lon="6.18797">
        <ele>2197.5700683594</ele>
        <time>2020-07-19T09:35:04Z</time>
      </trkpt>
      <trkpt lat="45.221" lon="6.18792">
        <ele>2199.669921875</ele>
        <time>2020-07-19T09:35:10Z</time>
      </trkpt>
      <trkpt lat="45.22094" lon="6.18783">
        <ele>2199.0700683594</ele>
        <time>2020-07-19T09:35:17Z</time>
      </trkpt>
      <trkpt lat="45.22087" lon="6.18784">
        <ele>2201.2700195312</ele>
        <time>2020-07-19T09:35:23Z</time>
      </trkpt>
      <trkpt lat="45.22082" lon="6.18776">
        <ele>2201.3701171875</ele>
        <time>2020-07-19T09:35:29Z</time>
      </trkpt>
      <trkpt lat="45.22079" lon="6.18767">
        <ele>2201.2700195312</ele>
        <time>2020-07-19T09:35:37Z</time>
      </trkpt>
      <trkpt lat="45.22074" lon="6.1876">
        <ele>2201.0700683594</ele>
        <time>2020-07-19T09:35:43Z</time>
      </trkpt>
      <trkpt lat="45.22069" lon="6.18753">
        <ele>2200.0700683594</ele>
        <time>2020-07-19T09:35:49Z</time>
      </trkpt>
      <trkpt lat="45.22062" lon="6.1875">
        <ele>2201.0700683594</ele>
        <time>2020-07-19T09:35:55Z</time>
      </trkpt>
      <trkpt lat="45.22055" lon="6.18751">
        <ele>2205.9699707031</ele>
        <time>2020-07-19T09:36:02Z</time>
      </trkpt>
      <trkpt lat="45.22049" lon="6.18748">
        <ele>2206.0700683594</ele>
        <time>2020-07-19T09:36:09Z</time>
      </trkpt>
      <trkpt lat="45.22042" lon="6.18749">
        <ele>2205.2700195312</ele>
        <time>2020-07-19T09:36:16Z</time>
      </trkpt>
      <trkpt lat="45.22039" lon="6.18739">
        <ele>2206.5700683594</ele>
        <time>2020-07-19T09:36:21Z</time>
      </trkpt>
      <trkpt lat="45.22033" lon="6.18734">
        <ele>2210.3701171875</ele>
        <time>2020-07-19T09:36:27Z</time>
      </trkpt>
      <trkpt lat="45.22028" lon="6.18727">
        <ele>2210.3701171875</ele>
        <time>2020-07-19T09:36:32Z</time>
      </trkpt>
      <trkpt lat="45.22022" lon="6.18721">
        <ele>2211.669921875</ele>
        <time>2020-07-19T09:36:39Z</time>
      </trkpt>
      <trkpt lat="45.22017" lon="6.18715">
        <ele>2210.4699707031</ele>
        <time>2020-07-19T09:36:45Z</time>
      </trkpt>
      <trkpt lat="45.22016" lon="6.18705">
        <ele>2209.5700683594</ele>
        <time>2020-07-19T09:36:51Z</time>
      </trkpt>
      <trkpt lat="45.22012" lon="6.18697">
        <ele>2210.3701171875</ele>
        <time>2020-07-19T09:36:58Z</time>
      </trkpt>
      <trkpt lat="45.22006" lon="6.18692">
        <ele>2210.669921875</ele>
        <time>2020-07-19T09:37:03Z</time>
      </trkpt>
      <trkpt lat="45.22001" lon="6.18685">
        <ele>2209.9699707031</ele>
        <time>2020-07-19T09:37:09Z</time>
      </trkpt>
      <trkpt lat="45.22001" lon="6.18675">
        <ele>2213.9699707031</ele>
        <time>2020-07-19T09:37:17Z</time>
      </trkpt>
      <trkpt lat="45.21995" lon="6.18669">
        <ele>2216.7700195312</ele>
        <time>2020-07-19T09:37:30Z</time>
      </trkpt>
      <trkpt lat="45.2199" lon="6.18662">
        <ele>2217.4699707031</ele>
        <time>2020-07-19T09:37:37Z</time>
      </trkpt>
      <trkpt lat="45.21986" lon="6.18654">
        <ele>2218.9699707031</ele>
        <time>2020-07-19T09:37:43Z</time>
      </trkpt>
      <trkpt lat="45.2198" lon="6.18646">
        <ele>2217.9699707031</ele>
        <time>2020-07-19T09:37:50Z</time>
      </trkpt>
      <trkpt lat="45.21978" lon="6.18636">
        <ele>2218.5700683594</ele>
        <time>2020-07-19T09:37:57Z</time>
      </trkpt>
      <trkpt lat="45.21973" lon="6.18627">
        <ele>2221.9699707031</ele>
        <time>2020-07-19T09:38:05Z</time>
      </trkpt>
      <trkpt lat="45.21968" lon="6.1862">
        <ele>2223.169921875</ele>
        <time>2020-07-19T09:38:14Z</time>
      </trkpt>
      <trkpt lat="45.21962" lon="6.18616">
        <ele>2225.2700195312</ele>
        <time>2020-07-19T09:38:23Z</time>
      </trkpt>
      <trkpt lat="45.21956" lon="6.1861">
        <ele>2224.4699707031</ele>
        <time>2020-07-19T09:38:31Z</time>
      </trkpt>
      <trkpt lat="45.21949" lon="6.18607">
        <ele>2225.5700683594</ele>
        <time>2020-07-19T09:38:39Z</time>
      </trkpt>
      <trkpt lat="45.21944" lon="6.18601">
        <ele>2225.7700195312</ele>
        <time>2020-07-19T09:38:45Z</time>
      </trkpt>
      <trkpt lat="45.21939" lon="6.18593">
        <ele>2226.9699707031</ele>
        <time>2020-07-19T09:38:52Z</time>
      </trkpt>
      <trkpt lat="45.21933" lon="6.18588">
        <ele>2228.3701171875</ele>
        <time>2020-07-19T09:39:00Z</time>
      </trkpt>
      <trkpt lat="45.2193" lon="6.18579">
        <ele>2227.3701171875</ele>
        <time>2020-07-19T09:39:05Z</time>
      </trkpt>
      <trkpt lat="45.21927" lon="6.18571">
        <ele>2226.8701171875</ele>
        <time>2020-07-19T09:39:10Z</time>
      </trkpt>
      <trkpt lat="45.21922" lon="6.18564">
        <ele>2228.8701171875</ele>
        <time>2020-07-19T09:39:19Z</time>
      </trkpt>
      <trkpt lat="45.21916" lon="6.18559">
        <ele>2229.2700195312</ele>
        <time>2020-07-19T09:39:26Z</time>
      </trkpt>
      <trkpt lat="45.21909" lon="6.18558">
        <ele>2230.669921875</ele>
        <time>2020-07-19T09:39:32Z</time>
      </trkpt>
      <trkpt lat="45.21902" lon="6.18556">
        <ele>2231.0700683594</ele>
        <time>2020-07-19T09:39:38Z</time>
      </trkpt>
      <trkpt lat="45.21896" lon="6.18555">
        <ele>2230.8701171875</ele>
        <time>2020-07-19T09:39:46Z</time>
      </trkpt>
      <trkpt lat="45.21889" lon="6.18556">
        <ele>2231.7700195312</ele>
        <time>2020-07-19T09:39:53Z</time>
      </trkpt>
      <trkpt lat="45.21883" lon="6.18563">
        <ele>2234.3701171875</ele>
        <time>2020-07-19T09:39:58Z</time>
      </trkpt>
      <trkpt lat="45.21877" lon="6.18563">
        <ele>2233.9699707031</ele>
        <time>2020-07-19T09:40:05Z</time>
      </trkpt>
      <trkpt lat="45.2187" lon="6.18561">
        <ele>2235.0700683594</ele>
        <time>2020-07-19T09:40:14Z</time>
      </trkpt>
      <trkpt lat="45.21864" lon="6.18558">
        <ele>2237.8701171875</ele>
        <time>2020-07-19T09:40:22Z</time>
      </trkpt>
      <trkpt lat="45.2186" lon="6.18551">
        <ele>2241.4699707031</ele>
        <time>2020-07-19T09:40:29Z</time>
      </trkpt>
      <trkpt lat="45.21854" lon="6.18546">
        <ele>2241.7700195312</ele>
        <time>2020-07-19T09:40:36Z</time>
      </trkpt>
      <trkpt lat="45.21848" lon="6.18542">
        <ele>2242.7690429688</ele>
        <time>2020-07-19T09:40:42Z</time>
      </trkpt>
      <trkpt lat="45.2184" lon="6.1854">
        <ele>2246.9689941406</ele>
        <time>2020-07-19T09:40:49Z</time>
      </trkpt>
      <trkpt lat="45.21834" lon="6.18538">
        <ele>2248.2690429688</ele>
        <time>2020-07-19T09:40:56Z</time>
      </trkpt>
      <trkpt lat="45.21827" lon="6.18535">
        <ele>2249.0690917969</ele>
        <time>2020-07-19T09:41:03Z</time>
      </trkpt>
      <trkpt lat="45.2182" lon="6.18534">
        <ele>2251.0690917969</ele>
        <time>2020-07-19T09:41:10Z</time>
      </trkpt>
      <trkpt lat="45.21813" lon="6.1853">
        <ele>2251.5690917969</ele>
        <time>2020-07-19T09:41:18Z</time>
      </trkpt>
      <trkpt lat="45.21808" lon="6.18523">
        <ele>2252.1689453125</ele>
        <time>2020-07-19T09:41:26Z</time>
      </trkpt>
      <trkpt lat="45.21801" lon="6.18522">
        <ele>2252.2690429688</ele>
        <time>2020-07-19T09:41:34Z</time>
      </trkpt>
      <trkpt lat="45.21794" lon="6.18528">
        <ele>2255.2690429688</ele>
        <time>2020-07-19T09:41:39Z</time>
      </trkpt>
      <trkpt lat="45.21787" lon="6.18526">
        <ele>2253.9689941406</ele>
        <time>2020-07-19T09:41:47Z</time>
      </trkpt>
      <trkpt lat="45.21782" lon="6.18519">
        <ele>2253.7690429688</ele>
        <time>2020-07-19T09:41:54Z</time>
      </trkpt>
      <trkpt lat="45.21776" lon="6.18512">
        <ele>2252.0690917969</ele>
        <time>2020-07-19T09:42:00Z</time>
      </trkpt>
      <trkpt lat="45.21771" lon="6.18505">
        <ele>2250.1689453125</ele>
        <time>2020-07-19T09:42:08Z</time>
      </trkpt>
      <trkpt lat="45.21765" lon="6.18508">
        <ele>2248.2690429688</ele>
        <time>2020-07-19T09:42:15Z</time>
      </trkpt>
      <trkpt lat="45.2176" lon="6.185">
        <ele>2247.7690429688</ele>
        <time>2020-07-19T09:42:20Z</time>
      </trkpt>
      <trkpt lat="45.21754" lon="6.18506">
        <ele>2250.2690429688</ele>
        <time>2020-07-19T09:42:25Z</time>
      </trkpt>
      <trkpt lat="45.21749" lon="6.18498">
        <ele>2252.5690917969</ele>
        <time>2020-07-19T09:42:32Z</time>
      </trkpt>
      <trkpt lat="45.21744" lon="6.18505">
        <ele>2255.7690429688</ele>
        <time>2020-07-19T09:42:43Z</time>
      </trkpt>
      <trkpt lat="45.21743" lon="6.18514">
        <ele>2257.6689453125</ele>
        <time>2020-07-19T09:42:52Z</time>
      </trkpt>
      <trkpt lat="45.21736" lon="6.18518">
        <ele>2255.1689453125</ele>
        <time>2020-07-19T09:43:09Z</time>
      </trkpt>
      <trkpt lat="45.21724" lon="6.18527">
        <ele>2250.6689453125</ele>
        <time>2020-07-19T09:44:25Z</time>
      </trkpt>
      <trkpt lat="45.21732" lon="6.18521">
        <ele>2253.7690429688</ele>
        <time>2020-07-19T09:45:57Z</time>
      </trkpt>
      <trkpt lat="45.21727" lon="6.18513">
        <ele>2249.3688964844</ele>
        <time>2020-07-19T09:46:44Z</time>
      </trkpt>
      <trkpt lat="45.21733" lon="6.18507">
        <ele>2250.7690429688</ele>
        <time>2020-07-19T09:46:52Z</time>
      </trkpt>
      <trkpt lat="45.21735" lon="6.18517">
        <ele>2249.3688964844</ele>
        <time>2020-07-19T09:47:12Z</time>
      </trkpt>
      <trkpt lat="45.21742" lon="6.18514">
        <ele>2260.2690429688</ele>
        <time>2020-07-19T09:48:58Z</time>
      </trkpt>
      <trkpt lat="45.21732" lon="6.18511">
        <ele>2275.8688964844</ele>
        <time>2020-07-19T09:50:15Z</time>
      </trkpt>
      <trkpt lat="45.21737" lon="6.18518">
        <ele>2281.9689941406</ele>
        <time>2020-07-19T09:51:00Z</time>
      </trkpt>
      <trkpt lat="45.2173" lon="6.18512">
        <ele>2285.6689453125</ele>
        <time>2020-07-19T09:51:26Z</time>
      </trkpt>
      <trkpt lat="45.21725" lon="6.18505">
        <ele>2285.8688964844</ele>
        <time>2020-07-19T09:51:35Z</time>
      </trkpt>
      <trkpt lat="45.21721" lon="6.18499">
        <ele>2286.1689453125</ele>
        <time>2020-07-19T09:51:41Z</time>
      </trkpt>
      <trkpt lat="45.21715" lon="6.18493">
        <ele>2286.5690917969</ele>
        <time>2020-07-19T09:51:49Z</time>
      </trkpt>
      <trkpt lat="45.21711" lon="6.18486">
        <ele>2287.9689941406</ele>
        <time>2020-07-19T09:51:58Z</time>
      </trkpt>
      <trkpt lat="45.21708" lon="6.18477">
        <ele>2288.7690429688</ele>
        <time>2020-07-19T09:52:04Z</time>
      </trkpt>
      <trkpt lat="45.21704" lon="6.18468">
        <ele>2291.4689941406</ele>
        <time>2020-07-19T09:52:11Z</time>
      </trkpt>
      <trkpt lat="45.21701" lon="6.18459">
        <ele>2292.1689453125</ele>
        <time>2020-07-19T09:52:18Z</time>
      </trkpt>
      <trkpt lat="45.21696" lon="6.18453">
        <ele>2292.3688964844</ele>
        <time>2020-07-19T09:52:25Z</time>
      </trkpt>
      <trkpt lat="45.21689" lon="6.18451">
        <ele>2293.0690917969</ele>
        <time>2020-07-19T09:52:32Z</time>
      </trkpt>
      <trkpt lat="45.21683" lon="6.18447">
        <ele>2293.5690917969</ele>
        <time>2020-07-19T09:52:38Z</time>
      </trkpt>
      <trkpt lat="45.21676" lon="6.18443">
        <ele>2293.5690917969</ele>
        <time>2020-07-19T09:52:44Z</time>
      </trkpt>
      <trkpt lat="45.21669" lon="6.18444">
        <ele>2293.3688964844</ele>
        <time>2020-07-19T09:52:51Z</time>
      </trkpt>
      <trkpt lat="45.21662" lon="6.18444">
        <ele>2294.9689941406</ele>
        <time>2020-07-19T09:52:58Z</time>
      </trkpt>
      <trkpt lat="45.21655" lon="6.18446">
        <ele>2296.1689453125</ele>
        <time>2020-07-19T09:53:04Z</time>
      </trkpt>
      <trkpt lat="45.21648" lon="6.18447">
        <ele>2297.9689941406</ele>
        <time>2020-07-19T09:53:10Z</time>
      </trkpt>
      <trkpt lat="45.2164" lon="6.18447">
        <ele>2300.8688964844</ele>
        <time>2020-07-19T09:53:18Z</time>
      </trkpt>
      <trkpt lat="45.21633" lon="6.18447">
        <ele>2301.8688964844</ele>
        <time>2020-07-19T09:53:25Z</time>
      </trkpt>
      <trkpt lat="45.21626" lon="6.18445">
        <ele>2301.4689941406</ele>
        <time>2020-07-19T09:53:32Z</time>
      </trkpt>
      <trkpt lat="45.21621" lon="6.1844">
        <ele>2300.6689453125</ele>
        <time>2020-07-19T09:53:38Z</time>
      </trkpt>
      <trkpt lat="45.21615" lon="6.18435">
        <ele>2302.6689453125</ele>
        <time>2020-07-19T09:53:44Z</time>
      </trkpt>
      <trkpt lat="45.21609" lon="6.18431">
        <ele>2303.8688964844</ele>
        <time>2020-07-19T09:53:49Z</time>
      </trkpt>
      <trkpt lat="45.21602" lon="6.18427">
        <ele>2303.2690429688</ele>
        <time>2020-07-19T09:53:55Z</time>
      </trkpt>
      <trkpt lat="45.21596" lon="6.18422">
        <ele>2302.2690429688</ele>
        <time>2020-07-19T09:54:00Z</time>
      </trkpt>
      <trkpt lat="45.21589" lon="6.18417">
        <ele>2301.9689941406</ele>
        <time>2020-07-19T09:54:06Z</time>
      </trkpt>
      <trkpt lat="45.21583" lon="6.18412">
        <ele>2301.6689453125</ele>
        <time>2020-07-19T09:54:11Z</time>
      </trkpt>
      <trkpt lat="45.21576" lon="6.1841">
        <ele>2302.2690429688</ele>
        <time>2020-07-19T09:54:19Z</time>
      </trkpt>
      <trkpt lat="45.21569" lon="6.18407">
        <ele>2304.3688964844</ele>
        <time>2020-07-19T09:54:25Z</time>
      </trkpt>
      <trkpt lat="45.21562" lon="6.18405">
        <ele>2305.3688964844</ele>
        <time>2020-07-19T09:54:31Z</time>
      </trkpt>
      <trkpt lat="45.21556" lon="6.18402">
        <ele>2305.6689453125</ele>
        <time>2020-07-19T09:54:37Z</time>
      </trkpt>
      <trkpt lat="45.21549" lon="6.18401">
        <ele>2307.7690429688</ele>
        <time>2020-07-19T09:54:45Z</time>
      </trkpt>
      <trkpt lat="45.21542" lon="6.18398">
        <ele>2308.2690429688</ele>
        <time>2020-07-19T09:54:51Z</time>
      </trkpt>
      <trkpt lat="45.21537" lon="6.18392">
        <ele>2307.9689941406</ele>
        <time>2020-07-19T09:54:57Z</time>
      </trkpt>
      <trkpt lat="45.2153" lon="6.18392">
        <ele>2308.7690429688</ele>
        <time>2020-07-19T09:55:02Z</time>
      </trkpt>
      <trkpt lat="45.21524" lon="6.18388">
        <ele>2309.4689941406</ele>
        <time>2020-07-19T09:55:08Z</time>
      </trkpt>
      <trkpt lat="45.21519" lon="6.1838">
        <ele>2311.1689453125</ele>
        <time>2020-07-19T09:55:16Z</time>
      </trkpt>
      <trkpt lat="45.21517" lon="6.1837">
        <ele>2313.6689453125</ele>
        <time>2020-07-19T09:55:24Z</time>
      </trkpt>
      <trkpt lat="45.21514" lon="6.18361">
        <ele>2315.6689453125</ele>
        <time>2020-07-19T09:55:31Z</time>
      </trkpt>
      <trkpt lat="45.2151" lon="6.18352">
        <ele>2317.9689941406</ele>
        <time>2020-07-19T09:55:38Z</time>
      </trkpt>
      <trkpt lat="45.21503" lon="6.18352">
        <ele>2318.2690429688</ele>
        <time>2020-07-19T09:55:46Z</time>
      </trkpt>
      <trkpt lat="45.21496" lon="6.18353">
        <ele>2318.3688964844</ele>
        <time>2020-07-19T09:55:54Z</time>
      </trkpt>
      <trkpt lat="45.2149" lon="6.18356">
        <ele>2318.0690917969</ele>
        <time>2020-07-19T09:56:01Z</time>
      </trkpt>
      <trkpt lat="45.21483" lon="6.18359">
        <ele>2318.4689941406</ele>
        <time>2020-07-19T09:56:06Z</time>
      </trkpt>
      <trkpt lat="45.21477" lon="6.18362">
        <ele>2319.8688964844</ele>
        <time>2020-07-19T09:56:12Z</time>
      </trkpt>
      <trkpt lat="45.2147" lon="6.18363">
        <ele>2320.2690429688</ele>
        <time>2020-07-19T09:56:20Z</time>
      </trkpt>
      <trkpt lat="45.21463" lon="6.18364">
        <ele>2320.6689453125</ele>
        <time>2020-07-19T09:56:27Z</time>
      </trkpt>
      <trkpt lat="45.21456" lon="6.18364">
        <ele>2319.8679199219</ele>
        <time>2020-07-19T09:56:33Z</time>
      </trkpt>
      <trkpt lat="45.21449" lon="6.18364">
        <ele>2320.4680175781</ele>
        <time>2020-07-19T09:56:41Z</time>
      </trkpt>
      <trkpt lat="45.21443" lon="6.18359">
        <ele>2320.9680175781</ele>
        <time>2020-07-19T09:56:47Z</time>
      </trkpt>
      <trkpt lat="45.21436" lon="6.18354">
        <ele>2320.0681152344</ele>
        <time>2020-07-19T09:56:54Z</time>
      </trkpt>
      <trkpt lat="45.21431" lon="6.18348">
        <ele>2319.9680175781</ele>
        <time>2020-07-19T09:57:00Z</time>
      </trkpt>
      <trkpt lat="45.21424" lon="6.18349">
        <ele>2320.16796875</ele>
        <time>2020-07-19T09:57:06Z</time>
      </trkpt>
      <trkpt lat="45.21418" lon="6.18347">
        <ele>2320.9680175781</ele>
        <time>2020-07-19T09:57:12Z</time>
      </trkpt>
      <trkpt lat="45.2141" lon="6.1835">
        <ele>2321.9680175781</ele>
        <time>2020-07-19T09:57:18Z</time>
      </trkpt>
      <trkpt lat="45.21403" lon="6.1835">
        <ele>2322.7680664062</ele>
        <time>2020-07-19T09:57:26Z</time>
      </trkpt>
      <trkpt lat="45.21399" lon="6.18342">
        <ele>2322.0681152344</ele>
        <time>2020-07-19T09:57:42Z</time>
      </trkpt>
      <trkpt lat="45.21399" lon="6.18333">
        <ele>2323.9680175781</ele>
        <time>2020-07-19T09:58:05Z</time>
      </trkpt>
      <trkpt lat="45.21404" lon="6.18327">
        <ele>2327.5681152344</ele>
        <time>2020-07-19T09:58:19Z</time>
      </trkpt>
      <trkpt lat="45.2141" lon="6.18322">
        <ele>2329.4680175781</ele>
        <time>2020-07-19T09:58:33Z</time>
      </trkpt>
      <trkpt lat="45.21418" lon="6.18319">
        <ele>2332.3679199219</ele>
        <time>2020-07-19T09:58:39Z</time>
      </trkpt>
      <trkpt lat="45.21426" lon="6.18316">
        <ele>2335.16796875</ele>
        <time>2020-07-19T09:58:44Z</time>
      </trkpt>
      <trkpt lat="45.21429" lon="6.18308">
        <ele>2336.66796875</ele>
        <time>2020-07-19T09:58:53Z</time>
      </trkpt>
      <trkpt lat="45.21423" lon="6.18302">
        <ele>2336.5681152344</ele>
        <time>2020-07-19T09:59:01Z</time>
      </trkpt>
      <trkpt lat="45.21417" lon="6.18307">
        <ele>2339.0681152344</ele>
        <time>2020-07-19T09:59:09Z</time>
      </trkpt>
      <trkpt lat="45.2141" lon="6.18305">
        <ele>2340.3679199219</ele>
        <time>2020-07-19T09:59:17Z</time>
      </trkpt>
      <trkpt lat="45.21403" lon="6.18301">
        <ele>2340.7680664062</ele>
        <time>2020-07-19T09:59:22Z</time>
      </trkpt>
      <trkpt lat="45.21397" lon="6.18297">
        <ele>2341.7680664062</ele>
        <time>2020-07-19T09:59:30Z</time>
      </trkpt>
      <trkpt lat="45.2139" lon="6.18296">
        <ele>2341.2680664062</ele>
        <time>2020-07-19T09:59:37Z</time>
      </trkpt>
      <trkpt lat="45.21384" lon="6.183">
        <ele>2343.0681152344</ele>
        <time>2020-07-19T09:59:42Z</time>
      </trkpt>
      <trkpt lat="45.21377" lon="6.183">
        <ele>2343.5681152344</ele>
        <time>2020-07-19T09:59:49Z</time>
      </trkpt>
      <trkpt lat="45.2137" lon="6.18299">
        <ele>2343.2680664062</ele>
        <time>2020-07-19T09:59:55Z</time>
      </trkpt>
      <trkpt lat="45.21363" lon="6.18301">
        <ele>2344.4680175781</ele>
        <time>2020-07-19T10:00:01Z</time>
      </trkpt>
      <trkpt lat="45.21356" lon="6.18299">
        <ele>2344.66796875</ele>
        <time>2020-07-19T10:00:08Z</time>
      </trkpt>
      <trkpt lat="45.21349" lon="6.18301">
        <ele>2344.5681152344</ele>
        <time>2020-07-19T10:00:16Z</time>
      </trkpt>
      <trkpt lat="45.21343" lon="6.18303">
        <ele>2345.5681152344</ele>
        <time>2020-07-19T10:00:23Z</time>
      </trkpt>
      <trkpt lat="45.21336" lon="6.18303">
        <ele>2345.4680175781</ele>
        <time>2020-07-19T10:00:31Z</time>
      </trkpt>
      <trkpt lat="45.2133" lon="6.18299">
        <ele>2346.66796875</ele>
        <time>2020-07-19T10:00:40Z</time>
      </trkpt>
      <trkpt lat="45.21323" lon="6.18297">
        <ele>2346.66796875</ele>
        <time>2020-07-19T10:00:48Z</time>
      </trkpt>
      <trkpt lat="45.21323" lon="6.18287">
        <ele>2347.2680664062</ele>
        <time>2020-07-19T10:00:56Z</time>
      </trkpt>
      <trkpt lat="45.21327" lon="6.1828">
        <ele>2350.8679199219</ele>
        <time>2020-07-19T10:01:04Z</time>
      </trkpt>
      <trkpt lat="45.21334" lon="6.18276">
        <ele>2354.66796875</ele>
        <time>2020-07-19T10:01:12Z</time>
      </trkpt>
      <trkpt lat="45.21339" lon="6.18272">
        <ele>2357.2680664062</ele>
        <time>2020-07-19T10:01:19Z</time>
      </trkpt>
      <trkpt lat="45.21346" lon="6.18265">
        <ele>2360.3679199219</ele>
        <time>2020-07-19T10:01:24Z</time>
      </trkpt>
      <trkpt lat="45.21353" lon="6.1826">
        <ele>2362.7680664062</ele>
        <time>2020-07-19T10:01:31Z</time>
      </trkpt>
      <trkpt lat="45.21354" lon="6.18251">
        <ele>2364.8679199219</ele>
        <time>2020-07-19T10:01:40Z</time>
      </trkpt>
      <trkpt lat="45.21354" lon="6.18242">
        <ele>2364.0681152344</ele>
        <time>2020-07-19T10:01:49Z</time>
      </trkpt>
      <trkpt lat="45.21352" lon="6.18232">
        <ele>2363.16796875</ele>
        <time>2020-07-19T10:01:57Z</time>
      </trkpt>
      <trkpt lat="45.21348" lon="6.18224">
        <ele>2363.3679199219</ele>
        <time>2020-07-19T10:02:07Z</time>
      </trkpt>
      <trkpt lat="45.21345" lon="6.18216">
        <ele>2362.5681152344</ele>
        <time>2020-07-19T10:02:17Z</time>
      </trkpt>
      <trkpt lat="45.21341" lon="6.18207">
        <ele>2363.5681152344</ele>
        <time>2020-07-19T10:02:25Z</time>
      </trkpt>
      <trkpt lat="45.21338" lon="6.18197">
        <ele>2365.4680175781</ele>
        <time>2020-07-19T10:02:34Z</time>
      </trkpt>
      <trkpt lat="45.21338" lon="6.18188">
        <ele>2367.7680664062</ele>
        <time>2020-07-19T10:02:42Z</time>
      </trkpt>
      <trkpt lat="45.21335" lon="6.18179">
        <ele>2370.2680664062</ele>
        <time>2020-07-19T10:02:53Z</time>
      </trkpt>
      <trkpt lat="45.21329" lon="6.18173">
        <ele>2368.7680664062</ele>
        <time>2020-07-19T10:03:02Z</time>
      </trkpt>
      <trkpt lat="45.21322" lon="6.1817">
        <ele>2367.8679199219</ele>
        <time>2020-07-19T10:03:13Z</time>
      </trkpt>
      <trkpt lat="45.21316" lon="6.18174">
        <ele>2367.0681152344</ele>
        <time>2020-07-19T10:03:22Z</time>
      </trkpt>
      <trkpt lat="45.21311" lon="6.18181">
        <ele>2368.0681152344</ele>
        <time>2020-07-19T10:03:30Z</time>
      </trkpt>
      <trkpt lat="45.21308" lon="6.1819">
        <ele>2369.66796875</ele>
        <time>2020-07-19T10:03:37Z</time>
      </trkpt>
      <trkpt lat="45.21303" lon="6.18197">
        <ele>2369.0681152344</ele>
        <time>2020-07-19T10:03:44Z</time>
      </trkpt>
      <trkpt lat="45.21301" lon="6.18206">
        <ele>2369.8679199219</ele>
        <time>2020-07-19T10:03:52Z</time>
      </trkpt>
      <trkpt lat="45.21297" lon="6.18214">
        <ele>2370.9680175781</ele>
        <time>2020-07-19T10:04:01Z</time>
      </trkpt>
      <trkpt lat="45.21291" lon="6.1821">
        <ele>2372.4680175781</ele>
        <time>2020-07-19T10:04:09Z</time>
      </trkpt>
      <trkpt lat="45.21287" lon="6.18202">
        <ele>2372.8679199219</ele>
        <time>2020-07-19T10:04:17Z</time>
      </trkpt>
      <trkpt lat="45.21284" lon="6.18192">
        <ele>2375.4680175781</ele>
        <time>2020-07-19T10:04:23Z</time>
      </trkpt>
      <trkpt lat="45.2128" lon="6.18184">
        <ele>2377.16796875</ele>
        <time>2020-07-19T10:04:32Z</time>
      </trkpt>
      <trkpt lat="45.21276" lon="6.18177">
        <ele>2378.0681152344</ele>
        <time>2020-07-19T10:04:39Z</time>
      </trkpt>
      <trkpt lat="45.21271" lon="6.18171">
        <ele>2376.7680664062</ele>
        <time>2020-07-19T10:04:48Z</time>
      </trkpt>
      <trkpt lat="45.21266" lon="6.18177">
        <ele>2376.8679199219</ele>
        <time>2020-07-19T10:04:54Z</time>
      </trkpt>
      <trkpt lat="45.21262" lon="6.18186">
        <ele>2377.3679199219</ele>
        <time>2020-07-19T10:04:59Z</time>
      </trkpt>
      <trkpt lat="45.21256" lon="6.1819">
        <ele>2377.9680175781</ele>
        <time>2020-07-19T10:05:07Z</time>
      </trkpt>
      <trkpt lat="45.2125" lon="6.18196">
        <ele>2379.66796875</ele>
        <time>2020-07-19T10:05:16Z</time>
      </trkpt>
      <trkpt lat="45.21245" lon="6.18189">
        <ele>2382.7680664062</ele>
        <time>2020-07-19T10:05:24Z</time>
      </trkpt>
      <trkpt lat="45.21243" lon="6.18179">
        <ele>2387.66796875</ele>
        <time>2020-07-19T10:05:31Z</time>
      </trkpt>
      <trkpt lat="45.21241" lon="6.1817">
        <ele>2392.0681152344</ele>
        <time>2020-07-19T10:05:38Z</time>
      </trkpt>
      <trkpt lat="45.21238" lon="6.18161">
        <ele>2402.16796875</ele>
        <time>2020-07-19T10:05:47Z</time>
      </trkpt>
      <trkpt lat="45.21236" lon="6.18151">
        <ele>2410.5681152344</ele>
        <time>2020-07-19T10:05:57Z</time>
      </trkpt>
      <trkpt lat="45.21236" lon="6.18141">
        <ele>2416.2680664062</ele>
        <time>2020-07-19T10:06:04Z</time>
      </trkpt>
      <trkpt lat="45.21235" lon="6.18132">
        <ele>2421.66796875</ele>
        <time>2020-07-19T10:06:13Z</time>
      </trkpt>
      <trkpt lat="45.21235" lon="6.18122">
        <ele>2425.2680664062</ele>
        <time>2020-07-19T10:06:21Z</time>
      </trkpt>
      <trkpt lat="45.21228" lon="6.18117">
        <ele>2426.4680175781</ele>
        <time>2020-07-19T10:06:30Z</time>
      </trkpt>
      <trkpt lat="45.21222" lon="6.18123">
        <ele>2428.5681152344</ele>
        <time>2020-07-19T10:06:36Z</time>
      </trkpt>
      <trkpt lat="45.21219" lon="6.18131">
        <ele>2431.4680175781</ele>
        <time>2020-07-19T10:06:45Z</time>
      </trkpt>
      <trkpt lat="45.21215" lon="6.18139">
        <ele>2432.8679199219</ele>
        <time>2020-07-19T10:06:53Z</time>
      </trkpt>
      <trkpt lat="45.2121" lon="6.18146">
        <ele>2434.66796875</ele>
        <time>2020-07-19T10:07:01Z</time>
      </trkpt>
      <trkpt lat="45.21205" lon="6.18152">
        <ele>2435.3679199219</ele>
        <time>2020-07-19T10:08:29Z</time>
      </trkpt>
      <trkpt lat="45.21201" lon="6.18143">
        <ele>2435.3679199219</ele>
        <time>2020-07-19T10:08:45Z</time>
      </trkpt>
      <trkpt lat="45.21196" lon="6.18136">
        <ele>2436.5681152344</ele>
        <time>2020-07-19T10:08:58Z</time>
      </trkpt>
      <trkpt lat="45.21195" lon="6.18126">
        <ele>2438.4680175781</ele>
        <time>2020-07-19T10:09:05Z</time>
      </trkpt>
      <trkpt lat="45.21192" lon="6.18117">
        <ele>2440.5681152344</ele>
        <time>2020-07-19T10:09:11Z</time>
      </trkpt>
      <trkpt lat="45.21191" lon="6.18107">
        <ele>2443.7680664062</ele>
        <time>2020-07-19T10:09:19Z</time>
      </trkpt>
      <trkpt lat="45.21191" lon="6.18096">
        <ele>2444.8679199219</ele>
        <time>2020-07-19T10:09:25Z</time>
      </trkpt>
      <trkpt lat="45.2119" lon="6.18086">
        <ele>2447.2680664062</ele>
        <time>2020-07-19T10:09:33Z</time>
      </trkpt>
      <trkpt lat="45.21191" lon="6.18077">
        <ele>2448.66796875</ele>
        <time>2020-07-19T10:09:39Z</time>
      </trkpt>
      <trkpt lat="45.21191" lon="6.18067">
        <ele>2448.66796875</ele>
        <time>2020-07-19T10:10:01Z</time>
      </trkpt>
      <trkpt lat="45.21192" lon="6.18058">
        <ele>2448.2680664062</ele>
        <time>2020-07-19T10:10:14Z</time>
      </trkpt>
      <trkpt lat="45.21189" lon="6.18049">
        <ele>2448.0681152344</ele>
        <time>2020-07-19T10:10:29Z</time>
      </trkpt>
      <trkpt lat="45.21192" lon="6.1804">
        <ele>2448.4680175781</ele>
        <time>2020-07-19T10:10:40Z</time>
      </trkpt>
      <trkpt lat="45.21197" lon="6.18033">
        <ele>2449.16796875</ele>
        <time>2020-07-19T10:10:55Z</time>
      </trkpt>
      <trkpt lat="45.21194" lon="6.18024">
        <ele>2449.66796875</ele>
        <time>2020-07-19T10:11:05Z</time>
      </trkpt>
      <trkpt lat="45.21195" lon="6.18034">
        <ele>2449.4680175781</ele>
        <time>2020-07-19T10:11:28Z</time>
      </trkpt>
      <trkpt lat="45.21199" lon="6.18042">
        <ele>2448.3679199219</ele>
        <time>2020-07-19T10:12:08Z</time>
      </trkpt>
      <trkpt lat="45.21201" lon="6.18051">
        <ele>2446.0681152344</ele>
        <time>2020-07-19T10:12:22Z</time>
      </trkpt>
      <trkpt lat="45.21199" lon="6.18042">
        <ele>2444.4680175781</ele>
        <time>2020-07-19T10:13:12Z</time>
      </trkpt>
      <trkpt lat="45.21199" lon="6.18032">
        <ele>2445.7680664062</ele>
        <time>2020-07-19T10:13:26Z</time>
      </trkpt>
      <trkpt lat="45.21197" lon="6.18022">
        <ele>2445.9680175781</ele>
        <time>2020-07-19T10:13:36Z</time>
      </trkpt>
      <trkpt lat="45.21198" lon="6.18013">
        <ele>2449.4680175781</ele>
        <time>2020-07-19T10:14:02Z</time>
      </trkpt>
      <trkpt lat="45.21202" lon="6.18005">
        <ele>2450.16796875</ele>
        <time>2020-07-19T10:14:08Z</time>
      </trkpt>
      <trkpt lat="45.21208" lon="6.18">
        <ele>2453.16796875</ele>
        <time>2020-07-19T10:14:17Z</time>
      </trkpt>
      <trkpt lat="45.21212" lon="6.17992">
        <ele>2455.5681152344</ele>
        <time>2020-07-19T10:14:25Z</time>
      </trkpt>
      <trkpt lat="45.21215" lon="6.17984">
        <ele>2457.9680175781</ele>
        <time>2020-07-19T10:14:33Z</time>
      </trkpt>
      <trkpt lat="45.21218" lon="6.17976">
        <ele>2460.6669921875</ele>
        <time>2020-07-19T10:14:40Z</time>
      </trkpt>
      <trkpt lat="45.21219" lon="6.17967">
        <ele>2461.5668945312</ele>
        <time>2020-07-19T10:14:46Z</time>
      </trkpt>
      <trkpt lat="45.21216" lon="6.17958">
        <ele>2461.3669433594</ele>
        <time>2020-07-19T10:14:52Z</time>
      </trkpt>
      <trkpt lat="45.21212" lon="6.1795">
        <ele>2462.1669921875</ele>
        <time>2020-07-19T10:14:59Z</time>
      </trkpt>
      <trkpt lat="45.2121" lon="6.17941">
        <ele>2461.3669433594</ele>
        <time>2020-07-19T10:15:06Z</time>
      </trkpt>
      <trkpt lat="45.21204" lon="6.17935">
        <ele>2460.6669921875</ele>
        <time>2020-07-19T10:15:14Z</time>
      </trkpt>
      <trkpt lat="45.21198" lon="6.17931">
        <ele>2458.7670898438</ele>
        <time>2020-07-19T10:15:21Z</time>
      </trkpt>
      <trkpt lat="45.21191" lon="6.1793">
        <ele>2458.0668945312</ele>
        <time>2020-07-19T10:15:28Z</time>
      </trkpt>
      <trkpt lat="45.21184" lon="6.1793">
        <ele>2458.1669921875</ele>
        <time>2020-07-19T10:15:34Z</time>
      </trkpt>
      <trkpt lat="45.21177" lon="6.17929">
        <ele>2458.0668945312</ele>
        <time>2020-07-19T10:15:41Z</time>
      </trkpt>
      <trkpt lat="45.21169" lon="6.17933">
        <ele>2458.6669921875</ele>
        <time>2020-07-19T10:15:46Z</time>
      </trkpt>
      <trkpt lat="45.21162" lon="6.17932">
        <ele>2460.3669433594</ele>
        <time>2020-07-19T10:15:51Z</time>
      </trkpt>
      <trkpt lat="45.21152" lon="6.17929">
        <ele>2460.7670898438</ele>
        <time>2020-07-19T10:15:56Z</time>
      </trkpt>
      <trkpt lat="45.21138" lon="6.17918">
        <ele>2461.7670898438</ele>
        <time>2020-07-19T10:16:01Z</time>
      </trkpt>
      <trkpt lat="45.21122" lon="6.17906">
        <ele>2461.2670898438</ele>
        <time>2020-07-19T10:16:06Z</time>
      </trkpt>
      <trkpt lat="45.21106" lon="6.17899">
        <ele>2459.8669433594</ele>
        <time>2020-07-19T10:16:11Z</time>
      </trkpt>
      <trkpt lat="45.2109" lon="6.17895">
        <ele>2460.8669433594</ele>
        <time>2020-07-19T10:16:16Z</time>
      </trkpt>
      <trkpt lat="45.21078" lon="6.17892">
        <ele>2459.5668945312</ele>
        <time>2020-07-19T10:16:21Z</time>
      </trkpt>
      <trkpt lat="45.21067" lon="6.17888">
        <ele>2456.8669433594</ele>
        <time>2020-07-19T10:16:26Z</time>
      </trkpt>
      <trkpt lat="45.21054" lon="6.17877">
        <ele>2456.4670410156</ele>
        <time>2020-07-19T10:16:31Z</time>
      </trkpt>
      <trkpt lat="45.21037" lon="6.17868">
        <ele>2456.8669433594</ele>
        <time>2020-07-19T10:16:36Z</time>
      </trkpt>
      <trkpt lat="45.21021" lon="6.17864">
        <ele>2456.7670898438</ele>
        <time>2020-07-19T10:16:41Z</time>
      </trkpt>
      <trkpt lat="45.21014" lon="6.17859">
        <ele>2458.8669433594</ele>
        <time>2020-07-19T10:17:22Z</time>
      </trkpt>
      <trkpt lat="45.21005" lon="6.17862">
        <ele>2458.3669433594</ele>
        <time>2020-07-19T10:17:27Z</time>
      </trkpt>
      <trkpt lat="45.20998" lon="6.17867">
        <ele>2458.8669433594</ele>
        <time>2020-07-19T10:17:36Z</time>
      </trkpt>
      <trkpt lat="45.20991" lon="6.17867">
        <ele>2464.3669433594</ele>
        <time>2020-07-19T10:20:27Z</time>
      </trkpt>
      <trkpt lat="45.20975" lon="6.17868">
        <ele>2462.2670898438</ele>
        <time>2020-07-19T10:20:32Z</time>
      </trkpt>
      <trkpt lat="45.20956" lon="6.17865">
        <ele>2458.9670410156</ele>
        <time>2020-07-19T10:20:37Z</time>
      </trkpt>
      <trkpt lat="45.20933" lon="6.17863">
        <ele>2457.3669433594</ele>
        <time>2020-07-19T10:20:42Z</time>
      </trkpt>
      <trkpt lat="45.20907" lon="6.17862">
        <ele>2451.9670410156</ele>
        <time>2020-07-19T10:20:47Z</time>
      </trkpt>
      <trkpt lat="45.20875" lon="6.17863">
        <ele>2452.0668945312</ele>
        <time>2020-07-19T10:20:52Z</time>
      </trkpt>
      <trkpt lat="45.20837" lon="6.17864">
        <ele>2448.1669921875</ele>
        <time>2020-07-19T10:20:57Z</time>
      </trkpt>
      <trkpt lat="45.20799" lon="6.17879">
        <ele>2445.2670898438</ele>
        <time>2020-07-19T10:21:02Z</time>
      </trkpt>
      <trkpt lat="45.2076" lon="6.17886">
        <ele>2441.9660644531</ele>
        <time>2020-07-19T10:21:07Z</time>
      </trkpt>
      <trkpt lat="45.20721" lon="6.17875">
        <ele>2439.666015625</ele>
        <time>2020-07-19T10:21:12Z</time>
      </trkpt>
      <trkpt lat="45.2068" lon="6.17861">
        <ele>2438.8659667969</ele>
        <time>2020-07-19T10:21:17Z</time>
      </trkpt>
      <trkpt lat="45.2064" lon="6.17839">
        <ele>2437.8659667969</ele>
        <time>2020-07-19T10:21:22Z</time>
      </trkpt>
      <trkpt lat="45.20612" lon="6.17828">
        <ele>2437.4660644531</ele>
        <time>2020-07-19T10:21:27Z</time>
      </trkpt>
      <trkpt lat="45.2059" lon="6.17817">
        <ele>2435.8659667969</ele>
        <time>2020-07-19T10:21:32Z</time>
      </trkpt>
      <trkpt lat="45.20558" lon="6.17808">
        <ele>2433.166015625</ele>
        <time>2020-07-19T10:21:37Z</time>
      </trkpt>
      <trkpt lat="45.20536" lon="6.17795">
        <ele>2431.7661132812</ele>
        <time>2020-07-19T10:21:42Z</time>
      </trkpt>
      <trkpt lat="45.20527" lon="6.17792">
        <ele>2431.166015625</ele>
        <time>2020-07-19T10:21:47Z</time>
      </trkpt>
      <trkpt lat="45.20521" lon="6.17789">
        <ele>2431.0659179688</ele>
        <time>2020-07-19T10:22:39Z</time>
      </trkpt>
      <trkpt lat="45.20496" lon="6.17795">
        <ele>2429.4660644531</ele>
        <time>2020-07-19T10:22:44Z</time>
      </trkpt>
      <trkpt lat="45.20468" lon="6.17807">
        <ele>2425.2661132812</ele>
        <time>2020-07-19T10:22:49Z</time>
      </trkpt>
      <trkpt lat="45.20444" lon="6.17795">
        <ele>2423.8659667969</ele>
        <time>2020-07-19T10:22:54Z</time>
      </trkpt>
      <trkpt lat="45.20437" lon="6.17794">
        <ele>2420.666015625</ele>
        <time>2020-07-19T10:24:30Z</time>
      </trkpt>
      <trkpt lat="45.2043" lon="6.17795">
        <ele>2420.4660644531</ele>
        <time>2020-07-19T10:24:39Z</time>
      </trkpt>
      <trkpt lat="45.20421" lon="6.17796">
        <ele>2420.3659667969</ele>
        <time>2020-07-19T10:24:44Z</time>
      </trkpt>
      <trkpt lat="45.20405" lon="6.17804">
        <ele>2419.666015625</ele>
        <time>2020-07-19T10:24:49Z</time>
      </trkpt>
      <trkpt lat="45.20398" lon="6.17804">
        <ele>2417.666015625</ele>
        <time>2020-07-19T10:24:54Z</time>
      </trkpt>
      <trkpt lat="45.20378" lon="6.17805">
        <ele>2415.2661132812</ele>
        <time>2020-07-19T10:24:59Z</time>
      </trkpt>
      <trkpt lat="45.20359" lon="6.1781">
        <ele>2414.4660644531</ele>
        <time>2020-07-19T10:25:04Z</time>
      </trkpt>
      <trkpt lat="45.20346" lon="6.17808">
        <ele>2414.9660644531</ele>
        <time>2020-07-19T10:25:09Z</time>
      </trkpt>
      <trkpt lat="45.20334" lon="6.17806">
        <ele>2413.8659667969</ele>
        <time>2020-07-19T10:25:14Z</time>
      </trkpt>
      <trkpt lat="45.20319" lon="6.17803">
        <ele>2412.8659667969</ele>
        <time>2020-07-19T10:25:19Z</time>
      </trkpt>
      <trkpt lat="45.20305" lon="6.17797">
        <ele>2411.2648925781</ele>
        <time>2020-07-19T10:25:24Z</time>
      </trkpt>
      <trkpt lat="45.20292" lon="6.17796">
        <ele>2410.7648925781</ele>
        <time>2020-07-19T10:25:29Z</time>
      </trkpt>
      <trkpt lat="45.2028" lon="6.17795">
        <ele>2410.3649902344</ele>
        <time>2020-07-19T10:25:34Z</time>
      </trkpt>
      <trkpt lat="45.20267" lon="6.17795">
        <ele>2409.7648925781</ele>
        <time>2020-07-19T10:25:39Z</time>
      </trkpt>
      <trkpt lat="45.20251" lon="6.178">
        <ele>2408.6650390625</ele>
        <time>2020-07-19T10:25:44Z</time>
      </trkpt>
      <trkpt lat="45.20245" lon="6.17802">
        <ele>2407.9650878906</ele>
        <time>2020-07-19T10:25:51Z</time>
      </trkpt>
      <trkpt lat="45.20238" lon="6.17804">
        <ele>2406.3649902344</ele>
        <time>2020-07-19T10:25:58Z</time>
      </trkpt>
      <trkpt lat="45.2023" lon="6.17808">
        <ele>2405.8649902344</ele>
        <time>2020-07-19T10:26:06Z</time>
      </trkpt>
      <trkpt lat="45.2022" lon="6.17816">
        <ele>2405.1650390625</ele>
        <time>2020-07-19T10:26:11Z</time>
      </trkpt>
      <trkpt lat="45.20215" lon="6.17822">
        <ele>2402.9650878906</ele>
        <time>2020-07-19T10:26:20Z</time>
      </trkpt>
      <trkpt lat="45.2021" lon="6.17828">
        <ele>2400.9650878906</ele>
        <time>2020-07-19T10:26:44Z</time>
      </trkpt>
      <trkpt lat="45.20202" lon="6.1783">
        <ele>2400.4650878906</ele>
        <time>2020-07-19T10:26:50Z</time>
      </trkpt>
      <trkpt lat="45.20195" lon="6.1783">
        <ele>2398.5649414062</ele>
        <time>2020-07-19T10:26:55Z</time>
      </trkpt>
      <trkpt lat="45.20187" lon="6.17833">
        <ele>2396.9650878906</ele>
        <time>2020-07-19T10:27:00Z</time>
      </trkpt>
      <trkpt lat="45.20179" lon="6.17832">
        <ele>2396.1650390625</ele>
        <time>2020-07-19T10:27:06Z</time>
      </trkpt>
      <trkpt lat="45.20173" lon="6.17833">
        <ele>2401.3649902344</ele>
        <time>2020-07-19T10:27:49Z</time>
      </trkpt>
      <trkpt lat="45.20166" lon="6.17833">
        <ele>2400.5649414062</ele>
        <time>2020-07-19T10:28:18Z</time>
      </trkpt>
      <trkpt lat="45.20159" lon="6.17834">
        <ele>2400.2648925781</ele>
        <time>2020-07-19T10:28:23Z</time>
      </trkpt>
      <trkpt lat="45.20153" lon="6.17837">
        <ele>2399.4650878906</ele>
        <time>2020-07-19T10:28:33Z</time>
      </trkpt>
      <trkpt lat="45.20145" lon="6.17837">
        <ele>2398.9650878906</ele>
        <time>2020-07-19T10:28:40Z</time>
      </trkpt>
      <trkpt lat="45.2014" lon="6.17844">
        <ele>2399.1650390625</ele>
        <time>2020-07-19T10:28:45Z</time>
      </trkpt>
      <trkpt lat="45.20133" lon="6.17845">
        <ele>2399.0649414062</ele>
        <time>2020-07-19T10:28:53Z</time>
      </trkpt>
      <trkpt lat="45.20126" lon="6.17848">
        <ele>2399.4650878906</ele>
        <time>2020-07-19T10:28:59Z</time>
      </trkpt>
      <trkpt lat="45.20127" lon="6.17857">
        <ele>2403.7648925781</ele>
        <time>2020-07-19T10:29:43Z</time>
      </trkpt>
      <trkpt lat="45.20133" lon="6.17854">
        <ele>2402.9650878906</ele>
        <time>2020-07-19T10:29:52Z</time>
      </trkpt>
      <trkpt lat="45.20141" lon="6.17855">
        <ele>2401.3649902344</ele>
        <time>2020-07-19T10:30:01Z</time>
      </trkpt>
      <trkpt lat="45.20148" lon="6.17852">
        <ele>2399.7648925781</ele>
        <time>2020-07-19T10:30:09Z</time>
      </trkpt>
      <trkpt lat="45.20154" lon="6.17847">
        <ele>2399.2648925781</ele>
        <time>2020-07-19T10:30:15Z</time>
      </trkpt>
      <trkpt lat="45.20161" lon="6.17844">
        <ele>2398.3649902344</ele>
        <time>2020-07-19T10:30:23Z</time>
      </trkpt>
      <trkpt lat="45.20168" lon="6.17839">
        <ele>2397.8649902344</ele>
        <time>2020-07-19T10:30:29Z</time>
      </trkpt>
      <trkpt lat="45.20172" lon="6.17832">
        <ele>2397.7648925781</ele>
        <time>2020-07-19T10:30:38Z</time>
      </trkpt>
      <trkpt lat="45.20165" lon="6.17829">
        <ele>2397.1650390625</ele>
        <time>2020-07-19T10:30:54Z</time>
      </trkpt>
      <trkpt lat="45.20159" lon="6.17831">
        <ele>2395.6650390625</ele>
        <time>2020-07-19T10:31:04Z</time>
      </trkpt>
      <trkpt lat="45.20151" lon="6.17833">
        <ele>2394.7648925781</ele>
        <time>2020-07-19T10:31:13Z</time>
      </trkpt>
      <trkpt lat="45.20146" lon="6.17839">
        <ele>2394.1650390625</ele>
        <time>2020-07-19T10:31:23Z</time>
      </trkpt>
      <trkpt lat="45.20139" lon="6.17837">
        <ele>2394.1650390625</ele>
        <time>2020-07-19T10:31:29Z</time>
      </trkpt>
      <trkpt lat="45.20132" lon="6.17841">
        <ele>2394.3649902344</ele>
        <time>2020-07-19T10:31:34Z</time>
      </trkpt>
      <trkpt lat="45.20126" lon="6.17845">
        <ele>2395.1650390625</ele>
        <time>2020-07-19T10:31:42Z</time>
      </trkpt>
      <trkpt lat="45.20118" lon="6.17845">
        <ele>2395.6650390625</ele>
        <time>2020-07-19T10:31:48Z</time>
      </trkpt>
      <trkpt lat="45.2011" lon="6.17848">
        <ele>2396.1650390625</ele>
        <time>2020-07-19T10:31:53Z</time>
      </trkpt>
      <trkpt lat="45.20103" lon="6.17851">
        <ele>2396.7648925781</ele>
        <time>2020-07-19T10:31:58Z</time>
      </trkpt>
      <trkpt lat="45.20095" lon="6.1785">
        <ele>2398.0649414062</ele>
        <time>2020-07-19T10:32:03Z</time>
      </trkpt>
      <trkpt lat="45.20086" lon="6.1785">
        <ele>2398.9650878906</ele>
        <time>2020-07-19T10:32:08Z</time>
      </trkpt>
      <trkpt lat="45.20076" lon="6.17847">
        <ele>2399.3649902344</ele>
        <time>2020-07-19T10:32:13Z</time>
      </trkpt>
      <trkpt lat="45.20065" lon="6.17845">
        <ele>2399.8649902344</ele>
        <time>2020-07-19T10:32:18Z</time>
      </trkpt>
      <trkpt lat="45.20056" lon="6.17843">
        <ele>2400.5649414062</ele>
        <time>2020-07-19T10:32:23Z</time>
      </trkpt>
      <trkpt lat="45.20047" lon="6.17841">
        <ele>2401.2648925781</ele>
        <time>2020-07-19T10:32:28Z</time>
      </trkpt>
      <trkpt lat="45.20034" lon="6.17841">
        <ele>2401.5649414062</ele>
        <time>2020-07-19T10:32:33Z</time>
      </trkpt>
      <trkpt lat="45.20024" lon="6.17841">
        <ele>2401.9650878906</ele>
        <time>2020-07-19T10:32:38Z</time>
      </trkpt>
      <trkpt lat="45.20011" lon="6.17836">
        <ele>2402.4650878906</ele>
        <time>2020-07-19T10:32:43Z</time>
      </trkpt>
      <trkpt lat="45.19996" lon="6.17831">
        <ele>2403.1650390625</ele>
        <time>2020-07-19T10:32:48Z</time>
      </trkpt>
      <trkpt lat="45.19987" lon="6.17827">
        <ele>2404.5649414062</ele>
        <time>2020-07-19T10:32:53Z</time>
      </trkpt>
      <trkpt lat="45.1998" lon="6.17828">
        <ele>2404.6650390625</ele>
        <time>2020-07-19T10:33:00Z</time>
      </trkpt>
      <trkpt lat="45.19973" lon="6.17829">
        <ele>2404.0649414062</ele>
        <time>2020-07-19T10:33:06Z</time>
      </trkpt>
      <trkpt lat="45.19965" lon="6.17827">
        <ele>2404.0649414062</ele>
        <time>2020-07-19T10:33:11Z</time>
      </trkpt>
      <trkpt lat="45.19956" lon="6.17823">
        <ele>2403.8649902344</ele>
        <time>2020-07-19T10:33:16Z</time>
      </trkpt>
      <trkpt lat="45.19947" lon="6.17819">
        <ele>2403.4650878906</ele>
        <time>2020-07-19T10:33:21Z</time>
      </trkpt>
      <trkpt lat="45.19939" lon="6.17819">
        <ele>2403.6650390625</ele>
        <time>2020-07-19T10:33:26Z</time>
      </trkpt>
      <trkpt lat="45.19932" lon="6.17816">
        <ele>2403.5649414062</ele>
        <time>2020-07-19T10:33:31Z</time>
      </trkpt>
      <trkpt lat="45.19924" lon="6.17811">
        <ele>2405.3649902344</ele>
        <time>2020-07-19T10:33:36Z</time>
      </trkpt>
      <trkpt lat="45.19916" lon="6.17807">
        <ele>2406.3649902344</ele>
        <time>2020-07-19T10:33:41Z</time>
      </trkpt>
      <trkpt lat="45.1991" lon="6.17803">
        <ele>2407.9650878906</ele>
        <time>2020-07-19T10:33:46Z</time>
      </trkpt>
      <trkpt lat="45.19904" lon="6.17799">
        <ele>2409.2648925781</ele>
        <time>2020-07-19T10:33:51Z</time>
      </trkpt>
      <trkpt lat="45.19897" lon="6.17794">
        <ele>2410.2648925781</ele>
        <time>2020-07-19T10:33:56Z</time>
      </trkpt>
      <trkpt lat="45.19891" lon="6.1779">
        <ele>2412.9650878906</ele>
        <time>2020-07-19T10:34:01Z</time>
      </trkpt>
      <trkpt lat="45.19883" lon="6.17785">
        <ele>2413.8649902344</ele>
        <time>2020-07-19T10:34:06Z</time>
      </trkpt>
      <trkpt lat="45.19869" lon="6.17773">
        <ele>2414.0649414062</ele>
        <time>2020-07-19T10:34:11Z</time>
      </trkpt>
      <trkpt lat="45.19852" lon="6.17754">
        <ele>2414.1650390625</ele>
        <time>2020-07-19T10:34:16Z</time>
      </trkpt>
      <trkpt lat="45.19837" lon="6.17737">
        <ele>2413.5649414062</ele>
        <time>2020-07-19T10:34:21Z</time>
      </trkpt>
      <trkpt lat="45.19826" lon="6.17722">
        <ele>2412.4641113281</ele>
        <time>2020-07-19T10:34:26Z</time>
      </trkpt>
      <trkpt lat="45.19813" lon="6.17702">
        <ele>2413.1640625</ele>
        <time>2020-07-19T10:34:31Z</time>
      </trkpt>
      <trkpt lat="45.19807" lon="6.17694">
        <ele>2414.4641113281</ele>
        <time>2020-07-19T10:34:36Z</time>
      </trkpt>
      <trkpt lat="45.19802" lon="6.17687">
        <ele>2413.7639160156</ele>
        <time>2020-07-19T10:34:41Z</time>
      </trkpt>
      <trkpt lat="45.19792" lon="6.17671">
        <ele>2411.1640625</ele>
        <time>2020-07-19T10:34:46Z</time>
      </trkpt>
      <trkpt lat="45.19781" lon="6.17661">
        <ele>2410.8640136719</ele>
        <time>2020-07-19T10:34:51Z</time>
      </trkpt>
      <trkpt lat="45.19773" lon="6.17649">
        <ele>2409.2639160156</ele>
        <time>2020-07-19T10:34:56Z</time>
      </trkpt>
      <trkpt lat="45.19762" lon="6.17634">
        <ele>2409.3640136719</ele>
        <time>2020-07-19T10:35:01Z</time>
      </trkpt>
      <trkpt lat="45.19754" lon="6.17621">
        <ele>2409.8640136719</ele>
        <time>2020-07-19T10:35:06Z</time>
      </trkpt>
      <trkpt lat="45.19744" lon="6.17606">
        <ele>2408.8640136719</ele>
        <time>2020-07-19T10:35:11Z</time>
      </trkpt>
      <trkpt lat="45.19734" lon="6.17594">
        <ele>2408.9641113281</ele>
        <time>2020-07-19T10:35:16Z</time>
      </trkpt>
      <trkpt lat="45.19725" lon="6.17583">
        <ele>2408.7639160156</ele>
        <time>2020-07-19T10:35:21Z</time>
      </trkpt>
      <trkpt lat="45.19716" lon="6.17573">
        <ele>2408.7639160156</ele>
        <time>2020-07-19T10:35:26Z</time>
      </trkpt>
      <trkpt lat="45.19707" lon="6.17565">
        <ele>2408.6640625</ele>
        <time>2020-07-19T10:35:31Z</time>
      </trkpt>
      <trkpt lat="45.19701" lon="6.17559">
        <ele>2409.8640136719</ele>
        <time>2020-07-19T10:35:36Z</time>
      </trkpt>
      <trkpt lat="45.19694" lon="6.17555">
        <ele>2410.8640136719</ele>
        <time>2020-07-19T10:35:41Z</time>
      </trkpt>
      <trkpt lat="45.19684" lon="6.17552">
        <ele>2410.1640625</ele>
        <time>2020-07-19T10:35:46Z</time>
      </trkpt>
      <trkpt lat="45.19677" lon="6.17546">
        <ele>2409.5639648438</ele>
        <time>2020-07-19T10:35:51Z</time>
      </trkpt>
      <trkpt lat="45.1967" lon="6.17542">
        <ele>2409.9641113281</ele>
        <time>2020-07-19T10:35:56Z</time>
      </trkpt>
      <trkpt lat="45.19664" lon="6.17539">
        <ele>2410.6640625</ele>
        <time>2020-07-19T10:36:01Z</time>
      </trkpt>
      <trkpt lat="45.19657" lon="6.17537">
        <ele>2411.7639160156</ele>
        <time>2020-07-19T10:36:15Z</time>
      </trkpt>
      <trkpt lat="45.19651" lon="6.17531">
        <ele>2412.4641113281</ele>
        <time>2020-07-19T10:36:25Z</time>
      </trkpt>
      <trkpt lat="45.19645" lon="6.17526">
        <ele>2413.0639648438</ele>
        <time>2020-07-19T10:36:36Z</time>
      </trkpt>
      <trkpt lat="45.19638" lon="6.17523">
        <ele>2413.5639648438</ele>
        <time>2020-07-19T10:36:41Z</time>
      </trkpt>
      <trkpt lat="45.19631" lon="6.1752">
        <ele>2414.1640625</ele>
        <time>2020-07-19T10:36:46Z</time>
      </trkpt>
      <trkpt lat="45.19622" lon="6.17516">
        <ele>2413.7639160156</ele>
        <time>2020-07-19T10:36:51Z</time>
      </trkpt>
      <trkpt lat="45.19615" lon="6.17516">
        <ele>2414.4641113281</ele>
        <time>2020-07-19T10:36:56Z</time>
      </trkpt>
      <trkpt lat="45.19607" lon="6.17517">
        <ele>2414.1640625</ele>
        <time>2020-07-19T10:37:01Z</time>
      </trkpt>
      <trkpt lat="45.196" lon="6.17515">
        <ele>2413.7639160156</ele>
        <time>2020-07-19T10:37:06Z</time>
      </trkpt>
      <trkpt lat="45.19594" lon="6.17516">
        <ele>2414.7639160156</ele>
        <time>2020-07-19T10:37:11Z</time>
      </trkpt>
      <trkpt lat="45.19586" lon="6.17521">
        <ele>2414.7639160156</ele>
        <time>2020-07-19T10:37:16Z</time>
      </trkpt>
      <trkpt lat="45.1958" lon="6.17522">
        <ele>2415.2639160156</ele>
        <time>2020-07-19T10:37:21Z</time>
      </trkpt>
      <trkpt lat="45.19571" lon="6.1752">
        <ele>2414.5639648438</ele>
        <time>2020-07-19T10:37:26Z</time>
      </trkpt>
      <trkpt lat="45.19565" lon="6.1752">
        <ele>2414.7639160156</ele>
        <time>2020-07-19T10:37:36Z</time>
      </trkpt>
      <trkpt lat="45.19558" lon="6.17522">
        <ele>2417.1640625</ele>
        <time>2020-07-19T10:38:04Z</time>
      </trkpt>
      <trkpt lat="45.19555" lon="6.17531">
        <ele>2418.6640625</ele>
        <time>2020-07-19T10:39:58Z</time>
      </trkpt>
      <trkpt lat="45.19553" lon="6.1754">
        <ele>2417.5639648438</ele>
        <time>2020-07-19T10:40:04Z</time>
      </trkpt>
      <trkpt lat="45.19546" lon="6.17544">
        <ele>2416.5639648438</ele>
        <time>2020-07-19T10:40:09Z</time>
      </trkpt>
      <trkpt lat="45.19551" lon="6.17537">
        <ele>2420.2639160156</ele>
        <time>2020-07-19T10:40:57Z</time>
      </trkpt>
      <trkpt lat="45.19554" lon="6.17528">
        <ele>2420.9641113281</ele>
        <time>2020-07-19T10:41:04Z</time>
      </trkpt>
      <trkpt lat="45.19553" lon="6.17537">
        <ele>2418.2639160156</ele>
        <time>2020-07-19T10:41:56Z</time>
      </trkpt>
      <trkpt lat="45.19549" lon="6.17545">
        <ele>2417.7639160156</ele>
        <time>2020-07-19T10:42:06Z</time>
      </trkpt>
      <trkpt lat="45.19546" lon="6.17554">
        <ele>2418.0639648438</ele>
        <time>2020-07-19T10:42:21Z</time>
      </trkpt>
      <trkpt lat="45.19551" lon="6.17548">
        <ele>2422.7639160156</ele>
        <time>2020-07-19T10:44:10Z</time>
      </trkpt>
      <trkpt lat="45.19556" lon="6.17539">
        <ele>2422.8640136719</ele>
        <time>2020-07-19T10:44:15Z</time>
      </trkpt>
      <trkpt lat="45.1956" lon="6.17531">
        <ele>2422.5639648438</ele>
        <time>2020-07-19T10:44:23Z</time>
      </trkpt>
      <trkpt lat="45.19555" lon="6.17537">
        <ele>2420.1640625</ele>
        <time>2020-07-19T10:44:38Z</time>
      </trkpt>
      <trkpt lat="45.1955" lon="6.17546">
        <ele>2418.1640625</ele>
        <time>2020-07-19T10:44:43Z</time>
      </trkpt>
      <trkpt lat="45.19544" lon="6.17553">
        <ele>2417.4641113281</ele>
        <time>2020-07-19T10:44:48Z</time>
      </trkpt>
      <trkpt lat="45.1954" lon="6.17561">
        <ele>2416.1640625</ele>
        <time>2020-07-19T10:44:54Z</time>
      </trkpt>
      <trkpt lat="45.19536" lon="6.17573">
        <ele>2415.4641113281</ele>
        <time>2020-07-19T10:44:59Z</time>
      </trkpt>
      <trkpt lat="45.1953" lon="6.17588">
        <ele>2414.7639160156</ele>
        <time>2020-07-19T10:45:04Z</time>
      </trkpt>
      <trkpt lat="45.19527" lon="6.176">
        <ele>2416.4641113281</ele>
        <time>2020-07-19T10:45:09Z</time>
      </trkpt>
      <trkpt lat="45.19522" lon="6.17609">
        <ele>2415.8640136719</ele>
        <time>2020-07-19T10:45:31Z</time>
      </trkpt>
      <trkpt lat="45.19513" lon="6.17634">
        <ele>2416.6640625</ele>
        <time>2020-07-19T10:45:36Z</time>
      </trkpt>
      <trkpt lat="45.19508" lon="6.17656">
        <ele>2417.3640136719</ele>
        <time>2020-07-19T10:45:41Z</time>
      </trkpt>
      <trkpt lat="45.195" lon="6.17679">
        <ele>2419.3640136719</ele>
        <time>2020-07-19T10:45:46Z</time>
      </trkpt>
      <trkpt lat="45.19488" lon="6.17701">
        <ele>2419.2639160156</ele>
        <time>2020-07-19T10:45:51Z</time>
      </trkpt>
      <trkpt lat="45.19478" lon="6.17721">
        <ele>2419.0639648438</ele>
        <time>2020-07-19T10:45:56Z</time>
      </trkpt>
      <trkpt lat="45.19469" lon="6.17722">
        <ele>2417.6640625</ele>
        <time>2020-07-19T10:46:01Z</time>
      </trkpt>
      <trkpt lat="45.19461" lon="6.17713">
        <ele>2417.5639648438</ele>
        <time>2020-07-19T10:46:06Z</time>
      </trkpt>
      <trkpt lat="45.19453" lon="6.17704">
        <ele>2416.1640625</ele>
        <time>2020-07-19T10:46:11Z</time>
      </trkpt>
      <trkpt lat="45.19446" lon="6.17693">
        <ele>2417.3640136719</ele>
        <time>2020-07-19T10:46:16Z</time>
      </trkpt>
      <trkpt lat="45.19437" lon="6.17684">
        <ele>2419.0639648438</ele>
        <time>2020-07-19T10:46:21Z</time>
      </trkpt>
      <trkpt lat="45.19429" lon="6.17677">
        <ele>2419.6640625</ele>
        <time>2020-07-19T10:46:26Z</time>
      </trkpt>
      <trkpt lat="45.19422" lon="6.17668">
        <ele>2419.7639160156</ele>
        <time>2020-07-19T10:46:31Z</time>
      </trkpt>
      <trkpt lat="45.19415" lon="6.17661">
        <ele>2420.0639648438</ele>
        <time>2020-07-19T10:46:36Z</time>
      </trkpt>
      <trkpt lat="45.1941" lon="6.17654">
        <ele>2420.6640625</ele>
        <time>2020-07-19T10:46:43Z</time>
      </trkpt>
      <trkpt lat="45.19403" lon="6.1765">
        <ele>2421.8640136719</ele>
        <time>2020-07-19T10:46:49Z</time>
      </trkpt>
      <trkpt lat="45.19397" lon="6.17643">
        <ele>2424.2639160156</ele>
        <time>2020-07-19T10:46:56Z</time>
      </trkpt>
      <trkpt lat="45.19391" lon="6.17639">
        <ele>2425.5639648438</ele>
        <time>2020-07-19T10:47:01Z</time>
      </trkpt>
      <trkpt lat="45.19384" lon="6.17634">
        <ele>2426.2639160156</ele>
        <time>2020-07-19T10:47:06Z</time>
      </trkpt>
      <trkpt lat="45.19377" lon="6.1763">
        <ele>2426.5629882812</ele>
        <time>2020-07-19T10:47:11Z</time>
      </trkpt>
      <trkpt lat="45.19371" lon="6.17624">
        <ele>2426.0629882812</ele>
        <time>2020-07-19T10:47:16Z</time>
      </trkpt>
      <trkpt lat="45.19363" lon="6.1762">
        <ele>2427.6630859375</ele>
        <time>2020-07-19T10:47:21Z</time>
      </trkpt>
      <trkpt lat="45.19356" lon="6.17619">
        <ele>2428.0629882812</ele>
        <time>2020-07-19T10:47:35Z</time>
      </trkpt>
      <trkpt lat="45.19349" lon="6.17618">
        <ele>2428.462890625</ele>
        <time>2020-07-19T10:47:40Z</time>
      </trkpt>
      <trkpt lat="45.19342" lon="6.17615">
        <ele>2428.2629394531</ele>
        <time>2020-07-19T10:47:45Z</time>
      </trkpt>
      <trkpt lat="45.19334" lon="6.17618">
        <ele>2427.6630859375</ele>
        <time>2020-07-19T10:47:50Z</time>
      </trkpt>
      <trkpt lat="45.19327" lon="6.17621">
        <ele>2427.3630371094</ele>
        <time>2020-07-19T10:47:55Z</time>
      </trkpt>
      <trkpt lat="45.19318" lon="6.17625">
        <ele>2426.7629394531</ele>
        <time>2020-07-19T10:48:00Z</time>
      </trkpt>
      <trkpt lat="45.19309" lon="6.17627">
        <ele>2425.8630371094</ele>
        <time>2020-07-19T10:48:05Z</time>
      </trkpt>
      <trkpt lat="45.19301" lon="6.17625">
        <ele>2424.8630371094</ele>
        <time>2020-07-19T10:48:10Z</time>
      </trkpt>
      <trkpt lat="45.19293" lon="6.17629">
        <ele>2424.5629882812</ele>
        <time>2020-07-19T10:48:15Z</time>
      </trkpt>
      <trkpt lat="45.19288" lon="6.17635">
        <ele>2425.3630371094</ele>
        <time>2020-07-19T10:48:21Z</time>
      </trkpt>
      <trkpt lat="45.1928" lon="6.17637">
        <ele>2425.962890625</ele>
        <time>2020-07-19T10:48:26Z</time>
      </trkpt>
      <trkpt lat="45.19274" lon="6.17641">
        <ele>2426.0629882812</ele>
        <time>2020-07-19T10:48:38Z</time>
      </trkpt>
      <trkpt lat="45.19267" lon="6.17645">
        <ele>2426.2629394531</ele>
        <time>2020-07-19T10:48:43Z</time>
      </trkpt>
      <trkpt lat="45.1926" lon="6.17645">
        <ele>2426.962890625</ele>
        <time>2020-07-19T10:48:48Z</time>
      </trkpt>
      <trkpt lat="45.19253" lon="6.17646">
        <ele>2427.3630371094</ele>
        <time>2020-07-19T10:48:54Z</time>
      </trkpt>
      <trkpt lat="45.19247" lon="6.1765">
        <ele>2428.6630859375</ele>
        <time>2020-07-19T10:49:00Z</time>
      </trkpt>
      <trkpt lat="45.1924" lon="6.17654">
        <ele>2430.3630371094</ele>
        <time>2020-07-19T10:49:40Z</time>
      </trkpt>
      <trkpt lat="45.19231" lon="6.17655">
        <ele>2429.7629394531</ele>
        <time>2020-07-19T10:49:45Z</time>
      </trkpt>
      <trkpt lat="45.19223" lon="6.17656">
        <ele>2429.462890625</ele>
        <time>2020-07-19T10:49:50Z</time>
      </trkpt>
      <trkpt lat="45.19215" lon="6.17658">
        <ele>2430.6630859375</ele>
        <time>2020-07-19T10:49:56Z</time>
      </trkpt>
      <trkpt lat="45.19208" lon="6.17658">
        <ele>2432.5629882812</ele>
        <time>2020-07-19T10:50:08Z</time>
      </trkpt>
      <trkpt lat="45.19202" lon="6.17657">
        <ele>2432.6630859375</ele>
        <time>2020-07-19T10:50:15Z</time>
      </trkpt>
      <trkpt lat="45.19195" lon="6.17654">
        <ele>2433.0629882812</ele>
        <time>2020-07-19T10:50:24Z</time>
      </trkpt>
      <trkpt lat="45.19189" lon="6.17652">
        <ele>2433.2629394531</ele>
        <time>2020-07-19T10:50:34Z</time>
      </trkpt>
      <trkpt lat="45.19183" lon="6.17644">
        <ele>2433.5629882812</ele>
        <time>2020-07-19T10:50:43Z</time>
      </trkpt>
      <trkpt lat="45.19171" lon="6.17641">
        <ele>2433.6630859375</ele>
        <time>2020-07-19T10:50:48Z</time>
      </trkpt>
      <trkpt lat="45.19161" lon="6.17638">
        <ele>2434.3630371094</ele>
        <time>2020-07-19T10:50:53Z</time>
      </trkpt>
      <trkpt lat="45.19152" lon="6.17635">
        <ele>2433.5629882812</ele>
        <time>2020-07-19T10:50:58Z</time>
      </trkpt>
      <trkpt lat="45.19145" lon="6.1763">
        <ele>2434.7629394531</ele>
        <time>2020-07-19T10:51:03Z</time>
      </trkpt>
      <trkpt lat="45.19137" lon="6.17632">
        <ele>2434.962890625</ele>
        <time>2020-07-19T10:51:11Z</time>
      </trkpt>
      <trkpt lat="45.19128" lon="6.17632">
        <ele>2434.6630859375</ele>
        <time>2020-07-19T10:51:16Z</time>
      </trkpt>
      <trkpt lat="45.1912" lon="6.17631">
        <ele>2434.2629394531</ele>
        <time>2020-07-19T10:51:21Z</time>
      </trkpt>
      <trkpt lat="45.19114" lon="6.17628">
        <ele>2434.0629882812</ele>
        <time>2020-07-19T10:51:26Z</time>
      </trkpt>
      <trkpt lat="45.19107" lon="6.17627">
        <ele>2432.6630859375</ele>
        <time>2020-07-19T10:51:31Z</time>
      </trkpt>
      <trkpt lat="45.19101" lon="6.17621">
        <ele>2431.7629394531</ele>
        <time>2020-07-19T10:51:43Z</time>
      </trkpt>
      <trkpt lat="45.19095" lon="6.17616">
        <ele>2431.0629882812</ele>
        <time>2020-07-19T10:51:51Z</time>
      </trkpt>
      <trkpt lat="45.19089" lon="6.17609">
        <ele>2431.0629882812</ele>
        <time>2020-07-19T10:51:58Z</time>
      </trkpt>
      <trkpt lat="45.19082" lon="6.17601">
        <ele>2431.462890625</ele>
        <time>2020-07-19T10:52:03Z</time>
      </trkpt>
      <trkpt lat="45.19074" lon="6.17599">
        <ele>2431.0629882812</ele>
        <time>2020-07-19T10:52:08Z</time>
      </trkpt>
      <trkpt lat="45.19066" lon="6.1759">
        <ele>2433.0629882812</ele>
        <time>2020-07-19T10:52:13Z</time>
      </trkpt>
      <trkpt lat="45.19061" lon="6.17583">
        <ele>2433.6630859375</ele>
        <time>2020-07-19T10:52:18Z</time>
      </trkpt>
      <trkpt lat="45.19055" lon="6.17578">
        <ele>2434.8630371094</ele>
        <time>2020-07-19T10:52:37Z</time>
      </trkpt>
      <trkpt lat="45.19049" lon="6.17573">
        <ele>2436.5629882812</ele>
        <time>2020-07-19T10:53:36Z</time>
      </trkpt>
      <trkpt lat="45.19042" lon="6.17568">
        <ele>2436.962890625</ele>
        <time>2020-07-19T10:53:48Z</time>
      </trkpt>
      <trkpt lat="45.19036" lon="6.17563">
        <ele>2436.8630371094</ele>
        <time>2020-07-19T10:53:56Z</time>
      </trkpt>
      <trkpt lat="45.19031" lon="6.17559">
        <ele>2437.0629882812</ele>
        <time>2020-07-19T10:54:04Z</time>
      </trkpt>
      <trkpt lat="45.19025" lon="6.17564">
        <ele>2439.6630859375</ele>
        <time>2020-07-19T10:54:16Z</time>
      </trkpt>
      <trkpt lat="45.19031" lon="6.17563">
        <ele>2441.962890625</ele>
        <time>2020-07-19T10:55:07Z</time>
      </trkpt>
      <trkpt lat="45.19038" lon="6.17566">
        <ele>2441.5629882812</ele>
        <time>2020-07-19T10:55:13Z</time>
      </trkpt>
      <trkpt lat="45.19033" lon="6.1756">
        <ele>2439.8630371094</ele>
        <time>2020-07-19T10:55:32Z</time>
      </trkpt>
      <trkpt lat="45.19027" lon="6.17554">
        <ele>2439.3630371094</ele>
        <time>2020-07-19T10:55:37Z</time>
      </trkpt>
      <trkpt lat="45.19021" lon="6.17549">
        <ele>2439.462890625</ele>
        <time>2020-07-19T10:55:43Z</time>
      </trkpt>
      <trkpt lat="45.19013" lon="6.1755">
        <ele>2437.7629394531</ele>
        <time>2020-07-19T10:55:51Z</time>
      </trkpt>
      <trkpt lat="45.19007" lon="6.17549">
        <ele>2437.8630371094</ele>
        <time>2020-07-19T10:56:00Z</time>
      </trkpt>
      <trkpt lat="45.19003" lon="6.1754">
        <ele>2436.2629394531</ele>
        <time>2020-07-19T10:56:13Z</time>
      </trkpt>
      <trkpt lat="45.18997" lon="6.17533">
        <ele>2436.2629394531</ele>
        <time>2020-07-19T10:56:18Z</time>
      </trkpt>
      <trkpt lat="45.18992" lon="6.17523">
        <ele>2436.462890625</ele>
        <time>2020-07-19T10:56:23Z</time>
      </trkpt>
      <trkpt lat="45.18985" lon="6.17515">
        <ele>2436.962890625</ele>
        <time>2020-07-19T10:56:28Z</time>
      </trkpt>
      <trkpt lat="45.18979" lon="6.17509">
        <ele>2437.6630859375</ele>
        <time>2020-07-19T10:56:33Z</time>
      </trkpt>
      <trkpt lat="45.18973" lon="6.17503">
        <ele>2438.8630371094</ele>
        <time>2020-07-19T10:56:39Z</time>
      </trkpt>
      <trkpt lat="45.18966" lon="6.17497">
        <ele>2439.2629394531</ele>
        <time>2020-07-19T10:56:44Z</time>
      </trkpt>
      <trkpt lat="45.18959" lon="6.17491">
        <ele>2439.2619628906</ele>
        <time>2020-07-19T10:56:49Z</time>
      </trkpt>
      <trkpt lat="45.18952" lon="6.17486">
        <ele>2440.5620117188</ele>
        <time>2020-07-19T10:56:54Z</time>
      </trkpt>
      <trkpt lat="45.18945" lon="6.17482">
        <ele>2442.2619628906</ele>
        <time>2020-07-19T10:57:00Z</time>
      </trkpt>
      <trkpt lat="45.18941" lon="6.17475">
        <ele>2443.0620117188</ele>
        <time>2020-07-19T10:57:17Z</time>
      </trkpt>
      <trkpt lat="45.18934" lon="6.17472">
        <ele>2442.662109375</ele>
        <time>2020-07-19T10:57:24Z</time>
      </trkpt>
      <trkpt lat="45.18928" lon="6.17471">
        <ele>2442.4619140625</ele>
        <time>2020-07-19T10:57:32Z</time>
      </trkpt>
      <trkpt lat="45.18921" lon="6.17468">
        <ele>2443.7619628906</ele>
        <time>2020-07-19T10:57:44Z</time>
      </trkpt>
      <trkpt lat="45.18918" lon="6.17459">
        <ele>2444.0620117188</ele>
        <time>2020-07-19T10:57:58Z</time>
      </trkpt>
      <trkpt lat="45.18914" lon="6.17451">
        <ele>2446.8620605469</ele>
        <time>2020-07-19T10:58:20Z</time>
      </trkpt>
      <trkpt lat="45.18904" lon="6.17443">
        <ele>2447.0620117188</ele>
        <time>2020-07-19T10:58:25Z</time>
      </trkpt>
      <trkpt lat="45.18895" lon="6.17435">
        <ele>2445.0620117188</ele>
        <time>2020-07-19T10:58:30Z</time>
      </trkpt>
      <trkpt lat="45.1889" lon="6.17428">
        <ele>2444.0620117188</ele>
        <time>2020-07-19T10:58:37Z</time>
      </trkpt>
      <trkpt lat="45.18884" lon="6.17421">
        <ele>2442.5620117188</ele>
        <time>2020-07-19T10:58:42Z</time>
      </trkpt>
      <trkpt lat="45.18879" lon="6.17412">
        <ele>2441.0620117188</ele>
        <time>2020-07-19T10:58:48Z</time>
      </trkpt>
      <trkpt lat="45.18875" lon="6.17404">
        <ele>2441.162109375</ele>
        <time>2020-07-19T10:58:53Z</time>
      </trkpt>
      <trkpt lat="45.18876" lon="6.17389">
        <ele>2442.7619628906</ele>
        <time>2020-07-19T10:58:58Z</time>
      </trkpt>
      <trkpt lat="45.18874" lon="6.17373">
        <ele>2444.662109375</ele>
        <time>2020-07-19T10:59:03Z</time>
      </trkpt>
      <trkpt lat="45.18868" lon="6.17359">
        <ele>2445.7619628906</ele>
        <time>2020-07-19T10:59:08Z</time>
      </trkpt>
      <trkpt lat="45.1886" lon="6.1735">
        <ele>2447.5620117188</ele>
        <time>2020-07-19T10:59:13Z</time>
      </trkpt>
      <trkpt lat="45.18853" lon="6.1734">
        <ele>2447.8620605469</ele>
        <time>2020-07-19T10:59:18Z</time>
      </trkpt>
      <trkpt lat="45.18841" lon="6.17324">
        <ele>2448.7619628906</ele>
        <time>2020-07-19T10:59:23Z</time>
      </trkpt>
      <trkpt lat="45.18826" lon="6.17302">
        <ele>2447.4619140625</ele>
        <time>2020-07-19T10:59:28Z</time>
      </trkpt>
      <trkpt lat="45.18813" lon="6.17291">
        <ele>2446.0620117188</ele>
        <time>2020-07-19T10:59:33Z</time>
      </trkpt>
      <trkpt lat="45.18801" lon="6.17294">
        <ele>2444.9619140625</ele>
        <time>2020-07-19T10:59:38Z</time>
      </trkpt>
      <trkpt lat="45.18797" lon="6.17301">
        <ele>2444.5620117188</ele>
        <time>2020-07-19T10:59:46Z</time>
      </trkpt>
      <trkpt lat="45.18804" lon="6.17303">
        <ele>2447.0620117188</ele>
        <time>2020-07-19T10:59:53Z</time>
      </trkpt>
      <trkpt lat="45.18811" lon="6.17302">
        <ele>2446.7619628906</ele>
        <time>2020-07-19T11:00:01Z</time>
      </trkpt>
      <trkpt lat="45.18817" lon="6.17299">
        <ele>2446.8620605469</ele>
        <time>2020-07-19T11:00:07Z</time>
      </trkpt>
      <trkpt lat="45.18823" lon="6.17306">
        <ele>2446.662109375</ele>
        <time>2020-07-19T11:00:13Z</time>
      </trkpt>
      <trkpt lat="45.1883" lon="6.17309">
        <ele>2446.162109375</ele>
        <time>2020-07-19T11:00:26Z</time>
      </trkpt>
      <trkpt lat="45.1883" lon="6.17298">
        <ele>2444.162109375</ele>
        <time>2020-07-19T11:01:25Z</time>
      </trkpt>
      <trkpt lat="45.18825" lon="6.17292">
        <ele>2445.4619140625</ele>
        <time>2020-07-19T11:01:30Z</time>
      </trkpt>
      <trkpt lat="45.18818" lon="6.17288">
        <ele>2447.0620117188</ele>
        <time>2020-07-19T11:01:37Z</time>
      </trkpt>
      <trkpt lat="45.18811" lon="6.17286">
        <ele>2446.2619628906</ele>
        <time>2020-07-19T11:01:42Z</time>
      </trkpt>
      <trkpt lat="45.18805" lon="6.1729">
        <ele>2445.0620117188</ele>
        <time>2020-07-19T11:01:49Z</time>
      </trkpt>
      <trkpt lat="45.18798" lon="6.17294">
        <ele>2444.8620605469</ele>
        <time>2020-07-19T11:01:58Z</time>
      </trkpt>
      <trkpt lat="45.18792" lon="6.17299">
        <ele>2445.662109375</ele>
        <time>2020-07-19T11:02:07Z</time>
      </trkpt>
      <trkpt lat="45.18787" lon="6.17306">
        <ele>2446.0620117188</ele>
        <time>2020-07-19T11:02:16Z</time>
      </trkpt>
      <trkpt lat="45.1878" lon="6.17305">
        <ele>2448.4619140625</ele>
        <time>2020-07-19T11:05:30Z</time>
      </trkpt>
      <trkpt lat="45.18787" lon="6.17313">
        <ele>2450.4619140625</ele>
        <time>2020-07-19T11:07:16Z</time>
      </trkpt>
      <trkpt lat="45.18788" lon="6.17322">
        <ele>2453.4619140625</ele>
        <time>2020-07-19T11:34:21Z</time>
      </trkpt>
      <trkpt lat="45.18793" lon="6.17326">
        <ele>2450.4619140625</ele>
        <time>2020-07-19T11:34:50Z</time>
      </trkpt>
      <trkpt lat="45.18788" lon="6.1732">
        <ele>2450.4619140625</ele>
        <time>2020-07-19T11:35:23Z</time>
      </trkpt>
      <trkpt lat="45.18783" lon="6.17327">
        <ele>2454.662109375</ele>
        <time>2020-07-19T11:39:03Z</time>
      </trkpt>
      <trkpt lat="45.18777" lon="6.17331">
        <ele>2453.9619140625</ele>
        <time>2020-07-19T11:40:06Z</time>
      </trkpt>
      <trkpt lat="45.18777" lon="6.17341">
        <ele>2452.3620605469</ele>
        <time>2020-07-19T11:40:24Z</time>
      </trkpt>
      <trkpt lat="45.18775" lon="6.1735">
        <ele>2450.4619140625</ele>
        <time>2020-07-19T11:40:41Z</time>
      </trkpt>
      <trkpt lat="45.18775" lon="6.17359">
        <ele>2454.8620605469</ele>
        <time>2020-07-19T11:41:16Z</time>
      </trkpt>
      <trkpt lat="45.18768" lon="6.17361">
        <ele>2458.2619628906</ele>
        <time>2020-07-19T11:44:24Z</time>
      </trkpt>
      <trkpt lat="45.18764" lon="6.17368">
        <ele>2457.9619140625</ele>
        <time>2020-07-19T11:44:32Z</time>
      </trkpt>
      <trkpt lat="45.1876" lon="6.17376">
        <ele>2459.8620605469</ele>
        <time>2020-07-19T11:45:21Z</time>
      </trkpt>
      <trkpt lat="45.18762" lon="6.17385">
        <ele>2458.3620605469</ele>
        <time>2020-07-19T11:45:30Z</time>
      </trkpt>
      <trkpt lat="45.18767" lon="6.17392">
        <ele>2456.2619628906</ele>
        <time>2020-07-19T11:45:38Z</time>
      </trkpt>
      <trkpt lat="45.18775" lon="6.17393">
        <ele>2455.162109375</ele>
        <time>2020-07-19T11:45:45Z</time>
      </trkpt>
      <trkpt lat="45.18782" lon="6.17394">
        <ele>2455.662109375</ele>
        <time>2020-07-19T11:45:53Z</time>
      </trkpt>
      <trkpt lat="45.18787" lon="6.17388">
        <ele>2459.5620117188</ele>
        <time>2020-07-19T11:46:29Z</time>
      </trkpt>
      <trkpt lat="45.18787" lon="6.17397">
        <ele>2460.662109375</ele>
        <time>2020-07-19T11:48:15Z</time>
      </trkpt>
      <trkpt lat="45.18795" lon="6.17402">
        <ele>2462.662109375</ele>
        <time>2020-07-19T11:50:19Z</time>
      </trkpt>
      <trkpt lat="45.18796" lon="6.17393">
        <ele>2459.5620117188</ele>
        <time>2020-07-19T11:54:02Z</time>
      </trkpt>
      <trkpt lat="45.18797" lon="6.17384">
        <ele>2455.8620605469</ele>
        <time>2020-07-19T11:54:18Z</time>
      </trkpt>
      <trkpt lat="45.18791" lon="6.17378">
        <ele>2453.5620117188</ele>
        <time>2020-07-19T11:54:31Z</time>
      </trkpt>
      <trkpt lat="45.18787" lon="6.17371">
        <ele>2452.4619140625</ele>
        <time>2020-07-19T11:54:41Z</time>
      </trkpt>
      <trkpt lat="45.18781" lon="6.17366">
        <ele>2449.0620117188</ele>
        <time>2020-07-19T11:54:53Z</time>
      </trkpt>
      <trkpt lat="45.18778" lon="6.17358">
        <ele>2447.4619140625</ele>
        <time>2020-07-19T11:55:46Z</time>
      </trkpt>
      <trkpt lat="45.18774" lon="6.1735">
        <ele>2444.162109375</ele>
        <time>2020-07-19T11:55:55Z</time>
      </trkpt>
      <trkpt lat="45.18775" lon="6.1734">
        <ele>2440.662109375</ele>
        <time>2020-07-19T11:56:05Z</time>
      </trkpt>
      <trkpt lat="45.1878" lon="6.17332">
        <ele>2438.5620117188</ele>
        <time>2020-07-19T11:56:12Z</time>
      </trkpt>
      <trkpt lat="45.1878" lon="6.17319">
        <ele>2444.162109375</ele>
        <time>2020-07-19T12:07:40Z</time>
      </trkpt>
      <trkpt lat="45.18786" lon="6.17316">
        <ele>2444.9619140625</ele>
        <time>2020-07-19T12:08:15Z</time>
      </trkpt>
      <trkpt lat="45.18789" lon="6.17307">
        <ele>2443.2619628906</ele>
        <time>2020-07-19T12:12:01Z</time>
      </trkpt>
      <trkpt lat="45.18803" lon="6.17304">
        <ele>2442.0620117188</ele>
        <time>2020-07-19T12:12:06Z</time>
      </trkpt>
      <trkpt lat="45.18812" lon="6.17297">
        <ele>2441.4619140625</ele>
        <time>2020-07-19T12:12:11Z</time>
      </trkpt>
      <trkpt lat="45.1882" lon="6.17297">
        <ele>2440.8620605469</ele>
        <time>2020-07-19T12:12:16Z</time>
      </trkpt>
      <trkpt lat="45.18828" lon="6.17305">
        <ele>2441.3620605469</ele>
        <time>2020-07-19T12:12:21Z</time>
      </trkpt>
      <trkpt lat="45.18834" lon="6.17317">
        <ele>2441.7619628906</ele>
        <time>2020-07-19T12:12:26Z</time>
      </trkpt>
      <trkpt lat="45.18839" lon="6.17328">
        <ele>2442.4619140625</ele>
        <time>2020-07-19T12:12:31Z</time>
      </trkpt>
      <trkpt lat="45.18844" lon="6.17337">
        <ele>2444.2619628906</ele>
        <time>2020-07-19T12:12:36Z</time>
      </trkpt>
      <trkpt lat="45.18852" lon="6.17345">
        <ele>2444.2619628906</ele>
        <time>2020-07-19T12:12:41Z</time>
      </trkpt>
      <trkpt lat="45.18864" lon="6.17358">
        <ele>2444.8620605469</ele>
        <time>2020-07-19T12:12:46Z</time>
      </trkpt>
      <trkpt lat="45.18872" lon="6.17377">
        <ele>2445.5620117188</ele>
        <time>2020-07-19T12:12:51Z</time>
      </trkpt>
      <trkpt lat="45.18874" lon="6.17398">
        <ele>2445.3620605469</ele>
        <time>2020-07-19T12:12:56Z</time>
      </trkpt>
      <trkpt lat="45.18874" lon="6.17408">
        <ele>2445.7619628906</ele>
        <time>2020-07-19T12:13:07Z</time>
      </trkpt>
      <trkpt lat="45.18877" lon="6.1742">
        <ele>2445.162109375</ele>
        <time>2020-07-19T12:13:12Z</time>
      </trkpt>
      <trkpt lat="45.18884" lon="6.17428">
        <ele>2444.2619628906</ele>
        <time>2020-07-19T12:13:17Z</time>
      </trkpt>
      <trkpt lat="45.18891" lon="6.17433">
        <ele>2443.9619140625</ele>
        <time>2020-07-19T12:13:49Z</time>
      </trkpt>
      <trkpt lat="45.18896" lon="6.17439">
        <ele>2444.3620605469</ele>
        <time>2020-07-19T12:13:57Z</time>
      </trkpt>
      <trkpt lat="45.18902" lon="6.17443">
        <ele>2444.7619628906</ele>
        <time>2020-07-19T12:14:05Z</time>
      </trkpt>
      <trkpt lat="45.18908" lon="6.17449">
        <ele>2444.7619628906</ele>
        <time>2020-07-19T12:14:11Z</time>
      </trkpt>
      <trkpt lat="45.18912" lon="6.17456">
        <ele>2445.0620117188</ele>
        <time>2020-07-19T12:14:19Z</time>
      </trkpt>
      <trkpt lat="45.18914" lon="6.17466">
        <ele>2444.4619140625</ele>
        <time>2020-07-19T12:14:24Z</time>
      </trkpt>
      <trkpt lat="45.18923" lon="6.17473">
        <ele>2442.5620117188</ele>
        <time>2020-07-19T12:14:29Z</time>
      </trkpt>
      <trkpt lat="45.18936" lon="6.17479">
        <ele>2440.662109375</ele>
        <time>2020-07-19T12:14:34Z</time>
      </trkpt>
      <trkpt lat="45.1894" lon="6.17486">
        <ele>2440.2619628906</ele>
        <time>2020-07-19T12:14:43Z</time>
      </trkpt>
      <trkpt lat="45.18947" lon="6.17491">
        <ele>2440.7619628906</ele>
        <time>2020-07-19T12:14:48Z</time>
      </trkpt>
      <trkpt lat="45.1896" lon="6.17499">
        <ele>2440.2629394531</ele>
        <time>2020-07-19T12:14:53Z</time>
      </trkpt>
      <trkpt lat="45.18974" lon="6.1751">
        <ele>2439.8630371094</ele>
        <time>2020-07-19T12:14:58Z</time>
      </trkpt>
      <trkpt lat="45.18986" lon="6.17518">
        <ele>2438.962890625</ele>
        <time>2020-07-19T12:15:03Z</time>
      </trkpt>
      <trkpt lat="45.18995" lon="6.17533">
        <ele>2436.5629882812</ele>
        <time>2020-07-19T12:15:08Z</time>
      </trkpt>
      <trkpt lat="45.19001" lon="6.17541">
        <ele>2434.962890625</ele>
        <time>2020-07-19T12:15:14Z</time>
      </trkpt>
      <trkpt lat="45.19005" lon="6.17548">
        <ele>2433.5629882812</ele>
        <time>2020-07-19T12:15:22Z</time>
      </trkpt>
      <trkpt lat="45.19013" lon="6.1755">
        <ele>2432.7629394531</ele>
        <time>2020-07-19T12:15:28Z</time>
      </trkpt>
      <trkpt lat="45.1902" lon="6.17554">
        <ele>2432.2629394531</ele>
        <time>2020-07-19T12:15:41Z</time>
      </trkpt>
      <trkpt lat="45.19025" lon="6.1756">
        <ele>2431.2629394531</ele>
        <time>2020-07-19T12:15:47Z</time>
      </trkpt>
      <trkpt lat="45.19035" lon="6.1757">
        <ele>2430.5629882812</ele>
        <time>2020-07-19T12:15:52Z</time>
      </trkpt>
      <trkpt lat="45.19043" lon="6.17574">
        <ele>2431.3630371094</ele>
        <time>2020-07-19T12:15:57Z</time>
      </trkpt>
      <trkpt lat="45.19049" lon="6.17578">
        <ele>2432.962890625</ele>
        <time>2020-07-19T12:16:06Z</time>
      </trkpt>
      <trkpt lat="45.19055" lon="6.17587">
        <ele>2434.1630859375</ele>
        <time>2020-07-19T12:16:11Z</time>
      </trkpt>
      <trkpt lat="45.19061" lon="6.17594">
        <ele>2435.6630859375</ele>
        <time>2020-07-19T12:16:18Z</time>
      </trkpt>
      <trkpt lat="45.19069" lon="6.17601">
        <ele>2436.6630859375</ele>
        <time>2020-07-19T12:16:23Z</time>
      </trkpt>
      <trkpt lat="45.1908" lon="6.17605">
        <ele>2437.5629882812</ele>
        <time>2020-07-19T12:16:28Z</time>
      </trkpt>
      <trkpt lat="45.19089" lon="6.17615">
        <ele>2435.962890625</ele>
        <time>2020-07-19T12:16:33Z</time>
      </trkpt>
      <trkpt lat="45.19095" lon="6.17619">
        <ele>2434.962890625</ele>
        <time>2020-07-19T12:16:38Z</time>
      </trkpt>
      <trkpt lat="45.19101" lon="6.17623">
        <ele>2434.1630859375</ele>
        <time>2020-07-19T12:16:46Z</time>
      </trkpt>
      <trkpt lat="45.19107" lon="6.17627">
        <ele>2433.5629882812</ele>
        <time>2020-07-19T12:16:52Z</time>
      </trkpt>
      <trkpt lat="45.19113" lon="6.17631">
        <ele>2433.1630859375</ele>
        <time>2020-07-19T12:17:13Z</time>
      </trkpt>
      <trkpt lat="45.19121" lon="6.1763">
        <ele>2434.3630371094</ele>
        <time>2020-07-19T12:17:21Z</time>
      </trkpt>
      <trkpt lat="45.19132" lon="6.17631">
        <ele>2434.6630859375</ele>
        <time>2020-07-19T12:17:26Z</time>
      </trkpt>
      <trkpt lat="45.19146" lon="6.17634">
        <ele>2435.2629394531</ele>
        <time>2020-07-19T12:17:31Z</time>
      </trkpt>
      <trkpt lat="45.19159" lon="6.1764">
        <ele>2435.5629882812</ele>
        <time>2020-07-19T12:17:36Z</time>
      </trkpt>
      <trkpt lat="45.1917" lon="6.17644">
        <ele>2434.8630371094</ele>
        <time>2020-07-19T12:17:41Z</time>
      </trkpt>
      <trkpt lat="45.19182" lon="6.17649">
        <ele>2434.462890625</ele>
        <time>2020-07-19T12:17:46Z</time>
      </trkpt>
      <trkpt lat="45.19189" lon="6.17657">
        <ele>2434.5629882812</ele>
        <time>2020-07-19T12:17:51Z</time>
      </trkpt>
      <trkpt lat="45.19195" lon="6.17663">
        <ele>2433.962890625</ele>
        <time>2020-07-19T12:17:56Z</time>
      </trkpt>
      <trkpt lat="45.19203" lon="6.1766">
        <ele>2434.462890625</ele>
        <time>2020-07-19T12:18:09Z</time>
      </trkpt>
      <trkpt lat="45.19211" lon="6.17657">
        <ele>2433.6630859375</ele>
        <time>2020-07-19T12:18:14Z</time>
      </trkpt>
      <trkpt lat="45.19232" lon="6.17652">
        <ele>2432.2629394531</ele>
        <time>2020-07-19T12:18:19Z</time>
      </trkpt>
      <trkpt lat="45.19252" lon="6.17644">
        <ele>2429.1630859375</ele>
        <time>2020-07-19T12:18:24Z</time>
      </trkpt>
      <trkpt lat="45.19267" lon="6.1764">
        <ele>2426.8630371094</ele>
        <time>2020-07-19T12:18:29Z</time>
      </trkpt>
      <trkpt lat="45.19278" lon="6.17633">
        <ele>2425.962890625</ele>
        <time>2020-07-19T12:18:34Z</time>
      </trkpt>
      <trkpt lat="45.1929" lon="6.17629">
        <ele>2425.7629394531</ele>
        <time>2020-07-19T12:18:39Z</time>
      </trkpt>
      <trkpt lat="45.19306" lon="6.17625">
        <ele>2425.1630859375</ele>
        <time>2020-07-19T12:18:44Z</time>
      </trkpt>
      <trkpt lat="45.19317" lon="6.17623">
        <ele>2424.6630859375</ele>
        <time>2020-07-19T12:18:49Z</time>
      </trkpt>
      <trkpt lat="45.19332" lon="6.17615">
        <ele>2423.6630859375</ele>
        <time>2020-07-19T12:18:54Z</time>
      </trkpt>
      <trkpt lat="45.19352" lon="6.17616">
        <ele>2423.3630371094</ele>
        <time>2020-07-19T12:18:59Z</time>
      </trkpt>
      <trkpt lat="45.19372" lon="6.17626">
        <ele>2422.7629394531</ele>
        <time>2020-07-19T12:19:04Z</time>
      </trkpt>
      <trkpt lat="45.19386" lon="6.17638">
        <ele>2422.6640625</ele>
        <time>2020-07-19T12:19:09Z</time>
      </trkpt>
      <trkpt lat="45.19395" lon="6.17647">
        <ele>2421.3640136719</ele>
        <time>2020-07-19T12:19:14Z</time>
      </trkpt>
      <trkpt lat="45.19404" lon="6.17656">
        <ele>2420.3640136719</ele>
        <time>2020-07-19T12:19:19Z</time>
      </trkpt>
      <trkpt lat="45.19415" lon="6.17664">
        <ele>2419.1640625</ele>
        <time>2020-07-19T12:19:24Z</time>
      </trkpt>
      <trkpt lat="45.19432" lon="6.17682">
        <ele>2417.6640625</ele>
        <time>2020-07-19T12:19:29Z</time>
      </trkpt>
      <trkpt lat="45.19447" lon="6.17704">
        <ele>2415.2639160156</ele>
        <time>2020-07-19T12:19:34Z</time>
      </trkpt>
      <trkpt lat="45.19457" lon="6.17721">
        <ele>2414.3640136719</ele>
        <time>2020-07-19T12:19:39Z</time>
      </trkpt>
      <trkpt lat="45.1946" lon="6.17733">
        <ele>2415.4641113281</ele>
        <time>2020-07-19T12:19:44Z</time>
      </trkpt>
      <trkpt lat="45.19464" lon="6.17742">
        <ele>2415.1640625</ele>
        <time>2020-07-19T12:19:50Z</time>
      </trkpt>
      <trkpt lat="45.19472" lon="6.17744">
        <ele>2421.2639160156</ele>
        <time>2020-07-19T12:23:29Z</time>
      </trkpt>
      <trkpt lat="45.19477" lon="6.17722">
        <ele>2419.5639648438</ele>
        <time>2020-07-19T12:23:34Z</time>
      </trkpt>
      <trkpt lat="45.19487" lon="6.17699">
        <ele>2417.3640136719</ele>
        <time>2020-07-19T12:23:39Z</time>
      </trkpt>
      <trkpt lat="45.19495" lon="6.17679">
        <ele>2416.5639648438</ele>
        <time>2020-07-19T12:23:44Z</time>
      </trkpt>
      <trkpt lat="45.19505" lon="6.17655">
        <ele>2417.1640625</ele>
        <time>2020-07-19T12:23:49Z</time>
      </trkpt>
      <trkpt lat="45.19511" lon="6.17632">
        <ele>2416.3640136719</ele>
        <time>2020-07-19T12:23:54Z</time>
      </trkpt>
      <trkpt lat="45.19517" lon="6.1761">
        <ele>2416.7639160156</ele>
        <time>2020-07-19T12:23:59Z</time>
      </trkpt>
      <trkpt lat="45.19525" lon="6.17592">
        <ele>2416.6640625</ele>
        <time>2020-07-19T12:24:04Z</time>
      </trkpt>
      <trkpt lat="45.19531" lon="6.17572">
        <ele>2418.4641113281</ele>
        <time>2020-07-19T12:24:09Z</time>
      </trkpt>
      <trkpt lat="45.19538" lon="6.17556">
        <ele>2417.2639160156</ele>
        <time>2020-07-19T12:24:14Z</time>
      </trkpt>
      <trkpt lat="45.19544" lon="6.17543">
        <ele>2417.3640136719</ele>
        <time>2020-07-19T12:24:19Z</time>
      </trkpt>
      <trkpt lat="45.19551" lon="6.17533">
        <ele>2417.1640625</ele>
        <time>2020-07-19T12:24:24Z</time>
      </trkpt>
      <trkpt lat="45.1956" lon="6.1753">
        <ele>2416.1640625</ele>
        <time>2020-07-19T12:24:29Z</time>
      </trkpt>
      <trkpt lat="45.19567" lon="6.17524">
        <ele>2415.4641113281</ele>
        <time>2020-07-19T12:24:35Z</time>
      </trkpt>
      <trkpt lat="45.19573" lon="6.17525">
        <ele>2415.4641113281</ele>
        <time>2020-07-19T12:25:27Z</time>
      </trkpt>
      <trkpt lat="45.19581" lon="6.17524">
        <ele>2416.6640625</ele>
        <time>2020-07-19T12:25:32Z</time>
      </trkpt>
      <trkpt lat="45.1959" lon="6.17518">
        <ele>2417.1640625</ele>
        <time>2020-07-19T12:25:37Z</time>
      </trkpt>
      <trkpt lat="45.196" lon="6.17516">
        <ele>2417.1640625</ele>
        <time>2020-07-19T12:25:42Z</time>
      </trkpt>
      <trkpt lat="45.19618" lon="6.17516">
        <ele>2417.2639160156</ele>
        <time>2020-07-19T12:25:47Z</time>
      </trkpt>
      <trkpt lat="45.19629" lon="6.17519">
        <ele>2417.5639648438</ele>
        <time>2020-07-19T12:25:52Z</time>
      </trkpt>
      <trkpt lat="45.19637" lon="6.17522">
        <ele>2416.6640625</ele>
        <time>2020-07-19T12:26:56Z</time>
      </trkpt>
      <trkpt lat="45.19652" lon="6.17531">
        <ele>2415.3640136719</ele>
        <time>2020-07-19T12:27:01Z</time>
      </trkpt>
      <trkpt lat="45.19663" lon="6.17537">
        <ele>2412.8640136719</ele>
        <time>2020-07-19T12:27:06Z</time>
      </trkpt>
      <trkpt lat="45.19676" lon="6.17551">
        <ele>2411.1640625</ele>
        <time>2020-07-19T12:27:11Z</time>
      </trkpt>
      <trkpt lat="45.19694" lon="6.1756">
        <ele>2409.0639648438</ele>
        <time>2020-07-19T12:27:16Z</time>
      </trkpt>
      <trkpt lat="45.19713" lon="6.17573">
        <ele>2407.7639160156</ele>
        <time>2020-07-19T12:27:21Z</time>
      </trkpt>
      <trkpt lat="45.19729" lon="6.17589">
        <ele>2407.8640136719</ele>
        <time>2020-07-19T12:27:26Z</time>
      </trkpt>
      <trkpt lat="45.19741" lon="6.17605">
        <ele>2407.1640625</ele>
        <time>2020-07-19T12:27:31Z</time>
      </trkpt>
      <trkpt lat="45.19753" lon="6.17619">
        <ele>2407.4641113281</ele>
        <time>2020-07-19T12:27:36Z</time>
      </trkpt>
      <trkpt lat="45.19762" lon="6.17632">
        <ele>2407.9641113281</ele>
        <time>2020-07-19T12:27:41Z</time>
      </trkpt>
      <trkpt lat="45.1977" lon="6.17641">
        <ele>2406.3640136719</ele>
        <time>2020-07-19T12:27:46Z</time>
      </trkpt>
      <trkpt lat="45.19777" lon="6.17651">
        <ele>2405.1640625</ele>
        <time>2020-07-19T12:27:51Z</time>
      </trkpt>
      <trkpt lat="45.19785" lon="6.1766">
        <ele>2405.8640136719</ele>
        <time>2020-07-19T12:27:56Z</time>
      </trkpt>
      <trkpt lat="45.19793" lon="6.17671">
        <ele>2406.4641113281</ele>
        <time>2020-07-19T12:28:01Z</time>
      </trkpt>
      <trkpt lat="45.19797" lon="6.17679">
        <ele>2406.3640136719</ele>
        <time>2020-07-19T12:28:06Z</time>
      </trkpt>
      <trkpt lat="45.198" lon="6.17687">
        <ele>2407.2639160156</ele>
        <time>2020-07-19T12:28:15Z</time>
      </trkpt>
      <trkpt lat="45.19805" lon="6.17695">
        <ele>2407.9641113281</ele>
        <time>2020-07-19T12:28:28Z</time>
      </trkpt>
      <trkpt lat="45.1981" lon="6.17701">
        <ele>2408.1640625</ele>
        <time>2020-07-19T12:28:33Z</time>
      </trkpt>
      <trkpt lat="45.1982" lon="6.17715">
        <ele>2407.8640136719</ele>
        <time>2020-07-19T12:28:38Z</time>
      </trkpt>
      <trkpt lat="45.19831" lon="6.17727">
        <ele>2407.7639160156</ele>
        <time>2020-07-19T12:28:43Z</time>
      </trkpt>
      <trkpt lat="45.19841" lon="6.17742">
        <ele>2407.2648925781</ele>
        <time>2020-07-19T12:28:48Z</time>
      </trkpt>
      <trkpt lat="45.19848" lon="6.1775">
        <ele>2407.9650878906</ele>
        <time>2020-07-19T12:28:53Z</time>
      </trkpt>
      <trkpt lat="45.19858" lon="6.17759">
        <ele>2407.4650878906</ele>
        <time>2020-07-19T12:28:58Z</time>
      </trkpt>
      <trkpt lat="45.19868" lon="6.17769">
        <ele>2407.1650390625</ele>
        <time>2020-07-19T12:29:03Z</time>
      </trkpt>
      <trkpt lat="45.19876" lon="6.17779">
        <ele>2407.9650878906</ele>
        <time>2020-07-19T12:29:08Z</time>
      </trkpt>
      <trkpt lat="45.19885" lon="6.17787">
        <ele>2408.4650878906</ele>
        <time>2020-07-19T12:29:13Z</time>
      </trkpt>
      <trkpt lat="45.19898" lon="6.17795">
        <ele>2408.5649414062</ele>
        <time>2020-07-19T12:29:18Z</time>
      </trkpt>
      <trkpt lat="45.19915" lon="6.17805">
        <ele>2407.8649902344</ele>
        <time>2020-07-19T12:29:23Z</time>
      </trkpt>
      <trkpt lat="45.19929" lon="6.17815">
        <ele>2406.4650878906</ele>
        <time>2020-07-19T12:29:28Z</time>
      </trkpt>
      <trkpt lat="45.19937" lon="6.17823">
        <ele>2406.8649902344</ele>
        <time>2020-07-19T12:29:33Z</time>
      </trkpt>
      <trkpt lat="45.19945" lon="6.1783">
        <ele>2407.5649414062</ele>
        <time>2020-07-19T12:29:38Z</time>
      </trkpt>
      <trkpt lat="45.19952" lon="6.17836">
        <ele>2408.7648925781</ele>
        <time>2020-07-19T12:29:43Z</time>
      </trkpt>
      <trkpt lat="45.19959" lon="6.17841">
        <ele>2410.2648925781</ele>
        <time>2020-07-19T12:29:48Z</time>
      </trkpt>
      <trkpt lat="45.19968" lon="6.17846">
        <ele>2411.3649902344</ele>
        <time>2020-07-19T12:29:53Z</time>
      </trkpt>
      <trkpt lat="45.19976" lon="6.17851">
        <ele>2412.5649414062</ele>
        <time>2020-07-19T12:29:58Z</time>
      </trkpt>
      <trkpt lat="45.19985" lon="6.17855">
        <ele>2413.2648925781</ele>
        <time>2020-07-19T12:30:03Z</time>
      </trkpt>
      <trkpt lat="45.19993" lon="6.1786">
        <ele>2414.2648925781</ele>
        <time>2020-07-19T12:30:08Z</time>
      </trkpt>
      <trkpt lat="45.2" lon="6.17863">
        <ele>2416.1650390625</ele>
        <time>2020-07-19T12:30:13Z</time>
      </trkpt>
      <trkpt lat="45.20007" lon="6.17869">
        <ele>2416.6650390625</ele>
        <time>2020-07-19T12:30:18Z</time>
      </trkpt>
      <trkpt lat="45.20014" lon="6.17872">
        <ele>2418.1650390625</ele>
        <time>2020-07-19T12:30:25Z</time>
      </trkpt>
      <trkpt lat="45.2002" lon="6.17875">
        <ele>2418.3649902344</ele>
        <time>2020-07-19T12:30:33Z</time>
      </trkpt>
      <trkpt lat="45.20027" lon="6.17877">
        <ele>2418.4650878906</ele>
        <time>2020-07-19T12:30:39Z</time>
      </trkpt>
      <trkpt lat="45.20034" lon="6.17879">
        <ele>2418.0649414062</ele>
        <time>2020-07-19T12:30:46Z</time>
      </trkpt>
      <trkpt lat="45.2004" lon="6.17882">
        <ele>2418.1650390625</ele>
        <time>2020-07-19T12:30:52Z</time>
      </trkpt>
      <trkpt lat="45.20047" lon="6.17885">
        <ele>2419.2648925781</ele>
        <time>2020-07-19T12:30:57Z</time>
      </trkpt>
      <trkpt lat="45.20053" lon="6.17889">
        <ele>2420.4650878906</ele>
        <time>2020-07-19T12:31:05Z</time>
      </trkpt>
      <trkpt lat="45.2006" lon="6.17891">
        <ele>2421.7648925781</ele>
        <time>2020-07-19T12:31:12Z</time>
      </trkpt>
      <trkpt lat="45.20065" lon="6.17897">
        <ele>2423.7648925781</ele>
        <time>2020-07-19T12:31:38Z</time>
      </trkpt>
      <trkpt lat="45.20072" lon="6.17899">
        <ele>2420.7648925781</ele>
        <time>2020-07-19T12:32:16Z</time>
      </trkpt>
      <trkpt lat="45.20082" lon="6.17901">
        <ele>2420.4650878906</ele>
        <time>2020-07-19T12:32:21Z</time>
      </trkpt>
      <trkpt lat="45.2009" lon="6.17906">
        <ele>2420.2648925781</ele>
        <time>2020-07-19T12:32:26Z</time>
      </trkpt>
      <trkpt lat="45.20099" lon="6.17912">
        <ele>2420.2648925781</ele>
        <time>2020-07-19T12:32:31Z</time>
      </trkpt>
      <trkpt lat="45.20107" lon="6.17917">
        <ele>2420.4650878906</ele>
        <time>2020-07-19T12:32:36Z</time>
      </trkpt>
      <trkpt lat="45.20117" lon="6.17922">
        <ele>2420.5649414062</ele>
        <time>2020-07-19T12:32:41Z</time>
      </trkpt>
      <trkpt lat="45.20126" lon="6.17927">
        <ele>2422.9650878906</ele>
        <time>2020-07-19T12:32:46Z</time>
      </trkpt>
      <trkpt lat="45.20135" lon="6.17932">
        <ele>2424.9650878906</ele>
        <time>2020-07-19T12:32:51Z</time>
      </trkpt>
      <trkpt lat="45.20144" lon="6.17935">
        <ele>2425.9650878906</ele>
        <time>2020-07-19T12:32:56Z</time>
      </trkpt>
      <trkpt lat="45.2015" lon="6.17938">
        <ele>2428.3649902344</ele>
        <time>2020-07-19T12:33:01Z</time>
      </trkpt>
      <trkpt lat="45.20157" lon="6.17939">
        <ele>2429.7648925781</ele>
        <time>2020-07-19T12:33:08Z</time>
      </trkpt>
      <trkpt lat="45.20164" lon="6.17937">
        <ele>2430.9650878906</ele>
        <time>2020-07-19T12:33:15Z</time>
      </trkpt>
      <trkpt lat="45.20172" lon="6.17937">
        <ele>2431.3649902344</ele>
        <time>2020-07-19T12:33:21Z</time>
      </trkpt>
      <trkpt lat="45.20179" lon="6.17939">
        <ele>2431.3649902344</ele>
        <time>2020-07-19T12:33:27Z</time>
      </trkpt>
      <trkpt lat="45.20186" lon="6.17941">
        <ele>2432.6650390625</ele>
        <time>2020-07-19T12:33:36Z</time>
      </trkpt>
      <trkpt lat="45.20194" lon="6.17942">
        <ele>2432.9650878906</ele>
        <time>2020-07-19T12:33:43Z</time>
      </trkpt>
      <trkpt lat="45.20201" lon="6.17942">
        <ele>2432.8659667969</ele>
        <time>2020-07-19T12:33:48Z</time>
      </trkpt>
      <trkpt lat="45.20207" lon="6.17943">
        <ele>2433.2661132812</ele>
        <time>2020-07-19T12:33:53Z</time>
      </trkpt>
      <trkpt lat="45.20214" lon="6.17946">
        <ele>2433.166015625</ele>
        <time>2020-07-19T12:34:11Z</time>
      </trkpt>
      <trkpt lat="45.20221" lon="6.17949">
        <ele>2433.666015625</ele>
        <time>2020-07-19T12:34:16Z</time>
      </trkpt>
      <trkpt lat="45.20228" lon="6.1795">
        <ele>2434.8659667969</ele>
        <time>2020-07-19T12:34:23Z</time>
      </trkpt>
      <trkpt lat="45.20235" lon="6.17949">
        <ele>2435.7661132812</ele>
        <time>2020-07-19T12:34:29Z</time>
      </trkpt>
      <trkpt lat="45.20242" lon="6.17949">
        <ele>2436.7661132812</ele>
        <time>2020-07-19T12:34:34Z</time>
      </trkpt>
      <trkpt lat="45.20249" lon="6.17949">
        <ele>2438.3659667969</ele>
        <time>2020-07-19T12:34:42Z</time>
      </trkpt>
      <trkpt lat="45.20257" lon="6.17947">
        <ele>2438.7661132812</ele>
        <time>2020-07-19T12:34:48Z</time>
      </trkpt>
      <trkpt lat="45.20265" lon="6.17946">
        <ele>2440.0659179688</ele>
        <time>2020-07-19T12:34:53Z</time>
      </trkpt>
      <trkpt lat="45.20271" lon="6.17949">
        <ele>2441.3659667969</ele>
        <time>2020-07-19T12:35:00Z</time>
      </trkpt>
      <trkpt lat="45.20277" lon="6.1795">
        <ele>2441.8659667969</ele>
        <time>2020-07-19T12:35:11Z</time>
      </trkpt>
      <trkpt lat="45.20284" lon="6.1795">
        <ele>2441.666015625</ele>
        <time>2020-07-19T12:35:18Z</time>
      </trkpt>
      <trkpt lat="45.20291" lon="6.17949">
        <ele>2443.666015625</ele>
        <time>2020-07-19T12:35:44Z</time>
      </trkpt>
      <trkpt lat="45.20298" lon="6.17948">
        <ele>2444.166015625</ele>
        <time>2020-07-19T12:35:50Z</time>
      </trkpt>
      <trkpt lat="45.20304" lon="6.1795">
        <ele>2444.5659179688</ele>
        <time>2020-07-19T12:35:56Z</time>
      </trkpt>
      <trkpt lat="45.20311" lon="6.17952">
        <ele>2444.166015625</ele>
        <time>2020-07-19T12:36:01Z</time>
      </trkpt>
      <trkpt lat="45.20319" lon="6.17954">
        <ele>2445.166015625</ele>
        <time>2020-07-19T12:36:07Z</time>
      </trkpt>
      <trkpt lat="45.20326" lon="6.17956">
        <ele>2445.4660644531</ele>
        <time>2020-07-19T12:36:13Z</time>
      </trkpt>
      <trkpt lat="45.20332" lon="6.17958">
        <ele>2446.7661132812</ele>
        <time>2020-07-19T12:36:21Z</time>
      </trkpt>
      <trkpt lat="45.20339" lon="6.1796">
        <ele>2447.9660644531</ele>
        <time>2020-07-19T12:36:30Z</time>
      </trkpt>
      <trkpt lat="45.20348" lon="6.17961">
        <ele>2447.8659667969</ele>
        <time>2020-07-19T12:36:36Z</time>
      </trkpt>
      <trkpt lat="45.20361" lon="6.17967">
        <ele>2447.666015625</ele>
        <time>2020-07-19T12:36:41Z</time>
      </trkpt>
      <trkpt lat="45.20367" lon="6.17973">
        <ele>2448.666015625</ele>
        <time>2020-07-19T12:36:50Z</time>
      </trkpt>
      <trkpt lat="45.20372" lon="6.17978">
        <ele>2448.666015625</ele>
        <time>2020-07-19T12:36:57Z</time>
      </trkpt>
      <trkpt lat="45.20379" lon="6.17983">
        <ele>2448.7661132812</ele>
        <time>2020-07-19T12:37:03Z</time>
      </trkpt>
      <trkpt lat="45.20385" lon="6.17986">
        <ele>2449.2661132812</ele>
        <time>2020-07-19T12:37:08Z</time>
      </trkpt>
      <trkpt lat="45.20391" lon="6.17992">
        <ele>2450.166015625</ele>
        <time>2020-07-19T12:37:15Z</time>
      </trkpt>
      <trkpt lat="45.20397" lon="6.17996">
        <ele>2451.0659179688</ele>
        <time>2020-07-19T12:37:23Z</time>
      </trkpt>
      <trkpt lat="45.20402" lon="6.18001">
        <ele>2452.166015625</ele>
        <time>2020-07-19T12:37:31Z</time>
      </trkpt>
      <trkpt lat="45.20409" lon="6.18006">
        <ele>2451.9660644531</ele>
        <time>2020-07-19T12:37:42Z</time>
      </trkpt>
      <trkpt lat="45.20415" lon="6.18008">
        <ele>2452.8659667969</ele>
        <time>2020-07-19T12:37:47Z</time>
      </trkpt>
      <trkpt lat="45.20423" lon="6.18007">
        <ele>2454.0659179688</ele>
        <time>2020-07-19T12:37:52Z</time>
      </trkpt>
      <trkpt lat="45.20429" lon="6.1801">
        <ele>2456.2661132812</ele>
        <time>2020-07-19T12:37:57Z</time>
      </trkpt>
      <trkpt lat="45.20437" lon="6.18012">
        <ele>2457.666015625</ele>
        <time>2020-07-19T12:38:03Z</time>
      </trkpt>
      <trkpt lat="45.20443" lon="6.18016">
        <ele>2459.5659179688</ele>
        <time>2020-07-19T12:38:08Z</time>
      </trkpt>
      <trkpt lat="45.20451" lon="6.1802">
        <ele>2460.666015625</ele>
        <time>2020-07-19T12:38:13Z</time>
      </trkpt>
      <trkpt lat="45.20458" lon="6.18024">
        <ele>2461.2661132812</ele>
        <time>2020-07-19T12:38:18Z</time>
      </trkpt>
      <trkpt lat="45.20467" lon="6.1803">
        <ele>2460.9660644531</ele>
        <time>2020-07-19T12:38:23Z</time>
      </trkpt>
      <trkpt lat="45.20472" lon="6.18036">
        <ele>2461.2661132812</ele>
        <time>2020-07-19T12:38:34Z</time>
      </trkpt>
      <trkpt lat="45.2048" lon="6.18038">
        <ele>2460.5659179688</ele>
        <time>2020-07-19T12:38:40Z</time>
      </trkpt>
      <trkpt lat="45.20475" lon="6.1803">
        <ele>2464.9660644531</ele>
        <time>2020-07-19T12:39:35Z</time>
      </trkpt>
      <trkpt lat="45.20468" lon="6.18029">
        <ele>2465.8659667969</ele>
        <time>2020-07-19T12:39:40Z</time>
      </trkpt>
      <trkpt lat="45.20462" lon="6.18028">
        <ele>2464.5659179688</ele>
        <time>2020-07-19T12:39:45Z</time>
      </trkpt>
      <trkpt lat="45.20455" lon="6.18024">
        <ele>2465.166015625</ele>
        <time>2020-07-19T12:40:06Z</time>
      </trkpt>
      <trkpt lat="45.20461" lon="6.1803">
        <ele>2465.666015625</ele>
        <time>2020-07-19T12:41:14Z</time>
      </trkpt>
      <trkpt lat="45.20467" lon="6.18032">
        <ele>2463.9660644531</ele>
        <time>2020-07-19T12:41:22Z</time>
      </trkpt>
      <trkpt lat="45.20474" lon="6.18037">
        <ele>2463.4660644531</ele>
        <time>2020-07-19T12:41:31Z</time>
      </trkpt>
      <trkpt lat="45.2048" lon="6.1804">
        <ele>2462.4660644531</ele>
        <time>2020-07-19T12:42:10Z</time>
      </trkpt>
      <trkpt lat="45.20483" lon="6.1805">
        <ele>2466.166015625</ele>
        <time>2020-07-19T12:50:11Z</time>
      </trkpt>
      <trkpt lat="45.20493" lon="6.18065">
        <ele>2465.3659667969</ele>
        <time>2020-07-19T12:50:16Z</time>
      </trkpt>
      <trkpt lat="45.20502" lon="6.18087">
        <ele>2463.9660644531</ele>
        <time>2020-07-19T12:50:21Z</time>
      </trkpt>
      <trkpt lat="45.20498" lon="6.18106">
        <ele>2458.7661132812</ele>
        <time>2020-07-19T12:50:26Z</time>
      </trkpt>
      <trkpt lat="45.20497" lon="6.18123">
        <ele>2455.4660644531</ele>
        <time>2020-07-19T12:50:31Z</time>
      </trkpt>
      <trkpt lat="45.20492" lon="6.18131">
        <ele>2452.5659179688</ele>
        <time>2020-07-19T12:50:37Z</time>
      </trkpt>
      <trkpt lat="45.20491" lon="6.18147">
        <ele>2450.2661132812</ele>
        <time>2020-07-19T12:50:42Z</time>
      </trkpt>
      <trkpt lat="45.20493" lon="6.18161">
        <ele>2448.166015625</ele>
        <time>2020-07-19T12:50:47Z</time>
      </trkpt>
      <trkpt lat="45.20493" lon="6.18171">
        <ele>2446.2661132812</ele>
        <time>2020-07-19T12:50:52Z</time>
      </trkpt>
      <trkpt lat="45.20492" lon="6.18186">
        <ele>2444.0659179688</ele>
        <time>2020-07-19T12:50:57Z</time>
      </trkpt>
      <trkpt lat="45.20492" lon="6.18203">
        <ele>2441.666015625</ele>
        <time>2020-07-19T12:51:02Z</time>
      </trkpt>
      <trkpt lat="45.2049" lon="6.18216">
        <ele>2438.7661132812</ele>
        <time>2020-07-19T12:51:07Z</time>
      </trkpt>
      <trkpt lat="45.20487" lon="6.1823">
        <ele>2436.0659179688</ele>
        <time>2020-07-19T12:51:12Z</time>
      </trkpt>
      <trkpt lat="45.20484" lon="6.18247">
        <ele>2433.666015625</ele>
        <time>2020-07-19T12:51:17Z</time>
      </trkpt>
      <trkpt lat="45.20485" lon="6.18263">
        <ele>2430.2661132812</ele>
        <time>2020-07-19T12:51:22Z</time>
      </trkpt>
      <trkpt lat="45.20487" lon="6.18277">
        <ele>2427.5668945312</ele>
        <time>2020-07-19T12:51:27Z</time>
      </trkpt>
      <trkpt lat="45.20489" lon="6.18287">
        <ele>2425.6669921875</ele>
        <time>2020-07-19T12:51:32Z</time>
      </trkpt>
      <trkpt lat="45.20487" lon="6.18298">
        <ele>2424.1669921875</ele>
        <time>2020-07-19T12:51:37Z</time>
      </trkpt>
      <trkpt lat="45.20486" lon="6.18308">
        <ele>2423.2670898438</ele>
        <time>2020-07-19T12:52:04Z</time>
      </trkpt>
      <trkpt lat="45.20483" lon="6.18317">
        <ele>2422.2670898438</ele>
        <time>2020-07-19T12:52:14Z</time>
      </trkpt>
      <trkpt lat="45.20481" lon="6.18329">
        <ele>2421.7670898438</ele>
        <time>2020-07-19T12:52:19Z</time>
      </trkpt>
      <trkpt lat="45.20476" lon="6.18345">
        <ele>2419.8669433594</ele>
        <time>2020-07-19T12:52:24Z</time>
      </trkpt>
      <trkpt lat="45.2047" lon="6.18359">
        <ele>2416.4670410156</ele>
        <time>2020-07-19T12:52:29Z</time>
      </trkpt>
      <trkpt lat="45.20464" lon="6.18373">
        <ele>2413.2670898438</ele>
        <time>2020-07-19T12:52:34Z</time>
      </trkpt>
      <trkpt lat="45.20454" lon="6.18391">
        <ele>2409.4670410156</ele>
        <time>2020-07-19T12:52:39Z</time>
      </trkpt>
      <trkpt lat="45.20442" lon="6.18409">
        <ele>2406.9670410156</ele>
        <time>2020-07-19T12:52:44Z</time>
      </trkpt>
      <trkpt lat="45.20431" lon="6.18424">
        <ele>2403.8669433594</ele>
        <time>2020-07-19T12:52:49Z</time>
      </trkpt>
      <trkpt lat="45.20422" lon="6.18441">
        <ele>2400.5668945312</ele>
        <time>2020-07-19T12:52:54Z</time>
      </trkpt>
      <trkpt lat="45.20415" lon="6.18466">
        <ele>2398.6669921875</ele>
        <time>2020-07-19T12:52:59Z</time>
      </trkpt>
      <trkpt lat="45.20413" lon="6.18475">
        <ele>2399.1669921875</ele>
        <time>2020-07-19T12:53:09Z</time>
      </trkpt>
      <trkpt lat="45.20409" lon="6.18482">
        <ele>2398.5668945312</ele>
        <time>2020-07-19T12:53:14Z</time>
      </trkpt>
      <trkpt lat="45.20405" lon="6.1849">
        <ele>2397.4670410156</ele>
        <time>2020-07-19T12:53:20Z</time>
      </trkpt>
      <trkpt lat="45.20402" lon="6.18499">
        <ele>2396.3669433594</ele>
        <time>2020-07-19T12:53:28Z</time>
      </trkpt>
      <trkpt lat="45.204" lon="6.18508">
        <ele>2393.6669921875</ele>
        <time>2020-07-19T12:53:41Z</time>
      </trkpt>
      <trkpt lat="45.204" lon="6.18519">
        <ele>2393.0668945312</ele>
        <time>2020-07-19T12:53:46Z</time>
      </trkpt>
      <trkpt lat="45.204" lon="6.18531">
        <ele>2388.7670898438</ele>
        <time>2020-07-19T12:54:36Z</time>
      </trkpt>
      <trkpt lat="45.20401" lon="6.1854">
        <ele>2389.5668945312</ele>
        <time>2020-07-19T12:54:46Z</time>
      </trkpt>
      <trkpt lat="45.20401" lon="6.18551">
        <ele>2388.3669433594</ele>
        <time>2020-07-19T12:55:02Z</time>
      </trkpt>
      <trkpt lat="45.204" lon="6.18561">
        <ele>2386.6669921875</ele>
        <time>2020-07-19T12:55:10Z</time>
      </trkpt>
      <trkpt lat="45.20393" lon="6.18563">
        <ele>2382.3669433594</ele>
        <time>2020-07-19T12:55:23Z</time>
      </trkpt>
      <trkpt lat="45.20387" lon="6.18561">
        <ele>2380.3669433594</ele>
        <time>2020-07-19T12:55:39Z</time>
      </trkpt>
      <trkpt lat="45.2038" lon="6.18563">
        <ele>2378.2670898438</ele>
        <time>2020-07-19T12:55:46Z</time>
      </trkpt>
      <trkpt lat="45.20381" lon="6.18576">
        <ele>2375.8669433594</ele>
        <time>2020-07-19T12:55:51Z</time>
      </trkpt>
      <trkpt lat="45.20385" lon="6.18591">
        <ele>2372.8669433594</ele>
        <time>2020-07-19T12:55:56Z</time>
      </trkpt>
      <trkpt lat="45.20389" lon="6.18605">
        <ele>2369.5668945312</ele>
        <time>2020-07-19T12:56:01Z</time>
      </trkpt>
      <trkpt lat="45.20396" lon="6.18615">
        <ele>2366.7670898438</ele>
        <time>2020-07-19T12:56:06Z</time>
      </trkpt>
      <trkpt lat="45.20401" lon="6.18625">
        <ele>2365.1669921875</ele>
        <time>2020-07-19T12:56:11Z</time>
      </trkpt>
      <trkpt lat="45.20405" lon="6.18632">
        <ele>2363.0668945312</ele>
        <time>2020-07-19T12:56:45Z</time>
      </trkpt>
      <trkpt lat="45.20403" lon="6.18641">
        <ele>2362.4670410156</ele>
        <time>2020-07-19T12:56:55Z</time>
      </trkpt>
      <trkpt lat="45.20404" lon="6.1865">
        <ele>2360.0668945312</ele>
        <time>2020-07-19T12:57:13Z</time>
      </trkpt>
      <trkpt lat="45.20408" lon="6.18658">
        <ele>2357.5668945312</ele>
        <time>2020-07-19T12:57:33Z</time>
      </trkpt>
      <trkpt lat="45.20408" lon="6.18668">
        <ele>2354.0668945312</ele>
        <time>2020-07-19T12:57:55Z</time>
      </trkpt>
      <trkpt lat="45.20411" lon="6.18677">
        <ele>2351.0668945312</ele>
        <time>2020-07-19T12:58:15Z</time>
      </trkpt>
      <trkpt lat="45.20413" lon="6.18687">
        <ele>2350.0668945312</ele>
        <time>2020-07-19T12:58:21Z</time>
      </trkpt>
      <trkpt lat="45.20409" lon="6.18694">
        <ele>2348.2670898438</ele>
        <time>2020-07-19T12:58:30Z</time>
      </trkpt>
      <trkpt lat="45.20413" lon="6.18702">
        <ele>2345.6669921875</ele>
        <time>2020-07-19T12:58:44Z</time>
      </trkpt>
      <trkpt lat="45.2042" lon="6.18711">
        <ele>2343.4670410156</ele>
        <time>2020-07-19T12:58:49Z</time>
      </trkpt>
      <trkpt lat="45.20426" lon="6.18716">
        <ele>2343.0668945312</ele>
        <time>2020-07-19T12:59:02Z</time>
      </trkpt>
      <trkpt lat="45.20427" lon="6.18726">
        <ele>2340.0668945312</ele>
        <time>2020-07-19T12:59:19Z</time>
      </trkpt>
      <trkpt lat="45.2043" lon="6.18736">
        <ele>2339.6669921875</ele>
        <time>2020-07-19T12:59:24Z</time>
      </trkpt>
      <trkpt lat="45.20432" lon="6.18749">
        <ele>2338.4670410156</ele>
        <time>2020-07-19T12:59:29Z</time>
      </trkpt>
      <trkpt lat="45.20434" lon="6.1876">
        <ele>2336.0668945312</ele>
        <time>2020-07-19T12:59:34Z</time>
      </trkpt>
      <trkpt lat="45.20431" lon="6.18769">
        <ele>2332.8669433594</ele>
        <time>2020-07-19T12:59:44Z</time>
      </trkpt>
      <trkpt lat="45.2044" lon="6.18785">
        <ele>2329.9670410156</ele>
        <time>2020-07-19T12:59:49Z</time>
      </trkpt>
      <trkpt lat="45.2045" lon="6.18797">
        <ele>2325.7670898438</ele>
        <time>2020-07-19T12:59:54Z</time>
      </trkpt>
      <trkpt lat="45.20461" lon="6.18811">
        <ele>2322.1669921875</ele>
        <time>2020-07-19T12:59:59Z</time>
      </trkpt>
      <trkpt lat="45.20468" lon="6.18827">
        <ele>2319.4670410156</ele>
        <time>2020-07-19T13:00:04Z</time>
      </trkpt>
      <trkpt lat="45.20477" lon="6.18839">
        <ele>2316.3669433594</ele>
        <time>2020-07-19T13:00:09Z</time>
      </trkpt>
      <trkpt lat="45.20479" lon="6.18851">
        <ele>2312.9670410156</ele>
        <time>2020-07-19T13:00:14Z</time>
      </trkpt>
      <trkpt lat="45.20488" lon="6.18862">
        <ele>2310.3669433594</ele>
        <time>2020-07-19T13:00:19Z</time>
      </trkpt>
      <trkpt lat="45.20495" lon="6.18873">
        <ele>2307.3669433594</ele>
        <time>2020-07-19T13:00:24Z</time>
      </trkpt>
      <trkpt lat="45.20502" lon="6.18877">
        <ele>2307.5668945312</ele>
        <time>2020-07-19T13:00:36Z</time>
      </trkpt>
      <trkpt lat="45.20503" lon="6.1889">
        <ele>2306.7670898438</ele>
        <time>2020-07-19T13:00:41Z</time>
      </trkpt>
      <trkpt lat="45.20502" lon="6.18908">
        <ele>2305.0668945312</ele>
        <time>2020-07-19T13:00:46Z</time>
      </trkpt>
      <trkpt lat="45.20501" lon="6.18918">
        <ele>2297.7670898438</ele>
        <time>2020-07-19T13:00:53Z</time>
      </trkpt>
      <trkpt lat="45.20506" lon="6.18926">
        <ele>2295.5668945312</ele>
        <time>2020-07-19T13:06:35Z</time>
      </trkpt>
      <trkpt lat="45.205" lon="6.18935">
        <ele>2294.5668945312</ele>
        <time>2020-07-19T13:06:40Z</time>
      </trkpt>
      <trkpt lat="45.20498" lon="6.18949">
        <ele>2293.1669921875</ele>
        <time>2020-07-19T13:06:45Z</time>
      </trkpt>
      <trkpt lat="45.20487" lon="6.18955">
        <ele>2292.1669921875</ele>
        <time>2020-07-19T13:06:50Z</time>
      </trkpt>
      <trkpt lat="45.20478" lon="6.18964">
        <ele>2289.9670410156</ele>
        <time>2020-07-19T13:06:55Z</time>
      </trkpt>
      <trkpt lat="45.20472" lon="6.18969">
        <ele>2289.3669433594</ele>
        <time>2020-07-19T13:07:00Z</time>
      </trkpt>
      <trkpt lat="45.20467" lon="6.18975">
        <ele>2289.0668945312</ele>
        <time>2020-07-19T13:07:05Z</time>
      </trkpt>
      <trkpt lat="45.20465" lon="6.18985">
        <ele>2288.7670898438</ele>
        <time>2020-07-19T13:07:10Z</time>
      </trkpt>
      <trkpt lat="45.20464" lon="6.19005">
        <ele>2288.6669921875</ele>
        <time>2020-07-19T13:07:15Z</time>
      </trkpt>
      <trkpt lat="45.20449" lon="6.19017">
        <ele>2289.2670898438</ele>
        <time>2020-07-19T13:07:20Z</time>
      </trkpt>
      <trkpt lat="45.20442" lon="6.19029">
        <ele>2287.5668945312</ele>
        <time>2020-07-19T13:07:25Z</time>
      </trkpt>
      <trkpt lat="45.20435" lon="6.19056">
        <ele>2285.9680175781</ele>
        <time>2020-07-19T13:07:30Z</time>
      </trkpt>
      <trkpt lat="45.20441" lon="6.19079">
        <ele>2282.7680664062</ele>
        <time>2020-07-19T13:07:35Z</time>
      </trkpt>
      <trkpt lat="45.20447" lon="6.19084">
        <ele>2277.4680175781</ele>
        <time>2020-07-19T13:08:07Z</time>
      </trkpt>
      <trkpt lat="45.20458" lon="6.19101">
        <ele>2276.8679199219</ele>
        <time>2020-07-19T13:08:12Z</time>
      </trkpt>
      <trkpt lat="45.20469" lon="6.19111">
        <ele>2275.7680664062</ele>
        <time>2020-07-19T13:08:17Z</time>
      </trkpt>
      <trkpt lat="45.20479" lon="6.19118">
        <ele>2272.0681152344</ele>
        <time>2020-07-19T13:08:22Z</time>
      </trkpt>
      <trkpt lat="45.20488" lon="6.19125">
        <ele>2268.3679199219</ele>
        <time>2020-07-19T13:08:27Z</time>
      </trkpt>
      <trkpt lat="45.20488" lon="6.19135">
        <ele>2268.2680664062</ele>
        <time>2020-07-19T13:09:06Z</time>
      </trkpt>
      <trkpt lat="45.20484" lon="6.19142">
        <ele>2267.8679199219</ele>
        <time>2020-07-19T13:09:14Z</time>
      </trkpt>
      <trkpt lat="45.20478" lon="6.19147">
        <ele>2267.16796875</ele>
        <time>2020-07-19T13:09:23Z</time>
      </trkpt>
      <trkpt lat="45.20472" lon="6.19152">
        <ele>2267.3679199219</ele>
        <time>2020-07-19T13:09:32Z</time>
      </trkpt>
      <trkpt lat="45.20465" lon="6.19156">
        <ele>2267.2680664062</ele>
        <time>2020-07-19T13:09:40Z</time>
      </trkpt>
      <trkpt lat="45.20457" lon="6.19159">
        <ele>2267.3679199219</ele>
        <time>2020-07-19T13:09:45Z</time>
      </trkpt>
      <trkpt lat="45.20451" lon="6.19157">
        <ele>2267.8679199219</ele>
        <time>2020-07-19T13:09:56Z</time>
      </trkpt>
      <trkpt lat="45.20441" lon="6.19151">
        <ele>2266.9680175781</ele>
        <time>2020-07-19T13:10:01Z</time>
      </trkpt>
      <trkpt lat="45.20431" lon="6.19146">
        <ele>2265.5681152344</ele>
        <time>2020-07-19T13:10:06Z</time>
      </trkpt>
      <trkpt lat="45.20422" lon="6.19141">
        <ele>2264.4680175781</ele>
        <time>2020-07-19T13:10:11Z</time>
      </trkpt>
      <trkpt lat="45.20413" lon="6.19139">
        <ele>2263.8679199219</ele>
        <time>2020-07-19T13:10:16Z</time>
      </trkpt>
      <trkpt lat="45.20399" lon="6.19139">
        <ele>2262.3679199219</ele>
        <time>2020-07-19T13:10:21Z</time>
      </trkpt>
      <trkpt lat="45.2038" lon="6.19149">
        <ele>2259.8679199219</ele>
        <time>2020-07-19T13:10:26Z</time>
      </trkpt>
      <trkpt lat="45.20367" lon="6.19168">
        <ele>2255.5681152344</ele>
        <time>2020-07-19T13:10:31Z</time>
      </trkpt>
      <trkpt lat="45.20361" lon="6.19179">
        <ele>2251.7680664062</ele>
        <time>2020-07-19T13:10:36Z</time>
      </trkpt>
      <trkpt lat="45.20371" lon="6.19194">
        <ele>2250.7680664062</ele>
        <time>2020-07-19T13:10:41Z</time>
      </trkpt>
      <trkpt lat="45.20389" lon="6.19216">
        <ele>2249.9680175781</ele>
        <time>2020-07-19T13:10:46Z</time>
      </trkpt>
      <trkpt lat="45.204" lon="6.19249">
        <ele>2251.3679199219</ele>
        <time>2020-07-19T13:10:51Z</time>
      </trkpt>
      <trkpt lat="45.204" lon="6.1927">
        <ele>2251.0681152344</ele>
        <time>2020-07-19T13:10:56Z</time>
      </trkpt>
      <trkpt lat="45.20399" lon="6.19284">
        <ele>2248.5681152344</ele>
        <time>2020-07-19T13:11:01Z</time>
      </trkpt>
      <trkpt lat="45.20395" lon="6.19294">
        <ele>2244.5681152344</ele>
        <time>2020-07-19T13:11:06Z</time>
      </trkpt>
      <trkpt lat="45.20393" lon="6.19304">
        <ele>2240.5681152344</ele>
        <time>2020-07-19T13:13:12Z</time>
      </trkpt>
      <trkpt lat="45.20393" lon="6.1932">
        <ele>2241.16796875</ele>
        <time>2020-07-19T13:13:17Z</time>
      </trkpt>
      <trkpt lat="45.20394" lon="6.19335">
        <ele>2240.8679199219</ele>
        <time>2020-07-19T13:13:22Z</time>
      </trkpt>
      <trkpt lat="45.20399" lon="6.19326">
        <ele>2238.66796875</ele>
        <time>2020-07-19T13:13:31Z</time>
      </trkpt>
      <trkpt lat="45.20405" lon="6.19321">
        <ele>2236.4680175781</ele>
        <time>2020-07-19T13:13:40Z</time>
      </trkpt>
      <trkpt lat="45.20409" lon="6.19329">
        <ele>2234.66796875</ele>
        <time>2020-07-19T13:13:45Z</time>
      </trkpt>
      <trkpt lat="45.20411" lon="6.1934">
        <ele>2232.66796875</ele>
        <time>2020-07-19T13:13:51Z</time>
      </trkpt>
      <trkpt lat="45.20414" lon="6.19353">
        <ele>2230.7680664062</ele>
        <time>2020-07-19T13:13:56Z</time>
      </trkpt>
      <trkpt lat="45.20414" lon="6.19366">
        <ele>2229.5681152344</ele>
        <time>2020-07-19T13:14:01Z</time>
      </trkpt>
      <trkpt lat="45.20414" lon="6.19382">
        <ele>2227.8679199219</ele>
        <time>2020-07-19T13:14:06Z</time>
      </trkpt>
      <trkpt lat="45.20412" lon="6.19395">
        <ele>2223.8679199219</ele>
        <time>2020-07-19T13:14:11Z</time>
      </trkpt>
      <trkpt lat="45.20413" lon="6.19406">
        <ele>2220.7680664062</ele>
        <time>2020-07-19T13:14:16Z</time>
      </trkpt>
      <trkpt lat="45.20414" lon="6.19416">
        <ele>2217.0681152344</ele>
        <time>2020-07-19T13:14:21Z</time>
      </trkpt>
      <trkpt lat="45.20413" lon="6.19433">
        <ele>2213.8679199219</ele>
        <time>2020-07-19T13:14:26Z</time>
      </trkpt>
      <trkpt lat="45.20415" lon="6.1945">
        <ele>2209.9680175781</ele>
        <time>2020-07-19T13:14:31Z</time>
      </trkpt>
      <trkpt lat="45.2041" lon="6.19479">
        <ele>2207.66796875</ele>
        <time>2020-07-19T13:14:36Z</time>
      </trkpt>
      <trkpt lat="45.20404" lon="6.19497">
        <ele>2205.4680175781</ele>
        <time>2020-07-19T13:14:41Z</time>
      </trkpt>
      <trkpt lat="45.20396" lon="6.1952">
        <ele>2203.9680175781</ele>
        <time>2020-07-19T13:14:46Z</time>
      </trkpt>
      <trkpt lat="45.20387" lon="6.19542">
        <ele>2199.9680175781</ele>
        <time>2020-07-19T13:14:51Z</time>
      </trkpt>
      <trkpt lat="45.20381" lon="6.19545">
        <ele>2193.66796875</ele>
        <time>2020-07-19T13:15:31Z</time>
      </trkpt>
      <trkpt lat="45.2036" lon="6.1956">
        <ele>2196.5681152344</ele>
        <time>2020-07-19T13:15:36Z</time>
      </trkpt>
      <trkpt lat="45.20341" lon="6.19555">
        <ele>2200.3679199219</ele>
        <time>2020-07-19T13:15:41Z</time>
      </trkpt>
      <trkpt lat="45.20324" lon="6.19545">
        <ele>2200.5681152344</ele>
        <time>2020-07-19T13:15:46Z</time>
      </trkpt>
      <trkpt lat="45.20318" lon="6.19545">
        <ele>2199.2680664062</ele>
        <time>2020-07-19T13:15:52Z</time>
      </trkpt>
      <trkpt lat="45.20313" lon="6.19556">
        <ele>2198.5681152344</ele>
        <time>2020-07-19T13:15:57Z</time>
      </trkpt>
      <trkpt lat="45.2031" lon="6.19567">
        <ele>2197.16796875</ele>
        <time>2020-07-19T13:16:02Z</time>
      </trkpt>
      <trkpt lat="45.20308" lon="6.19588">
        <ele>2194.5681152344</ele>
        <time>2020-07-19T13:16:07Z</time>
      </trkpt>
      <trkpt lat="45.20307" lon="6.19597">
        <ele>2192.66796875</ele>
        <time>2020-07-19T13:16:19Z</time>
      </trkpt>
      <trkpt lat="45.20306" lon="6.19612">
        <ele>2192.0681152344</ele>
        <time>2020-07-19T13:16:24Z</time>
      </trkpt>
      <trkpt lat="45.20298" lon="6.19627">
        <ele>2190.2680664062</ele>
        <time>2020-07-19T13:16:29Z</time>
      </trkpt>
      <trkpt lat="45.20284" lon="6.19619">
        <ele>2183.9680175781</ele>
        <time>2020-07-19T13:16:34Z</time>
      </trkpt>
      <trkpt lat="45.20266" lon="6.19612">
        <ele>2178.9680175781</ele>
        <time>2020-07-19T13:16:39Z</time>
      </trkpt>
      <trkpt lat="45.20255" lon="6.19602">
        <ele>2175.16796875</ele>
        <time>2020-07-19T13:16:44Z</time>
      </trkpt>
      <trkpt lat="45.20249" lon="6.19617">
        <ele>2173.4680175781</ele>
        <time>2020-07-19T13:16:49Z</time>
      </trkpt>
      <trkpt lat="45.20244" lon="6.19636">
        <ele>2172.7680664062</ele>
        <time>2020-07-19T13:16:54Z</time>
      </trkpt>
      <trkpt lat="45.20235" lon="6.19645">
        <ele>2171.0681152344</ele>
        <time>2020-07-19T13:16:59Z</time>
      </trkpt>
      <trkpt lat="45.2024" lon="6.19654">
        <ele>2163.3679199219</ele>
        <time>2020-07-19T13:19:33Z</time>
      </trkpt>
      <trkpt lat="45.20236" lon="6.19671">
        <ele>2161.4680175781</ele>
        <time>2020-07-19T13:19:38Z</time>
      </trkpt>
      <trkpt lat="45.20233" lon="6.19691">
        <ele>2159.66796875</ele>
        <time>2020-07-19T13:19:43Z</time>
      </trkpt>
      <trkpt lat="45.20245" lon="6.19714">
        <ele>2154.16796875</ele>
        <time>2020-07-19T13:19:48Z</time>
      </trkpt>
      <trkpt lat="45.20249" lon="6.19753">
        <ele>2150.9680175781</ele>
        <time>2020-07-19T13:19:53Z</time>
      </trkpt>
      <trkpt lat="45.20248" lon="6.19801">
        <ele>2147.8679199219</ele>
        <time>2020-07-19T13:19:58Z</time>
      </trkpt>
      <trkpt lat="45.20243" lon="6.1985">
        <ele>2142.2680664062</ele>
        <time>2020-07-19T13:20:03Z</time>
      </trkpt>
      <trkpt lat="45.20235" lon="6.19897">
        <ele>2136.5681152344</ele>
        <time>2020-07-19T13:20:08Z</time>
      </trkpt>
      <trkpt lat="45.20233" lon="6.19929">
        <ele>2130.8679199219</ele>
        <time>2020-07-19T13:20:13Z</time>
      </trkpt>
      <trkpt lat="45.20229" lon="6.19967">
        <ele>2128.16796875</ele>
        <time>2020-07-19T13:20:18Z</time>
      </trkpt>
      <trkpt lat="45.20213" lon="6.20005">
        <ele>2124.9680175781</ele>
        <time>2020-07-19T13:20:23Z</time>
      </trkpt>
      <trkpt lat="45.20187" lon="6.20034">
        <ele>2120.8679199219</ele>
        <time>2020-07-19T13:20:28Z</time>
      </trkpt>
      <trkpt lat="45.20161" lon="6.20058">
        <ele>2114.5681152344</ele>
        <time>2020-07-19T13:20:33Z</time>
      </trkpt>
      <trkpt lat="45.2013" lon="6.20078">
        <ele>2110.3679199219</ele>
        <time>2020-07-19T13:20:38Z</time>
      </trkpt>
      <trkpt lat="45.20116" lon="6.2009">
        <ele>2105.66796875</ele>
        <time>2020-07-19T13:20:43Z</time>
      </trkpt>
      <trkpt lat="45.20086" lon="6.20102">
        <ele>2102.66796875</ele>
        <time>2020-07-19T13:20:48Z</time>
      </trkpt>
      <trkpt lat="45.20054" lon="6.20131">
        <ele>2099.8679199219</ele>
        <time>2020-07-19T13:20:53Z</time>
      </trkpt>
      <trkpt lat="45.20048" lon="6.20163">
        <ele>2096.9680175781</ele>
        <time>2020-07-19T13:20:58Z</time>
      </trkpt>
      <trkpt lat="45.20063" lon="6.20207">
        <ele>2092.0681152344</ele>
        <time>2020-07-19T13:21:03Z</time>
      </trkpt>
      <trkpt lat="45.20083" lon="6.2024">
        <ele>2090.2680664062</ele>
        <time>2020-07-19T13:21:08Z</time>
      </trkpt>
      <trkpt lat="45.20098" lon="6.20261">
        <ele>2085.4689941406</ele>
        <time>2020-07-19T13:21:13Z</time>
      </trkpt>
      <trkpt lat="45.20103" lon="6.20269">
        <ele>2085.3688964844</ele>
        <time>2020-07-19T13:21:18Z</time>
      </trkpt>
      <trkpt lat="45.20108" lon="6.20278">
        <ele>2086.8688964844</ele>
        <time>2020-07-19T13:21:25Z</time>
      </trkpt>
      <trkpt lat="45.20114" lon="6.20284">
        <ele>2085.6689453125</ele>
        <time>2020-07-19T13:21:32Z</time>
      </trkpt>
      <trkpt lat="45.20119" lon="6.2029">
        <ele>2086.9689941406</ele>
        <time>2020-07-19T13:21:37Z</time>
      </trkpt>
      <trkpt lat="45.20126" lon="6.20296">
        <ele>2087.3688964844</ele>
        <time>2020-07-19T13:21:42Z</time>
      </trkpt>
      <trkpt lat="45.20132" lon="6.203">
        <ele>2091.1689453125</ele>
        <time>2020-07-19T13:21:47Z</time>
      </trkpt>
      <trkpt lat="45.20138" lon="6.20306">
        <ele>2090.9689941406</ele>
        <time>2020-07-19T13:21:52Z</time>
      </trkpt>
      <trkpt lat="45.20145" lon="6.20311">
        <ele>2091.0690917969</ele>
        <time>2020-07-19T13:21:57Z</time>
      </trkpt>
      <trkpt lat="45.20152" lon="6.20316">
        <ele>2092.4689941406</ele>
        <time>2020-07-19T13:22:02Z</time>
      </trkpt>
      <trkpt lat="45.20158" lon="6.20321">
        <ele>2092.6689453125</ele>
        <time>2020-07-19T13:22:07Z</time>
      </trkpt>
      <trkpt lat="45.20164" lon="6.20328">
        <ele>2094.1689453125</ele>
        <time>2020-07-19T13:22:13Z</time>
      </trkpt>
      <trkpt lat="45.2017" lon="6.20334">
        <ele>2094.4689941406</ele>
        <time>2020-07-19T13:22:20Z</time>
      </trkpt>
      <trkpt lat="45.20174" lon="6.20341">
        <ele>2097.0690917969</ele>
        <time>2020-07-19T13:22:25Z</time>
      </trkpt>
      <trkpt lat="45.20178" lon="6.20349">
        <ele>2097.9689941406</ele>
        <time>2020-07-19T13:22:32Z</time>
      </trkpt>
      <trkpt lat="45.20182" lon="6.20357">
        <ele>2099.1689453125</ele>
        <time>2020-07-19T13:22:39Z</time>
      </trkpt>
      <trkpt lat="45.20186" lon="6.20365">
        <ele>2100.1689453125</ele>
        <time>2020-07-19T13:22:44Z</time>
      </trkpt>
      <trkpt lat="45.20192" lon="6.2037">
        <ele>2097.0690917969</ele>
        <time>2020-07-19T13:22:50Z</time>
      </trkpt>
      <trkpt lat="45.20198" lon="6.20375">
        <ele>2093.4689941406</ele>
        <time>2020-07-19T13:22:57Z</time>
      </trkpt>
      <trkpt lat="45.20205" lon="6.20379">
        <ele>2089.9689941406</ele>
        <time>2020-07-19T13:23:05Z</time>
      </trkpt>
      <trkpt lat="45.20211" lon="6.20384">
        <ele>2084.5690917969</ele>
        <time>2020-07-19T13:23:12Z</time>
      </trkpt>
      <trkpt lat="45.20217" lon="6.20389">
        <ele>2080.9689941406</ele>
        <time>2020-07-19T13:23:18Z</time>
      </trkpt>
      <trkpt lat="45.20223" lon="6.20394">
        <ele>2077.3688964844</ele>
        <time>2020-07-19T13:23:24Z</time>
      </trkpt>
      <trkpt lat="45.20229" lon="6.20399">
        <ele>2074.5690917969</ele>
        <time>2020-07-19T13:23:30Z</time>
      </trkpt>
      <trkpt lat="45.20235" lon="6.20404">
        <ele>2073.8688964844</ele>
        <time>2020-07-19T13:23:36Z</time>
      </trkpt>
      <trkpt lat="45.20242" lon="6.20406">
        <ele>2073.5690917969</ele>
        <time>2020-07-19T13:23:42Z</time>
      </trkpt>
      <trkpt lat="45.20248" lon="6.20407">
        <ele>2074.6689453125</ele>
        <time>2020-07-19T13:23:48Z</time>
      </trkpt>
      <trkpt lat="45.20255" lon="6.20411">
        <ele>2075.9689941406</ele>
        <time>2020-07-19T13:23:54Z</time>
      </trkpt>
      <trkpt lat="45.20262" lon="6.20416">
        <ele>2076.6689453125</ele>
        <time>2020-07-19T13:24:01Z</time>
      </trkpt>
      <trkpt lat="45.20268" lon="6.20419">
        <ele>2076.0690917969</ele>
        <time>2020-07-19T13:24:11Z</time>
      </trkpt>
      <trkpt lat="45.20274" lon="6.20425">
        <ele>2078.2690429688</ele>
        <time>2020-07-19T13:24:22Z</time>
      </trkpt>
      <trkpt lat="45.2028" lon="6.2043">
        <ele>2080.1689453125</ele>
        <time>2020-07-19T13:24:30Z</time>
      </trkpt>
      <trkpt lat="45.20285" lon="6.20435">
        <ele>2082.1689453125</ele>
        <time>2020-07-19T13:24:38Z</time>
      </trkpt>
      <trkpt lat="45.20291" lon="6.20441">
        <ele>2083.6689453125</ele>
        <time>2020-07-19T13:24:46Z</time>
      </trkpt>
      <trkpt lat="45.20296" lon="6.20447">
        <ele>2085.0690917969</ele>
        <time>2020-07-19T13:24:54Z</time>
      </trkpt>
      <trkpt lat="45.20302" lon="6.20452">
        <ele>2086.3688964844</ele>
        <time>2020-07-19T13:25:02Z</time>
      </trkpt>
      <trkpt lat="45.20308" lon="6.20458">
        <ele>2087.8688964844</ele>
        <time>2020-07-19T13:25:10Z</time>
      </trkpt>
      <trkpt lat="45.20314" lon="6.20464">
        <ele>2089.4689941406</ele>
        <time>2020-07-19T13:25:18Z</time>
      </trkpt>
      <trkpt lat="45.2032" lon="6.20468">
        <ele>2090.4689941406</ele>
        <time>2020-07-19T13:25:25Z</time>
      </trkpt>
      <trkpt lat="45.20326" lon="6.20474">
        <ele>2092.5690917969</ele>
        <time>2020-07-19T13:25:37Z</time>
      </trkpt>
      <trkpt lat="45.20331" lon="6.20479">
        <ele>2092.8688964844</ele>
        <time>2020-07-19T13:25:46Z</time>
      </trkpt>
      <trkpt lat="45.20337" lon="6.20484">
        <ele>2093.2690429688</ele>
        <time>2020-07-19T13:25:56Z</time>
      </trkpt>
      <trkpt lat="45.20344" lon="6.20488">
        <ele>2093.5690917969</ele>
        <time>2020-07-19T13:26:07Z</time>
      </trkpt>
      <trkpt lat="45.2035" lon="6.20492">
        <ele>2094.8688964844</ele>
        <time>2020-07-19T13:26:14Z</time>
      </trkpt>
      <trkpt lat="45.20357" lon="6.20496">
        <ele>2096.3688964844</ele>
        <time>2020-07-19T13:26:20Z</time>
      </trkpt>
      <trkpt lat="45.20364" lon="6.20499">
        <ele>2097.5690917969</ele>
        <time>2020-07-19T13:26:26Z</time>
      </trkpt>
      <trkpt lat="45.20371" lon="6.20501">
        <ele>2097.7690429688</ele>
        <time>2020-07-19T13:26:31Z</time>
      </trkpt>
      <trkpt lat="45.20378" lon="6.20502">
        <ele>2098.1689453125</ele>
        <time>2020-07-19T13:26:37Z</time>
      </trkpt>
      <trkpt lat="45.20385" lon="6.20503">
        <ele>2099.1689453125</ele>
        <time>2020-07-19T13:26:42Z</time>
      </trkpt>
      <trkpt lat="45.20393" lon="6.20503">
        <ele>2099.9689941406</ele>
        <time>2020-07-19T13:26:48Z</time>
      </trkpt>
      <trkpt lat="45.20401" lon="6.20504">
        <ele>2100.2690429688</ele>
        <time>2020-07-19T13:26:54Z</time>
      </trkpt>
      <trkpt lat="45.20408" lon="6.20506">
        <ele>2101.6689453125</ele>
        <time>2020-07-19T13:27:01Z</time>
      </trkpt>
      <trkpt lat="45.20415" lon="6.20508">
        <ele>2102.7690429688</ele>
        <time>2020-07-19T13:27:06Z</time>
      </trkpt>
      <trkpt lat="45.20422" lon="6.20511">
        <ele>2103.3701171875</ele>
        <time>2020-07-19T13:27:11Z</time>
      </trkpt>
      <trkpt lat="45.20429" lon="6.20514">
        <ele>2103.5700683594</ele>
        <time>2020-07-19T13:27:16Z</time>
      </trkpt>
      <trkpt lat="45.20436" lon="6.20518">
        <ele>2104.0700683594</ele>
        <time>2020-07-19T13:27:21Z</time>
      </trkpt>
      <trkpt lat="45.20442" lon="6.20521">
        <ele>2104.5700683594</ele>
        <time>2020-07-19T13:27:26Z</time>
      </trkpt>
      <trkpt lat="45.20448" lon="6.20526">
        <ele>2105.169921875</ele>
        <time>2020-07-19T13:27:31Z</time>
      </trkpt>
      <trkpt lat="45.20455" lon="6.20529">
        <ele>2106.4699707031</ele>
        <time>2020-07-19T13:27:38Z</time>
      </trkpt>
      <trkpt lat="45.20461" lon="6.20535">
        <ele>2107.0700683594</ele>
        <time>2020-07-19T13:27:44Z</time>
      </trkpt>
      <trkpt lat="45.20467" lon="6.20542">
        <ele>2108.2700195312</ele>
        <time>2020-07-19T13:27:50Z</time>
      </trkpt>
      <trkpt lat="45.20473" lon="6.20547">
        <ele>2109.669921875</ele>
        <time>2020-07-19T13:27:56Z</time>
      </trkpt>
      <trkpt lat="45.2048" lon="6.20553">
        <ele>2111.2700195312</ele>
        <time>2020-07-19T13:28:02Z</time>
      </trkpt>
      <trkpt lat="45.20486" lon="6.20558">
        <ele>2112.169921875</ele>
        <time>2020-07-19T13:28:07Z</time>
      </trkpt>
      <trkpt lat="45.20492" lon="6.20562">
        <ele>2113.0700683594</ele>
        <time>2020-07-19T13:28:12Z</time>
      </trkpt>
      <trkpt lat="45.20498" lon="6.20567">
        <ele>2114.2700195312</ele>
        <time>2020-07-19T13:28:18Z</time>
      </trkpt>
      <trkpt lat="45.20504" lon="6.20574">
        <ele>2114.3701171875</ele>
        <time>2020-07-19T13:28:23Z</time>
      </trkpt>
      <trkpt lat="45.20511" lon="6.2058">
        <ele>2115.0700683594</ele>
        <time>2020-07-19T13:28:28Z</time>
      </trkpt>
      <trkpt lat="45.20519" lon="6.20587">
        <ele>2115.5700683594</ele>
        <time>2020-07-19T13:28:33Z</time>
      </trkpt>
      <trkpt lat="45.20527" lon="6.20593">
        <ele>2116.2700195312</ele>
        <time>2020-07-19T13:28:38Z</time>
      </trkpt>
      <trkpt lat="45.20534" lon="6.20598">
        <ele>2117.4699707031</ele>
        <time>2020-07-19T13:28:43Z</time>
      </trkpt>
      <trkpt lat="45.20542" lon="6.20603">
        <ele>2118.669921875</ele>
        <time>2020-07-19T13:28:48Z</time>
      </trkpt>
      <trkpt lat="45.2055" lon="6.20609">
        <ele>2119.5700683594</ele>
        <time>2020-07-19T13:28:53Z</time>
      </trkpt>
      <trkpt lat="45.20557" lon="6.20615">
        <ele>2119.9699707031</ele>
        <time>2020-07-19T13:28:58Z</time>
      </trkpt>
      <trkpt lat="45.20563" lon="6.2062">
        <ele>2121.169921875</ele>
        <time>2020-07-19T13:29:03Z</time>
      </trkpt>
      <trkpt lat="45.2057" lon="6.20628">
        <ele>2121.7700195312</ele>
        <time>2020-07-19T13:29:08Z</time>
      </trkpt>
      <trkpt lat="45.20577" lon="6.20636">
        <ele>2122.5700683594</ele>
        <time>2020-07-19T13:29:13Z</time>
      </trkpt>
      <trkpt lat="45.20583" lon="6.20644">
        <ele>2122.4699707031</ele>
        <time>2020-07-19T13:29:18Z</time>
      </trkpt>
      <trkpt lat="45.2059" lon="6.20654">
        <ele>2121.9699707031</ele>
        <time>2020-07-19T13:29:23Z</time>
      </trkpt>
      <trkpt lat="45.20596" lon="6.20662">
        <ele>2123.169921875</ele>
        <time>2020-07-19T13:29:28Z</time>
      </trkpt>
      <trkpt lat="45.20602" lon="6.20671">
        <ele>2123.5700683594</ele>
        <time>2020-07-19T13:29:33Z</time>
      </trkpt>
      <trkpt lat="45.20606" lon="6.20678">
        <ele>2123.7700195312</ele>
        <time>2020-07-19T13:29:39Z</time>
      </trkpt>
      <trkpt lat="45.20611" lon="6.20687">
        <ele>2125.3701171875</ele>
        <time>2020-07-19T13:29:45Z</time>
      </trkpt>
      <trkpt lat="45.20617" lon="6.20696">
        <ele>2126.4699707031</ele>
        <time>2020-07-19T13:29:50Z</time>
      </trkpt>
      <trkpt lat="45.20621" lon="6.20704">
        <ele>2127.8701171875</ele>
        <time>2020-07-19T13:29:55Z</time>
      </trkpt>
      <trkpt lat="45.20627" lon="6.20712">
        <ele>2128.669921875</ele>
        <time>2020-07-19T13:30:00Z</time>
      </trkpt>
      <trkpt lat="45.20633" lon="6.2072">
        <ele>2129.3701171875</ele>
        <time>2020-07-19T13:30:05Z</time>
      </trkpt>
      <trkpt lat="45.20639" lon="6.20727">
        <ele>2129.2700195312</ele>
        <time>2020-07-19T13:30:11Z</time>
      </trkpt>
      <trkpt lat="45.20644" lon="6.20734">
        <ele>2130.3701171875</ele>
        <time>2020-07-19T13:30:17Z</time>
      </trkpt>
      <trkpt lat="45.20649" lon="6.20741">
        <ele>2130.4699707031</ele>
        <time>2020-07-19T13:30:22Z</time>
      </trkpt>
      <trkpt lat="45.20655" lon="6.20748">
        <ele>2130.8701171875</ele>
        <time>2020-07-19T13:30:28Z</time>
      </trkpt>
      <trkpt lat="45.20661" lon="6.20754">
        <ele>2130.7700195312</ele>
        <time>2020-07-19T13:30:33Z</time>
      </trkpt>
      <trkpt lat="45.20667" lon="6.2076">
        <ele>2130.3701171875</ele>
        <time>2020-07-19T13:30:38Z</time>
      </trkpt>
      <trkpt lat="45.20672" lon="6.20766">
        <ele>2131.0700683594</ele>
        <time>2020-07-19T13:30:43Z</time>
      </trkpt>
      <trkpt lat="45.20678" lon="6.20772">
        <ele>2131.9699707031</ele>
        <time>2020-07-19T13:30:48Z</time>
      </trkpt>
      <trkpt lat="45.20685" lon="6.2078">
        <ele>2135.7700195312</ele>
        <time>2020-07-19T13:30:53Z</time>
      </trkpt>
      <trkpt lat="45.20687" lon="6.20792">
        <ele>2137.5700683594</ele>
        <time>2020-07-19T13:30:58Z</time>
      </trkpt>
      <trkpt lat="45.20685" lon="6.20801">
        <ele>2138.8701171875</ele>
        <time>2020-07-19T13:31:03Z</time>
      </trkpt>
      <trkpt lat="45.20681" lon="6.20809">
        <ele>2138.669921875</ele>
        <time>2020-07-19T13:31:09Z</time>
      </trkpt>
      <trkpt lat="45.20675" lon="6.20814">
        <ele>2138.169921875</ele>
        <time>2020-07-19T13:31:14Z</time>
      </trkpt>
      <trkpt lat="45.20668" lon="6.20818">
        <ele>2137.3701171875</ele>
        <time>2020-07-19T13:31:20Z</time>
      </trkpt>
      <trkpt lat="45.20675" lon="6.2082">
        <ele>2138.169921875</ele>
        <time>2020-07-19T13:46:17Z</time>
      </trkpt>
      <trkpt lat="45.20684" lon="6.20816">
        <ele>2137.8701171875</ele>
        <time>2020-07-19T13:46:22Z</time>
      </trkpt>
      <trkpt lat="45.207" lon="6.2083">
        <ele>2137.169921875</ele>
        <time>2020-07-19T13:46:27Z</time>
      </trkpt>
      <trkpt lat="45.20724" lon="6.20843">
        <ele>2135.5710449219</ele>
        <time>2020-07-19T13:46:32Z</time>
      </trkpt>
      <trkpt lat="45.2076" lon="6.20865">
        <ele>2130.6708984375</ele>
        <time>2020-07-19T13:46:37Z</time>
      </trkpt>
      <trkpt lat="45.20796" lon="6.20885">
        <ele>2126.9709472656</ele>
        <time>2020-07-19T13:46:42Z</time>
      </trkpt>
      <trkpt lat="45.2083" lon="6.20906">
        <ele>2122.6708984375</ele>
        <time>2020-07-19T13:46:47Z</time>
      </trkpt>
      <trkpt lat="45.20864" lon="6.2092">
        <ele>2119.0710449219</ele>
        <time>2020-07-19T13:46:52Z</time>
      </trkpt>
      <trkpt lat="45.20879" lon="6.20927">
        <ele>2116.87109375</ele>
        <time>2020-07-19T13:46:57Z</time>
      </trkpt>
      <trkpt lat="45.20885" lon="6.2094">
        <ele>2115.4709472656</ele>
        <time>2020-07-19T13:47:02Z</time>
      </trkpt>
      <trkpt lat="45.20888" lon="6.20951">
        <ele>2112.1708984375</ele>
        <time>2020-07-19T13:47:20Z</time>
      </trkpt>
      <trkpt lat="45.20905" lon="6.20962">
        <ele>2110.4709472656</ele>
        <time>2020-07-19T13:47:25Z</time>
      </trkpt>
      <trkpt lat="45.20911" lon="6.20985">
        <ele>2104.4709472656</ele>
        <time>2020-07-19T13:47:30Z</time>
      </trkpt>
      <trkpt lat="45.20934" lon="6.20987">
        <ele>2097.9709472656</ele>
        <time>2020-07-19T13:47:35Z</time>
      </trkpt>
      <trkpt lat="45.20956" lon="6.21002">
        <ele>2091.5710449219</ele>
        <time>2020-07-19T13:47:40Z</time>
      </trkpt>
      <trkpt lat="45.20978" lon="6.2102">
        <ele>2083.5710449219</ele>
        <time>2020-07-19T13:47:45Z</time>
      </trkpt>
      <trkpt lat="45.20999" lon="6.21014">
        <ele>2077.9709472656</ele>
        <time>2020-07-19T13:47:50Z</time>
      </trkpt>
      <trkpt lat="45.21004" lon="6.21023">
        <ele>2076.6708984375</ele>
        <time>2020-07-19T13:47:56Z</time>
      </trkpt>
      <trkpt lat="45.21012" lon="6.21063">
        <ele>2073.9709472656</ele>
        <time>2020-07-19T13:48:01Z</time>
      </trkpt>
      <trkpt lat="45.21017" lon="6.21105">
        <ele>2070.37109375</ele>
        <time>2020-07-19T13:48:06Z</time>
      </trkpt>
      <trkpt lat="45.21013" lon="6.21148">
        <ele>2066.0720214844</ele>
        <time>2020-07-19T13:48:11Z</time>
      </trkpt>
      <trkpt lat="45.21015" lon="6.21177">
        <ele>2059.7719726562</ele>
        <time>2020-07-19T13:48:16Z</time>
      </trkpt>
      <trkpt lat="45.21017" lon="6.21204">
        <ele>2049.9719238281</ele>
        <time>2020-07-19T13:48:21Z</time>
      </trkpt>
      <trkpt lat="45.21004" lon="6.21237">
        <ele>2042.7719726562</ele>
        <time>2020-07-19T13:48:26Z</time>
      </trkpt>
      <trkpt lat="45.20979" lon="6.21273">
        <ele>2039.5720214844</ele>
        <time>2020-07-19T13:48:31Z</time>
      </trkpt>
      <trkpt lat="45.20963" lon="6.21293">
        <ele>2036.0720214844</ele>
        <time>2020-07-19T13:48:36Z</time>
      </trkpt>
      <trkpt lat="45.2096" lon="6.21302">
        <ele>2035.4720458984</ele>
        <time>2020-07-19T13:48:59Z</time>
      </trkpt>
      <trkpt lat="45.20956" lon="6.2133">
        <ele>2033.3719482422</ele>
        <time>2020-07-19T13:49:04Z</time>
      </trkpt>
      <trkpt lat="45.20927" lon="6.21349">
        <ele>2027.4720458984</ele>
        <time>2020-07-19T13:49:09Z</time>
      </trkpt>
      <trkpt lat="45.20904" lon="6.21372">
        <ele>2018.9720458984</ele>
        <time>2020-07-19T13:49:14Z</time>
      </trkpt>
      <trkpt lat="45.20882" lon="6.21392">
        <ele>2012.1719970703</ele>
        <time>2020-07-19T13:49:19Z</time>
      </trkpt>
      <trkpt lat="45.20886" lon="6.21416">
        <ele>2005.4720458984</ele>
        <time>2020-07-19T13:49:24Z</time>
      </trkpt>
      <trkpt lat="45.20867" lon="6.21435">
        <ele>1999.0720214844</ele>
        <time>2020-07-19T13:49:29Z</time>
      </trkpt>
      <trkpt lat="45.20847" lon="6.21442">
        <ele>1990.6719970703</ele>
        <time>2020-07-19T13:49:34Z</time>
      </trkpt>
      <trkpt lat="45.2082" lon="6.21446">
        <ele>1986.1719970703</ele>
        <time>2020-07-19T13:49:39Z</time>
      </trkpt>
      <trkpt lat="45.20823" lon="6.2147">
        <ele>1980.3719482422</ele>
        <time>2020-07-19T13:49:44Z</time>
      </trkpt>
      <trkpt lat="45.20819" lon="6.21517">
        <ele>1974.7719726562</ele>
        <time>2020-07-19T13:49:49Z</time>
      </trkpt>
      <trkpt lat="45.20834" lon="6.21555">
        <ele>1967.9720458984</ele>
        <time>2020-07-19T13:49:54Z</time>
      </trkpt>
      <trkpt lat="45.20864" lon="6.21573">
        <ele>1962.4720458984</ele>
        <time>2020-07-19T13:49:59Z</time>
      </trkpt>
      <trkpt lat="45.20873" lon="6.21582">
        <ele>1959.0720214844</ele>
        <time>2020-07-19T13:50:30Z</time>
      </trkpt>
      <trkpt lat="45.20878" lon="6.21591">
        <ele>1956.3719482422</ele>
        <time>2020-07-19T13:50:35Z</time>
      </trkpt>
      <trkpt lat="45.2086" lon="6.21622">
        <ele>1952.6719970703</ele>
        <time>2020-07-19T13:50:40Z</time>
      </trkpt>
      <trkpt lat="45.20876" lon="6.21642">
        <ele>1944.6719970703</ele>
        <time>2020-07-19T13:50:45Z</time>
      </trkpt>
      <trkpt lat="45.20905" lon="6.21665">
        <ele>1934.5720214844</ele>
        <time>2020-07-19T13:50:50Z</time>
      </trkpt>
      <trkpt lat="45.20898" lon="6.21708">
        <ele>1926.1719970703</ele>
        <time>2020-07-19T13:50:55Z</time>
      </trkpt>
      <trkpt lat="45.2089" lon="6.2176">
        <ele>1923.2719726562</ele>
        <time>2020-07-19T13:51:00Z</time>
      </trkpt>
      <trkpt lat="45.20896" lon="6.21759">
        <ele>1911.7719726562</ele>
        <time>2020-07-19T13:52:01Z</time>
      </trkpt>
      <trkpt lat="45.20905" lon="6.21775">
        <ele>1907.4720458984</ele>
        <time>2020-07-19T13:52:06Z</time>
      </trkpt>
      <trkpt lat="45.20923" lon="6.21807">
        <ele>1899.5720214844</ele>
        <time>2020-07-19T13:52:11Z</time>
      </trkpt>
      <trkpt lat="45.2092" lon="6.21839">
        <ele>1892.5720214844</ele>
        <time>2020-07-19T13:52:16Z</time>
      </trkpt>
      <trkpt lat="45.20933" lon="6.21863">
        <ele>1883.4720458984</ele>
        <time>2020-07-19T13:52:21Z</time>
      </trkpt>
      <trkpt lat="45.20935" lon="6.21884">
        <ele>1873.7719726562</ele>
        <time>2020-07-19T13:52:26Z</time>
      </trkpt>
      <trkpt lat="45.20931" lon="6.21892">
        <ele>1862.9720458984</ele>
        <time>2020-07-19T13:52:33Z</time>
      </trkpt>
      <trkpt lat="45.20915" lon="6.21914">
        <ele>1855.5720214844</ele>
        <time>2020-07-19T13:52:38Z</time>
      </trkpt>
      <trkpt lat="45.20918" lon="6.21948">
        <ele>1847.5720214844</ele>
        <time>2020-07-19T13:52:43Z</time>
      </trkpt>
      <trkpt lat="45.20921" lon="6.21966">
        <ele>1838.5720214844</ele>
        <time>2020-07-19T13:52:48Z</time>
      </trkpt>
      <trkpt lat="45.20926" lon="6.21982">
        <ele>1827.1729736328</ele>
        <time>2020-07-19T13:52:53Z</time>
      </trkpt>
      <trkpt lat="45.20927" lon="6.22003">
        <ele>1818.873046875</ele>
        <time>2020-07-19T13:52:58Z</time>
      </trkpt>
      <trkpt lat="45.20928" lon="6.22033">
        <ele>1811.7729492188</ele>
        <time>2020-07-19T13:53:03Z</time>
      </trkpt>
      <trkpt lat="45.20928" lon="6.22056">
        <ele>1802.0729980469</ele>
        <time>2020-07-19T13:53:08Z</time>
      </trkpt>
      <trkpt lat="45.20919" lon="6.22073">
        <ele>1794.873046875</ele>
        <time>2020-07-19T13:53:13Z</time>
      </trkpt>
      <trkpt lat="45.20913" lon="6.22094">
        <ele>1786.873046875</ele>
        <time>2020-07-19T13:53:18Z</time>
      </trkpt>
      <trkpt lat="45.20916" lon="6.22116">
        <ele>1778.2729492188</ele>
        <time>2020-07-19T13:53:23Z</time>
      </trkpt>
      <trkpt lat="45.20926" lon="6.22134">
        <ele>1769.6729736328</ele>
        <time>2020-07-19T13:53:28Z</time>
      </trkpt>
      <trkpt lat="45.20952" lon="6.22159">
        <ele>1762.4730224609</ele>
        <time>2020-07-19T13:53:33Z</time>
      </trkpt>
      <trkpt lat="45.20965" lon="6.22175">
        <ele>1756.2729492188</ele>
        <time>2020-07-19T13:53:38Z</time>
      </trkpt>
      <trkpt lat="45.20975" lon="6.2218">
        <ele>1753.1729736328</ele>
        <time>2020-07-19T13:53:43Z</time>
      </trkpt>
      <trkpt lat="45.20983" lon="6.22183">
        <ele>1753.7729492188</ele>
        <time>2020-07-19T13:53:54Z</time>
      </trkpt>
      <trkpt lat="45.20983" lon="6.22196">
        <ele>1752.873046875</ele>
        <time>2020-07-19T13:54:00Z</time>
      </trkpt>
      <trkpt lat="45.20991" lon="6.22208">
        <ele>1750.5729980469</ele>
        <time>2020-07-19T13:54:05Z</time>
      </trkpt>
      <trkpt lat="45.2099" lon="6.22237">
        <ele>1743.873046875</ele>
        <time>2020-07-19T13:54:10Z</time>
      </trkpt>
      <trkpt lat="45.20988" lon="6.22267">
        <ele>1736.373046875</ele>
        <time>2020-07-19T13:54:15Z</time>
      </trkpt>
      <trkpt lat="45.20995" lon="6.22274">
        <ele>1736.0729980469</ele>
        <time>2020-07-19T13:54:20Z</time>
      </trkpt>
      <trkpt lat="45.21002" lon="6.2227">
        <ele>1733.9730224609</ele>
        <time>2020-07-19T13:55:52Z</time>
      </trkpt>
      <trkpt lat="45.21016" lon="6.22264">
        <ele>1733.9730224609</ele>
        <time>2020-07-19T13:55:57Z</time>
      </trkpt>
      <trkpt lat="45.21032" lon="6.22249">
        <ele>1730.6729736328</ele>
        <time>2020-07-19T13:56:02Z</time>
      </trkpt>
      <trkpt lat="45.21059" lon="6.2223">
        <ele>1727.373046875</ele>
        <time>2020-07-19T13:56:07Z</time>
      </trkpt>
      <trkpt lat="45.21091" lon="6.22204">
        <ele>1723.4730224609</ele>
        <time>2020-07-19T13:56:12Z</time>
      </trkpt>
      <trkpt lat="45.21115" lon="6.22174">
        <ele>1720.373046875</ele>
        <time>2020-07-19T13:56:17Z</time>
      </trkpt>
      <trkpt lat="45.21137" lon="6.22156">
        <ele>1717.873046875</ele>
        <time>2020-07-19T13:56:22Z</time>
      </trkpt>
      <trkpt lat="45.21163" lon="6.22133">
        <ele>1714.4730224609</ele>
        <time>2020-07-19T13:56:27Z</time>
      </trkpt>
      <trkpt lat="45.21198" lon="6.22108">
        <ele>1709.7729492188</ele>
        <time>2020-07-19T13:56:32Z</time>
      </trkpt>
      <trkpt lat="45.21245" lon="6.22108">
        <ele>1703.873046875</ele>
        <time>2020-07-19T13:56:37Z</time>
      </trkpt>
      <trkpt lat="45.21296" lon="6.22097">
        <ele>1700.9730224609</ele>
        <time>2020-07-19T13:56:42Z</time>
      </trkpt>
      <trkpt lat="45.21324" lon="6.22088">
        <ele>1696.7729492188</ele>
        <time>2020-07-19T13:56:47Z</time>
      </trkpt>
      <trkpt lat="45.21332" lon="6.22099">
        <ele>1692.7729492188</ele>
        <time>2020-07-19T13:56:52Z</time>
      </trkpt>
      <trkpt lat="45.21333" lon="6.22133">
        <ele>1689.5739746094</ele>
        <time>2020-07-19T13:56:57Z</time>
      </trkpt>
      <trkpt lat="45.21361" lon="6.22132">
        <ele>1685.5739746094</ele>
        <time>2020-07-19T13:57:02Z</time>
      </trkpt>
      <trkpt lat="45.21377" lon="6.22137">
        <ele>1682.2740478516</ele>
        <time>2020-07-19T13:57:07Z</time>
      </trkpt>
      <trkpt lat="45.21369" lon="6.22154">
        <ele>1678.8740234375</ele>
        <time>2020-07-19T13:57:12Z</time>
      </trkpt>
      <trkpt lat="45.21354" lon="6.22163">
        <ele>1676.0739746094</ele>
        <time>2020-07-19T13:57:17Z</time>
      </trkpt>
      <trkpt lat="45.21343" lon="6.22179">
        <ele>1673.3740234375</ele>
        <time>2020-07-19T13:57:22Z</time>
      </trkpt>
      <trkpt lat="45.21333" lon="6.22197">
        <ele>1670.4739990234</ele>
        <time>2020-07-19T13:57:27Z</time>
      </trkpt>
      <trkpt lat="45.21314" lon="6.22219">
        <ele>1667.1739501953</ele>
        <time>2020-07-19T13:57:32Z</time>
      </trkpt>
      <trkpt lat="45.2131" lon="6.22236">
        <ele>1663.6739501953</ele>
        <time>2020-07-19T13:57:37Z</time>
      </trkpt>
      <trkpt lat="45.2129" lon="6.22258">
        <ele>1659.9739990234</ele>
        <time>2020-07-19T13:57:42Z</time>
      </trkpt>
      <trkpt lat="45.2127" lon="6.22277">
        <ele>1656.2740478516</ele>
        <time>2020-07-19T13:57:47Z</time>
      </trkpt>
      <trkpt lat="45.21261" lon="6.22292">
        <ele>1652.9739990234</ele>
        <time>2020-07-19T13:57:52Z</time>
      </trkpt>
      <trkpt lat="45.21259" lon="6.22303">
        <ele>1650.3740234375</ele>
        <time>2020-07-19T13:57:57Z</time>
      </trkpt>
      <trkpt lat="45.2127" lon="6.2233">
        <ele>1645.8740234375</ele>
        <time>2020-07-19T13:58:02Z</time>
      </trkpt>
      <trkpt lat="45.21296" lon="6.22358">
        <ele>1638.5739746094</ele>
        <time>2020-07-19T13:58:07Z</time>
      </trkpt>
      <trkpt lat="45.21305" lon="6.22372">
        <ele>1632.3740234375</ele>
        <time>2020-07-19T13:58:12Z</time>
      </trkpt>
      <trkpt lat="45.21298" lon="6.22372">
        <ele>1627.7740478516</ele>
        <time>2020-07-19T13:58:47Z</time>
      </trkpt>
      <trkpt lat="45.21291" lon="6.22364">
        <ele>1627.2740478516</ele>
        <time>2020-07-19T13:58:52Z</time>
      </trkpt>
      <trkpt lat="45.21297" lon="6.22376">
        <ele>1623.8740234375</ele>
        <time>2020-07-19T13:59:39Z</time>
      </trkpt>
      <trkpt lat="45.21325" lon="6.22409">
        <ele>1622.3740234375</ele>
        <time>2020-07-19T13:59:44Z</time>
      </trkpt>
      <trkpt lat="45.21359" lon="6.22442">
        <ele>1618.6739501953</ele>
        <time>2020-07-19T13:59:49Z</time>
      </trkpt>
      <trkpt lat="45.21389" lon="6.22468">
        <ele>1611.6739501953</ele>
        <time>2020-07-19T13:59:54Z</time>
      </trkpt>
      <trkpt lat="45.21417" lon="6.22495">
        <ele>1607.1739501953</ele>
        <time>2020-07-19T13:59:59Z</time>
      </trkpt>
      <trkpt lat="45.21451" lon="6.22533">
        <ele>1601.9739990234</ele>
        <time>2020-07-19T14:00:04Z</time>
      </trkpt>
      <trkpt lat="45.21483" lon="6.22563">
        <ele>1598.6739501953</ele>
        <time>2020-07-19T14:00:09Z</time>
      </trkpt>
      <trkpt lat="45.21499" lon="6.22576">
        <ele>1594.5739746094</ele>
        <time>2020-07-19T14:00:14Z</time>
      </trkpt>
      <trkpt lat="45.21507" lon="6.22574">
        <ele>1591.9739990234</ele>
        <time>2020-07-19T14:00:19Z</time>
      </trkpt>
      <trkpt lat="45.21513" lon="6.22585">
        <ele>1585.7740478516</ele>
        <time>2020-07-19T14:06:40Z</time>
      </trkpt>
      <trkpt lat="45.21523" lon="6.22597">
        <ele>1587.5749511719</ele>
        <time>2020-07-19T14:06:45Z</time>
      </trkpt>
      <trkpt lat="45.21529" lon="6.22606">
        <ele>1590.6750488281</ele>
        <time>2020-07-19T14:06:50Z</time>
      </trkpt>
      <trkpt lat="45.21534" lon="6.22612">
        <ele>1594.0749511719</ele>
        <time>2020-07-19T14:06:55Z</time>
      </trkpt>
      <trkpt lat="45.2154" lon="6.22618">
        <ele>1597.1750488281</ele>
        <time>2020-07-19T14:07:00Z</time>
      </trkpt>
      <trkpt lat="45.21547" lon="6.22621">
        <ele>1598.5749511719</ele>
        <time>2020-07-19T14:07:05Z</time>
      </trkpt>
      <trkpt lat="45.21554" lon="6.22622">
        <ele>1597.5749511719</ele>
        <time>2020-07-19T14:07:15Z</time>
      </trkpt>
      <trkpt lat="45.21569" lon="6.22625">
        <ele>1597.2750244141</ele>
        <time>2020-07-19T14:07:20Z</time>
      </trkpt>
      <trkpt lat="45.21593" lon="6.22625">
        <ele>1595.375</ele>
        <time>2020-07-19T14:07:25Z</time>
      </trkpt>
      <trkpt lat="45.21618" lon="6.22614">
        <ele>1593.9749755859</ele>
        <time>2020-07-19T14:07:30Z</time>
      </trkpt>
      <trkpt lat="45.2165" lon="6.22593">
        <ele>1591.2750244141</ele>
        <time>2020-07-19T14:07:35Z</time>
      </trkpt>
      <trkpt lat="45.21685" lon="6.22559">
        <ele>1589.875</ele>
        <time>2020-07-19T14:07:40Z</time>
      </trkpt>
      <trkpt lat="45.21724" lon="6.2254">
        <ele>1588.4749755859</ele>
        <time>2020-07-19T14:07:45Z</time>
      </trkpt>
      <trkpt lat="45.21769" lon="6.22522">
        <ele>1587.2750244141</ele>
        <time>2020-07-19T14:07:50Z</time>
      </trkpt>
      <trkpt lat="45.21825" lon="6.22496">
        <ele>1583.9749755859</ele>
        <time>2020-07-19T14:07:55Z</time>
      </trkpt>
      <trkpt lat="45.21859" lon="6.22454">
        <ele>1582.875</ele>
        <time>2020-07-19T14:08:00Z</time>
      </trkpt>
      <trkpt lat="45.21892" lon="6.22421">
        <ele>1580.875</ele>
        <time>2020-07-19T14:08:05Z</time>
      </trkpt>
      <trkpt lat="45.21927" lon="6.22362">
        <ele>1573.4749755859</ele>
        <time>2020-07-19T14:08:10Z</time>
      </trkpt>
      <trkpt lat="45.21947" lon="6.2234">
        <ele>1572.375</ele>
        <time>2020-07-19T14:08:15Z</time>
      </trkpt>
      <trkpt lat="45.21974" lon="6.22321">
        <ele>1571.1750488281</ele>
        <time>2020-07-19T14:08:20Z</time>
      </trkpt>
      <trkpt lat="45.22003" lon="6.22301">
        <ele>1568.375</ele>
        <time>2020-07-19T14:08:25Z</time>
      </trkpt>
      <trkpt lat="45.22021" lon="6.22308">
        <ele>1564.875</ele>
        <time>2020-07-19T14:08:30Z</time>
      </trkpt>
      <trkpt lat="45.22036" lon="6.22337">
        <ele>1563.0749511719</ele>
        <time>2020-07-19T14:08:35Z</time>
      </trkpt>
      <trkpt lat="45.22042" lon="6.22343">
        <ele>1560.9749755859</ele>
        <time>2020-07-19T14:08:40Z</time>
      </trkpt>
      <trkpt lat="45.22053" lon="6.22342">
        <ele>1561.0749511719</ele>
        <time>2020-07-19T14:08:52Z</time>
      </trkpt>
      <trkpt lat="45.22069" lon="6.22331">
        <ele>1561.4749755859</ele>
        <time>2020-07-19T14:08:57Z</time>
      </trkpt>
      <trkpt lat="45.22077" lon="6.22316">
        <ele>1562.9749755859</ele>
        <time>2020-07-19T14:09:02Z</time>
      </trkpt>
      <trkpt lat="45.22094" lon="6.22304">
        <ele>1562.375</ele>
        <time>2020-07-19T14:09:07Z</time>
      </trkpt>
      <trkpt lat="45.22101" lon="6.223">
        <ele>1561.9749755859</ele>
        <time>2020-07-19T14:09:12Z</time>
      </trkpt>
      <trkpt lat="45.22109" lon="6.22294">
        <ele>1562.2750244141</ele>
        <time>2020-07-19T14:09:17Z</time>
      </trkpt>
      <trkpt lat="45.22115" lon="6.22288">
        <ele>1564.9749755859</ele>
        <time>2020-07-19T14:09:29Z</time>
      </trkpt>
      <trkpt lat="45.22123" lon="6.22286">
        <ele>1566.6750488281</ele>
        <time>2020-07-19T14:09:35Z</time>
      </trkpt>
      <trkpt lat="45.22129" lon="6.22283">
        <ele>1569.0749511719</ele>
        <time>2020-07-19T14:09:40Z</time>
      </trkpt>
      <trkpt lat="45.22136" lon="6.22278">
        <ele>1571.0749511719</ele>
        <time>2020-07-19T14:09:45Z</time>
      </trkpt>
      <trkpt lat="45.22146" lon="6.22276">
        <ele>1571.6750488281</ele>
        <time>2020-07-19T14:09:50Z</time>
      </trkpt>
      <trkpt lat="45.22152" lon="6.2228">
        <ele>1572.875</ele>
        <time>2020-07-19T14:09:55Z</time>
      </trkpt>
      <trkpt lat="45.22163" lon="6.22294">
        <ele>1573.875</ele>
        <time>2020-07-19T14:10:00Z</time>
      </trkpt>
      <trkpt lat="45.22172" lon="6.22303">
        <ele>1575.0749511719</ele>
        <time>2020-07-19T14:10:05Z</time>
      </trkpt>
      <trkpt lat="45.22174" lon="6.22319">
        <ele>1576.7750244141</ele>
        <time>2020-07-19T14:10:10Z</time>
      </trkpt>
      <trkpt lat="45.2218" lon="6.22332">
        <ele>1576.2750244141</ele>
        <time>2020-07-19T14:10:15Z</time>
      </trkpt>
      <trkpt lat="45.22182" lon="6.22347">
        <ele>1576.1750488281</ele>
        <time>2020-07-19T14:10:20Z</time>
      </trkpt>
      <trkpt lat="45.22186" lon="6.22366">
        <ele>1577.2750244141</ele>
        <time>2020-07-19T14:10:25Z</time>
      </trkpt>
      <trkpt lat="45.22186" lon="6.22382">
        <ele>1578.9749755859</ele>
        <time>2020-07-19T14:10:30Z</time>
      </trkpt>
      <trkpt lat="45.22202" lon="6.22386">
        <ele>1573.7760009766</ele>
        <time>2020-07-19T14:10:35Z</time>
      </trkpt>
      <trkpt lat="45.22211" lon="6.22379">
        <ele>1571.8759765625</ele>
        <time>2020-07-19T14:10:40Z</time>
      </trkpt>
      <trkpt lat="45.22212" lon="6.22363">
        <ele>1571.7750244141</ele>
        <time>2020-07-19T14:10:45Z</time>
      </trkpt>
      <trkpt lat="45.22212" lon="6.22344">
        <ele>1569.875</ele>
        <time>2020-07-19T14:10:50Z</time>
      </trkpt>
      <trkpt lat="45.22214" lon="6.22316">
        <ele>1568.1750488281</ele>
        <time>2020-07-19T14:10:55Z</time>
      </trkpt>
      <trkpt lat="45.22213" lon="6.22291">
        <ele>1568.375</ele>
        <time>2020-07-19T14:11:00Z</time>
      </trkpt>
      <trkpt lat="45.2221" lon="6.22263">
        <ele>1568.6750488281</ele>
        <time>2020-07-19T14:11:05Z</time>
      </trkpt>
      <trkpt lat="45.22206" lon="6.22242">
        <ele>1571.9749755859</ele>
        <time>2020-07-19T14:11:10Z</time>
      </trkpt>
      <trkpt lat="45.22199" lon="6.22227">
        <ele>1574.5749511719</ele>
        <time>2020-07-19T14:11:15Z</time>
      </trkpt>
      <trkpt lat="45.22195" lon="6.22211">
        <ele>1575.4749755859</ele>
        <time>2020-07-19T14:11:20Z</time>
      </trkpt>
      <trkpt lat="45.22188" lon="6.22201">
        <ele>1576.6750488281</ele>
        <time>2020-07-19T14:11:25Z</time>
      </trkpt>
      <trkpt lat="45.22182" lon="6.22194">
        <ele>1575.7750244141</ele>
        <time>2020-07-19T14:11:30Z</time>
      </trkpt>
      <trkpt lat="45.22178" lon="6.22178">
        <ele>1577.6750488281</ele>
        <time>2020-07-19T14:11:35Z</time>
      </trkpt>
      <trkpt lat="45.2217" lon="6.22164">
        <ele>1581.1750488281</ele>
        <time>2020-07-19T14:11:40Z</time>
      </trkpt>
      <trkpt lat="45.22164" lon="6.22149">
        <ele>1576.7750244141</ele>
        <time>2020-07-19T14:11:45Z</time>
      </trkpt>
      <trkpt lat="45.22161" lon="6.22139">
        <ele>1576.7750244141</ele>
        <time>2020-07-19T14:11:50Z</time>
      </trkpt>
      <trkpt lat="45.22156" lon="6.2213">
        <ele>1580.2750244141</ele>
        <time>2020-07-19T14:11:55Z</time>
      </trkpt>
      <trkpt lat="45.22152" lon="6.22119">
        <ele>1583.2750244141</ele>
        <time>2020-07-19T14:12:00Z</time>
      </trkpt>
      <trkpt lat="45.2215" lon="6.22106">
        <ele>1584.9749755859</ele>
        <time>2020-07-19T14:12:05Z</time>
      </trkpt>
      <trkpt lat="45.22149" lon="6.22092">
        <ele>1587.2750244141</ele>
        <time>2020-07-19T14:12:10Z</time>
      </trkpt>
      <trkpt lat="45.22148" lon="6.22078">
        <ele>1587.875</ele>
        <time>2020-07-19T14:12:15Z</time>
      </trkpt>
      <trkpt lat="45.2215" lon="6.22061">
        <ele>1589.4749755859</ele>
        <time>2020-07-19T14:12:20Z</time>
      </trkpt>
      <trkpt lat="45.22148" lon="6.22049">
        <ele>1589.875</ele>
        <time>2020-07-19T14:12:25Z</time>
      </trkpt>
      <trkpt lat="45.22142" lon="6.22041">
        <ele>1590.2750244141</ele>
        <time>2020-07-19T14:12:30Z</time>
      </trkpt>
      <trkpt lat="45.22132" lon="6.22032">
        <ele>1592.0749511719</ele>
        <time>2020-07-19T14:12:35Z</time>
      </trkpt>
      <trkpt lat="45.22123" lon="6.22026">
        <ele>1594.7750244141</ele>
        <time>2020-07-19T14:12:40Z</time>
      </trkpt>
      <trkpt lat="45.22112" lon="6.2202">
        <ele>1597.7750244141</ele>
        <time>2020-07-19T14:12:45Z</time>
      </trkpt>
      <trkpt lat="45.22102" lon="6.22013">
        <ele>1599.875</ele>
        <time>2020-07-19T14:12:50Z</time>
      </trkpt>
      <trkpt lat="45.22094" lon="6.22007">
        <ele>1600.875</ele>
        <time>2020-07-19T14:12:55Z</time>
      </trkpt>
      <trkpt lat="45.22089" lon="6.21996">
        <ele>1600.5749511719</ele>
        <time>2020-07-19T14:13:00Z</time>
      </trkpt>
      <trkpt lat="45.2209" lon="6.21981">
        <ele>1600.1750488281</ele>
        <time>2020-07-19T14:13:05Z</time>
      </trkpt>
      <trkpt lat="45.22088" lon="6.21969">
        <ele>1600.0749511719</ele>
        <time>2020-07-19T14:13:10Z</time>
      </trkpt>
      <trkpt lat="45.22077" lon="6.21958">
        <ele>1601.7750244141</ele>
        <time>2020-07-19T14:13:15Z</time>
      </trkpt>
      <trkpt lat="45.22069" lon="6.21944">
        <ele>1604.7750244141</ele>
        <time>2020-07-19T14:13:20Z</time>
      </trkpt>
      <trkpt lat="45.2206" lon="6.21935">
        <ele>1608.6750488281</ele>
        <time>2020-07-19T14:13:25Z</time>
      </trkpt>
      <trkpt lat="45.22054" lon="6.21921">
        <ele>1612.0749511719</ele>
        <time>2020-07-19T14:13:30Z</time>
      </trkpt>
      <trkpt lat="45.22054" lon="6.21911">
        <ele>1617.5749511719</ele>
        <time>2020-07-19T14:13:36Z</time>
      </trkpt>
      <trkpt lat="45.22053" lon="6.21896">
        <ele>1618.5749511719</ele>
        <time>2020-07-19T14:13:41Z</time>
      </trkpt>
      <trkpt lat="45.22051" lon="6.21883">
        <ele>1618.6750488281</ele>
        <time>2020-07-19T14:13:46Z</time>
      </trkpt>
      <trkpt lat="45.22047" lon="6.21866">
        <ele>1617.6739501953</ele>
        <time>2020-07-19T14:13:51Z</time>
      </trkpt>
      <trkpt lat="45.22042" lon="6.21851">
        <ele>1616.4739990234</ele>
        <time>2020-07-19T14:13:56Z</time>
      </trkpt>
      <trkpt lat="45.22034" lon="6.21839">
        <ele>1616.1739501953</ele>
        <time>2020-07-19T14:14:01Z</time>
      </trkpt>
      <trkpt lat="45.22025" lon="6.21828">
        <ele>1616.1739501953</ele>
        <time>2020-07-19T14:14:06Z</time>
      </trkpt>
      <trkpt lat="45.22019" lon="6.21819">
        <ele>1616.2740478516</ele>
        <time>2020-07-19T14:14:11Z</time>
      </trkpt>
    </trkseg>
  </trk>
</gpx>